Wetterdaten: Freitag, 16.08.2019
Datum Zeit Temp. A. Feuchte A. Luftdruck Regen Wind Richtung Richtung Sonnenschein ET UV Solar Taupunkt Windchill Windböen
16.08.2019 00:00 12,8 °C 88 % 1017,5 hPa 0,0 mm 2,0 km/h (1 Bft) S 188 ° 0 min 0,000 mm 0,0 UV-I 0 W/m² 10,9 °C 12,8 °C 6,4 km/h (2 Bft)
16.08.2019 00:01 12,8 °C 88 % 1017,5 hPa 0,0 mm 2,5 km/h (1 Bft) S 187 ° 0 min 0,000 mm 0,0 UV-I 0 W/m² 10,9 °C 12,8 °C 8,0 km/h (2 Bft)
16.08.2019 00:02 12,8 °C 88 % 1017,6 hPa 0,0 mm 4,5 km/h (1 Bft) W-SW 243 ° 0 min 0,000 mm 0,0 UV-I 0 W/m² 10,9 °C 12,8 °C 8,0 km/h (2 Bft)
16.08.2019 00:03 12,8 °C 88 % 1017,6 hPa 0,0 mm 3,1 km/h (1 Bft) W-SW 252 ° 0 min 0,000 mm 0,0 UV-I 0 W/m² 10,9 °C 12,8 °C 6,4 km/h (2 Bft)
16.08.2019 00:04 12,8 °C 88 % 1017,6 hPa 0,0 mm 1,7 km/h (1 Bft) W-SW 252 ° 0 min 0,000 mm 0,0 UV-I 0 W/m² 10,9 °C 12,8 °C 4,8 km/h (1 Bft)
16.08.2019 00:05 12,8 °C 88 % 1017,6 hPa 0,0 mm 1,3 km/h (1 Bft) S-SW 195 ° 0 min 0,000 mm 0,0 UV-I 0 W/m² 10,9 °C 12,8 °C 4,8 km/h (1 Bft)
16.08.2019 00:06 12,8 °C 88 % 1017,5 hPa 0,0 mm 3,3 km/h (1 Bft) W 263 ° 0 min 0,000 mm 0,0 UV-I 0 W/m² 10,9 °C 12,8 °C 9,7 km/h (2 Bft)
16.08.2019 00:07 12,8 °C 88 % 1017,6 hPa 0,2 mm 2,3 km/h (1 Bft) S-SW 213 ° 0 min 0,000 mm 0,0 UV-I 0 W/m² 10,9 °C 12,8 °C 6,4 km/h (2 Bft)
16.08.2019 00:08 12,8 °C 88 % 1017,6 hPa 0,0 mm 2,5 km/h (1 Bft) SW 215 ° 0 min 0,000 mm 0,0 UV-I 0 W/m² 10,9 °C 12,8 °C 6,4 km/h (2 Bft)
16.08.2019 00:09 12,7 °C 88 % 1017,6 hPa 0,0 mm 0,1 km/h (0 Bft) SW 217 ° 0 min 0,000 mm 0,0 UV-I 0 W/m² 10,8 °C 12,7 °C 1,6 km/h (1 Bft)
16.08.2019 00:10 12,8 °C 89 % 1017,6 hPa 0,0 mm 3,2 km/h (1 Bft) SW 215 ° 0 min 0,000 mm 0,0 UV-I 0 W/m² 11,0 °C 12,8 °C 6,4 km/h (2 Bft)
16.08.2019 00:11 12,8 °C 89 % 1017,6 hPa 0,0 mm 4,4 km/h (1 Bft) W-SW 247 ° 0 min 0,000 mm 0,0 UV-I 0 W/m² 11,0 °C 12,8 °C 9,7 km/h (2 Bft)
16.08.2019 00:12 12,8 °C 89 % 1017,5 hPa 0,0 mm 0,3 km/h (0 Bft) S-SW 196 ° 0 min 0,000 mm 0,0 UV-I 0 W/m² 11,0 °C 12,8 °C 1,6 km/h (1 Bft)
16.08.2019 00:13 12,8 °C 89 % 1017,5 hPa 0,0 mm 1,6 km/h (1 Bft) S-SW 213 ° 0 min 0,000 mm 0,0 UV-I 0 W/m² 11,0 °C 12,8 °C 4,8 km/h (1 Bft)
16.08.2019 00:14 12,8 °C 89 % 1017,6 hPa 0,0 mm 1,6 km/h (1 Bft) W-SW 240 ° 0 min 0,000 mm 0,0 UV-I 0 W/m² 11,0 °C 12,8 °C 3,2 km/h (1 Bft)
16.08.2019 00:15 12,8 °C 89 % 1017,6 hPa 0,0 mm 3,1 km/h (1 Bft) S-SW 213 ° 0 min 0,000 mm 0,0 UV-I 0 W/m² 11,0 °C 12,8 °C 11,3 km/h (2 Bft)
16.08.2019 00:16 12,8 °C 89 % 1017,6 hPa 0,0 mm 0,5 km/h (0 Bft) S-SW 209 ° 0 min 0,000 mm 0,0 UV-I 0 W/m² 11,0 °C 12,8 °C 1,6 km/h (1 Bft)
16.08.2019 00:17 12,8 °C 89 % 1017,6 hPa 0,0 mm 1,5 km/h (1 Bft) SW 215 ° 0 min 0,000 mm 0,0 UV-I 0 W/m² 11,0 °C 12,8 °C 4,8 km/h (1 Bft)
16.08.2019 00:18 12,8 °C 89 % 1017,6 hPa 0,0 mm 1,3 km/h (1 Bft) SW 225 ° 0 min 0,000 mm 0,0 UV-I 0 W/m² 11,0 °C 12,8 °C 3,2 km/h (1 Bft)
16.08.2019 00:19 12,8 °C 89 % 1017,6 hPa 0,0 mm 1,1 km/h (1 Bft) SW 214 ° 0 min 0,000 mm 0,0 UV-I 0 W/m² 11,0 °C 12,8 °C 3,2 km/h (1 Bft)
16.08.2019 00:20 12,8 °C 89 % 1017,6 hPa 0,2 mm 0,5 km/h (0 Bft) S-SW 211 ° 0 min 0,000 mm 0,0 UV-I 0 W/m² 11,0 °C 12,8 °C 3,2 km/h (1 Bft)
16.08.2019 00:21 12,7 °C 89 % 1017,6 hPa 0,0 mm 3,8 km/h (1 Bft) W-SW 252 ° 0 min 0,000 mm 0,0 UV-I 0 W/m² 10,9 °C 12,7 °C 14,5 km/h (3 Bft)
16.08.2019 00:22 12,7 °C 89 % 1017,7 hPa 0,0 mm 2,3 km/h (1 Bft) SW 235 ° 0 min 0,000 mm 0,0 UV-I 0 W/m² 10,9 °C 12,7 °C 6,4 km/h (2 Bft)
16.08.2019 00:23 12,7 °C 89 % 1017,7 hPa 0,0 mm 0,0 km/h (0 Bft) SW 235 ° 0 min 0,000 mm 0,0 UV-I 0 W/m² 10,9 °C 12,7 °C 0,0 km/h (0 Bft)
16.08.2019 00:24 12,7 °C 89 % 1017,7 hPa 0,0 mm 0,8 km/h (0 Bft) SO 142 ° 0 min 0,000 mm 0,0 UV-I 0 W/m² 10,9 °C 12,7 °C 3,2 km/h (1 Bft)
16.08.2019 00:25 12,8 °C 89 % 1017,6 hPa 0,0 mm 0,4 km/h (0 Bft) S-SW 201 ° 0 min 0,000 mm 0,0 UV-I 0 W/m² 11,0 °C 12,8 °C 3,2 km/h (1 Bft)
16.08.2019 00:26 12,8 °C 89 % 1017,6 hPa 0,0 mm 1,0 km/h (0 Bft) S-SW 205 ° 0 min 0,000 mm 0,0 UV-I 0 W/m² 11,0 °C 12,8 °C 3,2 km/h (1 Bft)
16.08.2019 00:27 12,8 °C 89 % 1017,6 hPa 0,0 mm 1,4 km/h (1 Bft) S-SW 193 ° 0 min 0,000 mm 0,0 UV-I 0 W/m² 11,0 °C 12,8 °C 4,8 km/h (1 Bft)
16.08.2019 00:28 12,8 °C 89 % 1017,6 hPa 0,0 mm 2,2 km/h (1 Bft) S 177 ° 0 min 0,000 mm 0,0 UV-I 0 W/m² 11,0 °C 12,8 °C 4,8 km/h (1 Bft)
16.08.2019 00:29 12,9 °C 88 % 1017,6 hPa 0,0 mm 2,7 km/h (1 Bft) W-SW 245 ° 0 min 0,000 mm 0,0 UV-I 0 W/m² 11,0 °C 12,9 °C 8,0 km/h (2 Bft)
16.08.2019 00:30 12,9 °C 89 % 1017,6 hPa 0,0 mm 3,3 km/h (1 Bft) W-SW 238 ° 0 min 0,000 mm 0,0 UV-I 0 W/m² 11,1 °C 12,9 °C 6,4 km/h (2 Bft)
16.08.2019 00:31 12,9 °C 88 % 1017,7 hPa 0,0 mm 2,5 km/h (1 Bft) S-SW 192 ° 0 min 0,000 mm 0,0 UV-I 0 W/m² 11,0 °C 12,9 °C 4,8 km/h (1 Bft)
16.08.2019 00:32 12,9 °C 88 % 1017,6 hPa 0,0 mm 0,8 km/h (0 Bft) S-SW 192 ° 0 min 0,000 mm 0,0 UV-I 0 W/m² 11,0 °C 12,9 °C 4,8 km/h (1 Bft)
16.08.2019 00:33 12,9 °C 88 % 1017,6 hPa 0,0 mm 1,4 km/h (1 Bft) S-SW 201 ° 0 min 0,000 mm 0,0 UV-I 0 W/m² 11,0 °C 12,9 °C 4,8 km/h (1 Bft)
16.08.2019 00:34 12,9 °C 88 % 1017,6 hPa 0,2 mm 0,0 km/h (0 Bft) S-SW 201 ° 0 min 0,000 mm 0,0 UV-I 0 W/m² 11,0 °C 12,9 °C 0,0 km/h (0 Bft)
16.08.2019 00:35 12,9 °C 89 % 1017,6 hPa 0,0 mm 0,0 km/h (0 Bft) S-SW 203 ° 0 min 0,000 mm 0,0 UV-I 0 W/m² 11,1 °C 12,9 °C 0,0 km/h (0 Bft)
16.08.2019 00:36 12,8 °C 88 % 1017,7 hPa 0,0 mm 2,5 km/h (1 Bft) W-SW 250 ° 0 min 0,000 mm 0,0 UV-I 0 W/m² 10,9 °C 12,8 °C 6,4 km/h (2 Bft)
16.08.2019 00:37 12,8 °C 88 % 1017,6 hPa 0,0 mm 1,3 km/h (1 Bft) S-SO 164 ° 0 min 0,000 mm 0,0 UV-I 0 W/m² 10,9 °C 12,8 °C 4,8 km/h (1 Bft)
16.08.2019 00:38 12,8 °C 89 % 1017,7 hPa 0,0 mm 1,4 km/h (1 Bft) W-SW 242 ° 0 min 0,000 mm 0,0 UV-I 0 W/m² 11,0 °C 12,8 °C 6,4 km/h (2 Bft)
16.08.2019 00:39 12,8 °C 88 % 1017,7 hPa 0,0 mm 2,7 km/h (1 Bft) W-SW 254 ° 0 min 0,000 mm 0,0 UV-I 0 W/m² 10,9 °C 12,8 °C 6,4 km/h (2 Bft)
16.08.2019 00:40 12,9 °C 89 % 1017,7 hPa 0,0 mm 1,3 km/h (1 Bft) SW 215 ° 0 min 0,000 mm 0,0 UV-I 0 W/m² 11,1 °C 12,9 °C 4,8 km/h (1 Bft)
16.08.2019 00:41 12,9 °C 89 % 1017,6 hPa 0,0 mm 3,0 km/h (1 Bft) W-SW 242 ° 0 min 0,000 mm 0,0 UV-I 0 W/m² 11,1 °C 12,9 °C 6,4 km/h (2 Bft)
16.08.2019 00:42 12,9 °C 89 % 1017,6 hPa 0,0 mm 4,9 km/h (1 Bft) W-SW 250 ° 0 min 0,000 mm 0,0 UV-I 0 W/m² 11,1 °C 12,9 °C 9,7 km/h (2 Bft)
16.08.2019 00:43 12,9 °C 89 % 1017,6 hPa 0,0 mm 4,2 km/h (1 Bft) S-SW 207 ° 0 min 0,000 mm 0,0 UV-I 0 W/m² 11,1 °C 12,9 °C 12,9 km/h (3 Bft)
16.08.2019 00:44 12,9 °C 88 % 1017,6 hPa 0,0 mm 4,0 km/h (1 Bft) SW 223 ° 0 min 0,000 mm 0,0 UV-I 0 W/m² 11,0 °C 12,9 °C 6,4 km/h (2 Bft)
16.08.2019 00:45 12,9 °C 88 % 1017,6 hPa 0,0 mm 4,2 km/h (1 Bft) W-SW 237 ° 0 min 0,000 mm 0,0 UV-I 0 W/m² 11,0 °C 12,9 °C 8,0 km/h (2 Bft)
16.08.2019 00:46 12,9 °C 88 % 1017,6 hPa 0,0 mm 1,2 km/h (1 Bft) SW 232 ° 0 min 0,000 mm 0,0 UV-I 0 W/m² 11,0 °C 12,9 °C 4,8 km/h (1 Bft)
16.08.2019 00:47 12,9 °C 88 % 1017,6 hPa 0,0 mm 0,3 km/h (0 Bft) SW 231 ° 0 min 0,000 mm 0,0 UV-I 0 W/m² 11,0 °C 12,9 °C 1,6 km/h (1 Bft)
16.08.2019 00:48 12,9 °C 88 % 1017,6 hPa 0,0 mm 0,3 km/h (0 Bft) SW 231 ° 0 min 0,000 mm 0,0 UV-I 0 W/m² 11,0 °C 12,9 °C 3,2 km/h (1 Bft)
16.08.2019 00:49 12,9 °C 88 % 1017,6 hPa 0,0 mm 0,0 km/h (0 Bft) SW 231 ° 0 min 0,000 mm 0,0 UV-I 0 W/m² 11,0 °C 12,9 °C 0,0 km/h (0 Bft)
16.08.2019 00:50 12,9 °C 89 % 1017,6 hPa 0,2 mm 0,0 km/h (0 Bft) SW 231 ° 0 min 0,000 mm 0,0 UV-I 0 W/m² 11,1 °C 12,9 °C 0,0 km/h (0 Bft)
16.08.2019 00:51 12,9 °C 89 % 1017,6 hPa 0,0 mm 0,0 km/h (0 Bft) SW 231 ° 0 min 0,000 mm 0,0 UV-I 0 W/m² 11,1 °C 12,9 °C 0,0 km/h (0 Bft)
16.08.2019 00:52 12,9 °C 89 % 1017,6 hPa 0,0 mm 0,0 km/h (0 Bft) SW 231 ° 0 min 0,000 mm 0,0 UV-I 0 W/m² 11,1 °C 12,9 °C 0,0 km/h (0 Bft)
16.08.2019 00:53 12,8 °C 89 % 1017,6 hPa 0,0 mm 0,0 km/h (0 Bft) SW 231 ° 0 min 0,000 mm 0,0 UV-I 0 W/m² 11,0 °C 12,8 °C 0,0 km/h (0 Bft)
16.08.2019 00:54 12,8 °C 89 % 1017,6 hPa 0,0 mm 1,9 km/h (1 Bft) SW 225 ° 0 min 0,000 mm 0,0 UV-I 0 W/m² 11,0 °C 12,8 °C 6,4 km/h (2 Bft)
16.08.2019 00:55 12,7 °C 90 % 1017,6 hPa 0,0 mm 0,0 km/h (0 Bft) SW 225 ° 0 min 0,000 mm 0,0 UV-I 0 W/m² 11,1 °C 12,7 °C 0,0 km/h (0 Bft)
16.08.2019 00:56 12,6 °C 90 % 1017,6 hPa 0,0 mm 1,3 km/h (1 Bft) SW 225 ° 0 min 0,000 mm 0,0 UV-I 0 W/m² 11,0 °C 12,6 °C 3,2 km/h (1 Bft)
16.08.2019 00:57 12,6 °C 90 % 1017,5 hPa 0,0 mm 3,2 km/h (1 Bft) S-SW 210 ° 0 min 0,000 mm 0,0 UV-I 0 W/m² 11,0 °C 12,6 °C 9,7 km/h (2 Bft)
16.08.2019 00:58 12,6 °C 90 % 1017,6 hPa 0,0 mm 3,5 km/h (1 Bft) SW 214 ° 0 min 0,000 mm 0,0 UV-I 0 W/m² 11,0 °C 12,6 °C 6,4 km/h (2 Bft)
16.08.2019 00:59 12,7 °C 90 % 1017,5 hPa 0,0 mm 1,6 km/h (1 Bft) S-SW 196 ° 0 min 0,000 mm 0,0 UV-I 0 W/m² 11,1 °C 12,7 °C 6,4 km/h (2 Bft)
16.08.2019 01:00 12,7 °C 90 % 1017,5 hPa 0,0 mm 0,1 km/h (0 Bft) S-SW 196 ° 0 min 0,000 mm 0,0 UV-I 0 W/m² 11,1 °C 12,7 °C 1,6 km/h (1 Bft)
16.08.2019 01:01 12,7 °C 90 % 1017,5 hPa 0,0 mm 2,5 km/h (1 Bft) W-SW 248 ° 0 min 0,000 mm 0,0 UV-I 0 W/m² 11,1 °C 12,7 °C 8,0 km/h (2 Bft)
16.08.2019 01:02 12,7 °C 90 % 1017,5 hPa 0,0 mm 1,2 km/h (1 Bft) W-SW 243 ° 0 min 0,000 mm 0,0 UV-I 0 W/m² 11,1 °C 12,7 °C 4,8 km/h (1 Bft)
16.08.2019 01:03 12,7 °C 90 % 1017,5 hPa 0,0 mm 5,1 km/h (1 Bft) S-SW 213 ° 0 min 0,000 mm 0,0 UV-I 0 W/m² 11,1 °C 12,7 °C 8,0 km/h (2 Bft)
16.08.2019 01:04 12,7 °C 90 % 1017,5 hPa 0,0 mm 2,4 km/h (1 Bft) S-SW 213 ° 0 min 0,000 mm 0,0 UV-I 0 W/m² 11,1 °C 12,7 °C 6,4 km/h (2 Bft)
16.08.2019 01:05 12,8 °C 90 % 1017,5 hPa 0,2 mm 4,8 km/h (1 Bft) W-SW 244 ° 0 min 0,000 mm 0,0 UV-I 0 W/m² 11,2 °C 12,8 °C 8,0 km/h (2 Bft)
16.08.2019 01:06 12,8 °C 90 % 1017,5 hPa 0,0 mm 4,5 km/h (1 Bft) S 175 ° 0 min 0,000 mm 0,0 UV-I 0 W/m² 11,2 °C 12,8 °C 9,7 km/h (2 Bft)
16.08.2019 01:07 12,8 °C 90 % 1017,4 hPa 0,0 mm 2,6 km/h (1 Bft) S 188 ° 0 min 0,000 mm 0,0 UV-I 0 W/m² 11,2 °C 12,8 °C 8,0 km/h (2 Bft)
16.08.2019 01:08 12,9 °C 90 % 1017,5 hPa 0,0 mm 3,4 km/h (1 Bft) S-SW 192 ° 0 min 0,000 mm 0,0 UV-I 0 W/m² 11,3 °C 12,9 °C 8,0 km/h (2 Bft)
16.08.2019 01:09 12,9 °C 89 % 1017,5 hPa 0,0 mm 1,7 km/h (1 Bft) S-SW 201 ° 0 min 0,000 mm 0,0 UV-I 0 W/m² 11,1 °C 12,9 °C 4,8 km/h (1 Bft)
16.08.2019 01:10 12,9 °C 89 % 1017,5 hPa 0,0 mm 2,1 km/h (1 Bft) S-SO 158 ° 0 min 0,000 mm 0,0 UV-I 0 W/m² 11,1 °C 12,9 °C 4,8 km/h (1 Bft)
16.08.2019 01:11 12,9 °C 89 % 1017,5 hPa 0,0 mm 2,2 km/h (1 Bft) SW 234 ° 0 min 0,000 mm 0,0 UV-I 0 W/m² 11,1 °C 12,9 °C 6,4 km/h (2 Bft)
16.08.2019 01:12 12,9 °C 89 % 1017,4 hPa 0,0 mm 3,3 km/h (1 Bft) SW 222 ° 0 min 0,000 mm 0,0 UV-I 0 W/m² 11,1 °C 12,9 °C 9,7 km/h (2 Bft)
16.08.2019 01:13 12,9 °C 89 % 1017,4 hPa 0,0 mm 4,5 km/h (1 Bft) S 182 ° 0 min 0,000 mm 0,0 UV-I 0 W/m² 11,1 °C 12,9 °C 8,0 km/h (2 Bft)
16.08.2019 01:14 12,9 °C 89 % 1017,4 hPa 0,0 mm 2,7 km/h (1 Bft) S-SW 201 ° 0 min 0,000 mm 0,0 UV-I 0 W/m² 11,1 °C 12,9 °C 8,0 km/h (2 Bft)
16.08.2019 01:15 12,9 °C 89 % 1017,5 hPa 0,0 mm 3,9 km/h (1 Bft) SW 232 ° 0 min 0,000 mm 0,0 UV-I 0 W/m² 11,1 °C 12,9 °C 9,7 km/h (2 Bft)
16.08.2019 01:16 12,8 °C 89 % 1017,4 hPa 0,0 mm 1,0 km/h (0 Bft) SW 232 ° 0 min 0,000 mm 0,0 UV-I 0 W/m² 11,0 °C 12,8 °C 3,2 km/h (1 Bft)
16.08.2019 01:17 12,7 °C 90 % 1017,4 hPa 0,0 mm 0,0 km/h (0 Bft) SW 232 ° 0 min 0,000 mm 0,0 UV-I 0 W/m² 11,1 °C 12,7 °C 0,0 km/h (0 Bft)
16.08.2019 01:18 12,6 °C 90 % 1017,4 hPa 0,0 mm 2,7 km/h (1 Bft) S-SO 163 ° 0 min 0,000 mm 0,0 UV-I 0 W/m² 11,0 °C 12,6 °C 8,0 km/h (2 Bft)
16.08.2019 01:19 12,6 °C 90 % 1017,4 hPa 0,0 mm 1,0 km/h (0 Bft) S-SO 163 ° 0 min 0,000 mm 0,0 UV-I 0 W/m² 11,0 °C 12,6 °C 6,4 km/h (2 Bft)
16.08.2019 01:20 12,5 °C 91 % 1017,4 hPa 0,0 mm 2,5 km/h (1 Bft) S 189 ° 0 min 0,000 mm 0,0 UV-I 0 W/m² 11,1 °C 12,5 °C 6,4 km/h (2 Bft)
16.08.2019 01:21 12,5 °C 91 % 1017,4 hPa 0,0 mm 2,7 km/h (1 Bft) S-SW 207 ° 0 min 0,000 mm 0,0 UV-I 0 W/m² 11,1 °C 12,5 °C 8,0 km/h (2 Bft)
16.08.2019 01:22 12,5 °C 91 % 1017,4 hPa 0,0 mm 1,7 km/h (1 Bft) S 176 ° 0 min 0,000 mm 0,0 UV-I 0 W/m² 11,1 °C 12,5 °C 8,0 km/h (2 Bft)
16.08.2019 01:23 12,6 °C 91 % 1017,5 hPa 0,0 mm 4,7 km/h (1 Bft) S-SW 193 ° 0 min 0,000 mm 0,0 UV-I 0 W/m² 11,2 °C 12,6 °C 8,0 km/h (2 Bft)
16.08.2019 01:24 12,6 °C 91 % 1017,4 hPa 0,2 mm 2,7 km/h (1 Bft) S 178 ° 0 min 0,000 mm 0,0 UV-I 0 W/m² 11,2 °C 12,6 °C 6,4 km/h (2 Bft)
16.08.2019 01:25 12,6 °C 91 % 1017,4 hPa 0,0 mm 2,5 km/h (1 Bft) S 184 ° 0 min 0,000 mm 0,0 UV-I 0 W/m² 11,2 °C 12,6 °C 4,8 km/h (1 Bft)
16.08.2019 01:26 12,6 °C 91 % 1017,4 hPa 0,0 mm 4,8 km/h (1 Bft) S 186 ° 0 min 0,000 mm 0,0 UV-I 0 W/m² 11,2 °C 12,6 °C 8,0 km/h (2 Bft)
16.08.2019 01:27 12,6 °C 91 % 1017,4 hPa 0,0 mm 5,2 km/h (1 Bft) W 264 ° 0 min 0,000 mm 0,0 UV-I 0 W/m² 11,2 °C 12,6 °C 9,7 km/h (2 Bft)
16.08.2019 01:28 12,6 °C 91 % 1017,5 hPa 0,0 mm 4,4 km/h (1 Bft) W-SW 251 ° 0 min 0,000 mm 0,0 UV-I 0 W/m² 11,2 °C 12,6 °C 8,0 km/h (2 Bft)
16.08.2019 01:29 12,7 °C 90 % 1017,4 hPa 0,0 mm 2,6 km/h (1 Bft) S 174 ° 0 min 0,000 mm 0,0 UV-I 0 W/m² 11,1 °C 12,7 °C 11,3 km/h (2 Bft)
16.08.2019 01:30 12,8 °C 90 % 1017,4 hPa 0,0 mm 4,5 km/h (1 Bft) S-SW 208 ° 0 min 0,000 mm 0,0 UV-I 0 W/m² 11,2 °C 12,8 °C 11,3 km/h (2 Bft)
16.08.2019 01:31 12,9 °C 90 % 1017,4 hPa 0,0 mm 0,0 km/h (0 Bft) S-SW 202 ° 0 min 0,000 mm 0,0 UV-I 0 W/m² 11,3 °C 12,9 °C 0,0 km/h (0 Bft)
16.08.2019 01:32 12,9 °C 90 % 1017,4 hPa 0,0 mm 2,8 km/h (1 Bft) SW 227 ° 0 min 0,000 mm 0,0 UV-I 0 W/m² 11,3 °C 12,9 °C 4,8 km/h (1 Bft)
16.08.2019 01:33 13,1 °C 89 % 1017,4 hPa 0,0 mm 2,1 km/h (1 Bft) S-SO 166 ° 0 min 0,000 mm 0,0 UV-I 0 W/m² 11,3 °C 13,1 °C 6,4 km/h (2 Bft)
16.08.2019 01:34 13,1 °C 89 % 1017,4 hPa 0,0 mm 6,0 km/h (2 Bft) S-SW 197 ° 0 min 0,000 mm 0,0 UV-I 0 W/m² 11,3 °C 13,1 °C 11,3 km/h (2 Bft)
16.08.2019 01:35 13,1 °C 89 % 1017,4 hPa 0,0 mm 1,7 km/h (1 Bft) S-SW 209 ° 0 min 0,000 mm 0,0 UV-I 0 W/m² 11,3 °C 13,1 °C 6,4 km/h (2 Bft)
16.08.2019 01:36 13,1 °C 89 % 1017,3 hPa 0,0 mm 0,9 km/h (0 Bft) S-SW 207 ° 0 min 0,000 mm 0,0 UV-I 0 W/m² 11,3 °C 13,1 °C 3,2 km/h (1 Bft)
16.08.2019 01:37 13,2 °C 89 % 1017,4 hPa 0,0 mm 1,5 km/h (1 Bft) SW 224 ° 0 min 0,000 mm 0,0 UV-I 0 W/m² 11,4 °C 13,2 °C 3,2 km/h (1 Bft)
16.08.2019 01:38 13,2 °C 88 % 1017,4 hPa 0,0 mm 2,7 km/h (1 Bft) S-SW 196 ° 0 min 0,000 mm 0,0 UV-I 0 W/m² 11,3 °C 13,2 °C 6,4 km/h (2 Bft)
16.08.2019 01:39 13,2 °C 88 % 1017,4 hPa 0,0 mm 1,2 km/h (1 Bft) W-SW 243 ° 0 min 0,000 mm 0,0 UV-I 0 W/m² 11,3 °C 13,2 °C 4,8 km/h (1 Bft)
16.08.2019 01:40 13,3 °C 88 % 1017,4 hPa 0,0 mm 2,1 km/h (1 Bft) S-SW 193 ° 0 min 0,000 mm 0,0 UV-I 0 W/m² 11,4 °C 13,3 °C 6,4 km/h (2 Bft)
16.08.2019 01:41 13,3 °C 88 % 1017,3 hPa 0,0 mm 0,0 km/h (0 Bft) S-SW 193 ° 0 min 0,000 mm 0,0 UV-I 0 W/m² 11,4 °C 13,3 °C 0,0 km/h (0 Bft)
16.08.2019 01:42 13,3 °C 88 % 1017,4 hPa 0,2 mm 0,8 km/h (0 Bft) S-SW 196 ° 0 min 0,000 mm 0,0 UV-I 0 W/m² 11,4 °C 13,3 °C 3,2 km/h (1 Bft)
16.08.2019 01:43 13,4 °C 87 % 1017,4 hPa 0,0 mm 2,1 km/h (1 Bft) S-SW 198 ° 0 min 0,000 mm 0,0 UV-I 0 W/m² 11,3 °C 13,4 °C 6,4 km/h (2 Bft)
16.08.2019 01:44 13,4 °C 87 % 1017,5 hPa 0,0 mm 3,4 km/h (1 Bft) W-SW 254 ° 0 min 0,000 mm 0,0 UV-I 0 W/m² 11,3 °C 13,4 °C 6,4 km/h (2 Bft)
16.08.2019 01:45 13,4 °C 88 % 1017,5 hPa 0,0 mm 3,6 km/h (1 Bft) W 276 ° 0 min 0,000 mm 0,0 UV-I 0 W/m² 11,5 °C 13,4 °C 6,4 km/h (2 Bft)
16.08.2019 01:46 13,4 °C 88 % 1017,5 hPa 0,0 mm 2,5 km/h (1 Bft) W 265 ° 0 min 0,000 mm 0,0 UV-I 0 W/m² 11,5 °C 13,4 °C 4,8 km/h (1 Bft)
16.08.2019 01:47 13,4 °C 88 % 1017,5 hPa 0,0 mm 0,8 km/h (0 Bft) W 265 ° 0 min 0,000 mm 0,0 UV-I 0 W/m² 11,5 °C 13,4 °C 3,2 km/h (1 Bft)
16.08.2019 01:48 13,4 °C 88 % 1017,5 hPa 0,0 mm 0,8 km/h (0 Bft) W-NW 293 ° 0 min 0,000 mm 0,0 UV-I 0 W/m² 11,5 °C 13,4 °C 4,8 km/h (1 Bft)
16.08.2019 01:49 13,4 °C 88 % 1017,6 hPa 0,0 mm 1,9 km/h (1 Bft) W-NW 293 ° 0 min 0,000 mm 0,0 UV-I 0 W/m² 11,5 °C 13,4 °C 4,8 km/h (1 Bft)
16.08.2019 01:50 13,3 °C 88 % 1017,6 hPa 0,0 mm 0,0 km/h (0 Bft) W-NW 293 ° 0 min 0,000 mm 0,0 UV-I 0 W/m² 11,4 °C 13,3 °C 0,0 km/h (0 Bft)
16.08.2019 01:51 13,2 °C 89 % 1017,6 hPa 0,0 mm 0,8 km/h (0 Bft) W-NW 293 ° 0 min 0,000 mm 0,0 UV-I 0 W/m² 11,4 °C 13,2 °C 3,2 km/h (1 Bft)
16.08.2019 01:52 13,1 °C 89 % 1017,6 hPa 0,0 mm 0,1 km/h (0 Bft) W-NW 293 ° 0 min 0,000 mm 0,0 UV-I 0 W/m² 11,3 °C 13,1 °C 1,6 km/h (1 Bft)
16.08.2019 01:53 13,1 °C 90 % 1017,6 hPa 0,0 mm 1,4 km/h (1 Bft) W-NW 286 ° 0 min 0,000 mm 0,0 UV-I 0 W/m² 11,5 °C 13,1 °C 3,2 km/h (1 Bft)
16.08.2019 01:54 13,0 °C 90 % 1017,6 hPa 0,0 mm 0,6 km/h (0 Bft) W-NW 286 ° 0 min 0,000 mm 0,0 UV-I 0 W/m² 11,4 °C 13,0 °C 1,6 km/h (1 Bft)
16.08.2019 01:55 12,9 °C 90 % 1017,7 hPa 0,0 mm 0,7 km/h (0 Bft) NW 315 ° 0 min 0,000 mm 0,0 UV-I 0 W/m² 11,3 °C 12,9 °C 6,4 km/h (2 Bft)
16.08.2019 01:56 12,9 °C 90 % 1017,7 hPa 0,0 mm 2,9 km/h (1 Bft) W 264 ° 0 min 0,000 mm 0,0 UV-I 0 W/m² 11,3 °C 12,9 °C 6,4 km/h (2 Bft)
16.08.2019 01:57 12,9 °C 90 % 1017,7 hPa 0,0 mm 7,6 km/h (2 Bft) W-NW 293 ° 0 min 0,000 mm 0,0 UV-I 0 W/m² 11,3 °C 12,9 °C 12,9 km/h (3 Bft)
16.08.2019 01:58 12,8 °C 90 % 1017,8 hPa 0,0 mm 4,8 km/h (1 Bft) W 276 ° 0 min 0,000 mm 0,0 UV-I 0 W/m² 11,2 °C 12,8 °C 8,0 km/h (2 Bft)
16.08.2019 01:59 12,8 °C 90 % 1017,8 hPa 0,0 mm 3,0 km/h (1 Bft) W 276 ° 0 min 0,000 mm 0,0 UV-I 0 W/m² 11,2 °C 12,8 °C 4,8 km/h (1 Bft)
16.08.2019 02:00 12,8 °C 90 % 1017,8 hPa 0,0 mm 5,4 km/h (1 Bft) W 271 ° 0 min 0,000 mm 0,0 UV-I 0 W/m² 11,2 °C 12,8 °C 6,4 km/h (2 Bft)
16.08.2019 02:01 12,8 °C 90 % 1017,8 hPa 0,0 mm 4,9 km/h (1 Bft) W 259 ° 0 min 0,000 mm 0,0 UV-I 0 W/m² 11,2 °C 12,8 °C 6,4 km/h (2 Bft)
16.08.2019 02:02 12,8 °C 91 % 1017,8 hPa 0,2 mm 6,7 km/h (2 Bft) W-NW 293 ° 0 min 0,000 mm 0,0 UV-I 0 W/m² 11,4 °C 12,8 °C 9,7 km/h (2 Bft)
16.08.2019 02:03 12,8 °C 91 % 1017,9 hPa 0,0 mm 11,2 km/h (2 Bft) W-NW 296 ° 0 min 0,000 mm 0,0 UV-I 0 W/m² 11,4 °C 12,8 °C 14,5 km/h (3 Bft)
16.08.2019 02:04 12,8 °C 91 % 1018,0 hPa 0,0 mm 10,6 km/h (2 Bft) SW 234 ° 0 min 0,000 mm 0,0 UV-I 0 W/m² 11,4 °C 12,8 °C 16,1 km/h (3 Bft)
16.08.2019 02:05 12,8 °C 91 % 1018,0 hPa 0,0 mm 16,8 km/h (3 Bft) W 275 ° 0 min 0,000 mm 0,0 UV-I 0 W/m² 11,4 °C 12,8 °C 24,1 km/h (4 Bft)
16.08.2019 02:06 12,8 °C 91 % 1018,0 hPa 0,0 mm 16,9 km/h (3 Bft) W-SW 257 ° 0 min 0,000 mm 0,0 UV-I 0 W/m² 11,4 °C 12,8 °C 30,6 km/h (5 Bft)
16.08.2019 02:07 12,7 °C 91 % 1018,1 hPa 0,0 mm 15,6 km/h (3 Bft) NW 317 ° 0 min 0,000 mm 0,0 UV-I 0 W/m² 11,3 °C 12,7 °C 24,1 km/h (4 Bft)
16.08.2019 02:08 12,7 °C 91 % 1018,1 hPa 0,0 mm 6,4 km/h (2 Bft) W-SW 241 ° 0 min 0,000 mm 0,0 UV-I 0 W/m² 11,3 °C 12,7 °C 11,3 km/h (2 Bft)
16.08.2019 02:09 12,6 °C 91 % 1018,1 hPa 0,0 mm 11,2 km/h (2 Bft) W-SW 246 ° 0 min 0,000 mm 0,0 UV-I 0 W/m² 11,2 °C 12,6 °C 17,7 km/h (3 Bft)
16.08.2019 02:10 12,4 °C 91 % 1018,2 hPa 0,0 mm 16,0 km/h (3 Bft) W 260 ° 0 min 0,000 mm 0,0 UV-I 0 W/m² 11,0 °C 12,4 °C 24,1 km/h (4 Bft)
16.08.2019 02:11 12,3 °C 90 % 1018,2 hPa 0,0 mm 11,8 km/h (2 Bft) W-NW 286 ° 0 min 0,000 mm 0,0 UV-I 0 W/m² 10,7 °C 12,3 °C 19,3 km/h (3 Bft)
16.08.2019 02:12 12,3 °C 91 % 1018,2 hPa 0,0 mm 12,4 km/h (3 Bft) W-SW 248 ° 0 min 0,000 mm 0,0 UV-I 0 W/m² 10,9 °C 12,3 °C 20,9 km/h (4 Bft)
16.08.2019 02:13 12,2 °C 91 % 1018,0 hPa 0,0 mm 6,2 km/h (2 Bft) W 281 ° 0 min 0,000 mm 0,0 UV-I 0 W/m² 10,8 °C 12,2 °C 11,3 km/h (2 Bft)
16.08.2019 02:14 12,1 °C 90 % 1018,0 hPa 0,2 mm 8,3 km/h (2 Bft) W 265 ° 0 min 0,000 mm 0,0 UV-I 0 W/m² 10,5 °C 12,1 °C 12,9 km/h (3 Bft)
16.08.2019 02:15 12,1 °C 91 % 1017,9 hPa 0,0 mm 7,5 km/h (2 Bft) W 268 ° 0 min 0,000 mm 0,0 UV-I 0 W/m² 10,7 °C 12,1 °C 12,9 km/h (3 Bft)
16.08.2019 02:16 11,9 °C 90 % 1017,8 hPa 0,0 mm 3,2 km/h (1 Bft) S 187 ° 0 min 0,000 mm 0,0 UV-I 0 W/m² 10,3 °C 11,9 °C 6,4 km/h (2 Bft)
16.08.2019 02:17 11,8 °C 90 % 1017,8 hPa 0,0 mm 6,0 km/h (2 Bft) W-SW 238 ° 0 min 0,000 mm 0,0 UV-I 0 W/m² 10,2 °C 11,8 °C 12,9 km/h (3 Bft)
16.08.2019 02:18 11,8 °C 90 % 1017,7 hPa 0,0 mm 4,3 km/h (1 Bft) S 186 ° 0 min 0,000 mm 0,0 UV-I 0 W/m² 10,2 °C 11,8 °C 6,4 km/h (2 Bft)
16.08.2019 02:19 11,7 °C 91 % 1017,7 hPa 0,0 mm 5,2 km/h (1 Bft) S 182 ° 0 min 0,000 mm 0,0 UV-I 0 W/m² 10,3 °C 11,7 °C 8,0 km/h (2 Bft)
16.08.2019 02:20 11,7 °C 91 % 1017,8 hPa 0,0 mm 4,4 km/h (1 Bft) S 191 ° 0 min 0,000 mm 0,0 UV-I 0 W/m² 10,3 °C 11,7 °C 8,0 km/h (2 Bft)
16.08.2019 02:21 11,6 °C 91 % 1017,7 hPa 0,0 mm 4,7 km/h (1 Bft) S-SO 155 ° 0 min 0,000 mm 0,0 UV-I 0 W/m² 10,2 °C 11,6 °C 8,0 km/h (2 Bft)
16.08.2019 02:22 11,6 °C 91 % 1017,7 hPa 0,0 mm 3,7 km/h (1 Bft) S-SW 198 ° 0 min 0,000 mm 0,0 UV-I 0 W/m² 10,2 °C 11,6 °C 6,4 km/h (2 Bft)
16.08.2019 02:23 11,6 °C 91 % 1017,7 hPa 0,0 mm 3,8 km/h (1 Bft) S-SW 195 ° 0 min 0,000 mm 0,0 UV-I 0 W/m² 10,2 °C 11,6 °C 9,7 km/h (2 Bft)
16.08.2019 02:24 11,6 °C 91 % 1017,7 hPa 0,0 mm 6,9 km/h (2 Bft) S-SW 210 ° 0 min 0,000 mm 0,0 UV-I 0 W/m² 10,2 °C 11,6 °C 11,3 km/h (2 Bft)
16.08.2019 02:25 11,5 °C 91 % 1017,7 hPa 0,2 mm 1,7 km/h (1 Bft) S-SW 210 ° 0 min 0,000 mm 0,0 UV-I 0 W/m² 10,1 °C 11,5 °C 4,8 km/h (1 Bft)
16.08.2019 02:26 11,5 °C 91 % 1017,7 hPa 0,0 mm 5,2 km/h (1 Bft) S-SW 198 ° 0 min 0,000 mm 0,0 UV-I 0 W/m² 10,1 °C 11,5 °C 8,0 km/h (2 Bft)
16.08.2019 02:27 11,5 °C 92 % 1017,7 hPa 0,0 mm 5,7 km/h (1 Bft) S 169 ° 0 min 0,000 mm 0,0 UV-I 0 W/m² 10,2 °C 11,5 °C 11,3 km/h (2 Bft)
16.08.2019 02:28 11,5 °C 92 % 1017,7 hPa 0,0 mm 4,5 km/h (1 Bft) S 184 ° 0 min 0,000 mm 0,0 UV-I 0 W/m² 10,2 °C 11,5 °C 9,7 km/h (2 Bft)
16.08.2019 02:29 11,4 °C 92 % 1017,7 hPa 0,0 mm 5,3 km/h (1 Bft) S-SW 197 ° 0 min 0,000 mm 0,0 UV-I 0 W/m² 10,1 °C 11,4 °C 9,7 km/h (2 Bft)
16.08.2019 02:30 11,4 °C 92 % 1017,7 hPa 0,0 mm 5,3 km/h (1 Bft) W-SW 239 ° 0 min 0,000 mm 0,0 UV-I 0 W/m² 10,1 °C 11,4 °C 11,3 km/h (2 Bft)
16.08.2019 02:31 11,5 °C 92 % 1017,7 hPa 0,0 mm 3,2 km/h (1 Bft) W 259 ° 0 min 0,000 mm 0,0 UV-I 0 W/m² 10,2 °C 11,5 °C 4,8 km/h (1 Bft)
16.08.2019 02:32 11,4 °C 92 % 1017,7 hPa 0,0 mm 2,5 km/h (1 Bft) S-SW 194 ° 0 min 0,000 mm 0,0 UV-I 0 W/m² 10,1 °C 11,4 °C 6,4 km/h (2 Bft)
16.08.2019 02:33 11,4 °C 92 % 1017,7 hPa 0,0 mm 3,0 km/h (1 Bft) S-SW 202 ° 0 min 0,000 mm 0,0 UV-I 0 W/m² 10,1 °C 11,4 °C 9,7 km/h (2 Bft)
16.08.2019 02:34 11,4 °C 92 % 1017,7 hPa 0,0 mm 2,1 km/h (1 Bft) S-SW 198 ° 0 min 0,000 mm 0,0 UV-I 0 W/m² 10,1 °C 11,4 °C 4,8 km/h (1 Bft)
16.08.2019 02:35 11,4 °C 92 % 1017,7 hPa 0,2 mm 5,6 km/h (1 Bft) SW 227 ° 0 min 0,000 mm 0,0 UV-I 0 W/m² 10,1 °C 11,4 °C 9,7 km/h (2 Bft)
16.08.2019 02:36 11,4 °C 92 % 1017,8 hPa 0,0 mm 4,2 km/h (1 Bft) SW 223 ° 0 min 0,000 mm 0,0 UV-I 0 W/m² 10,1 °C 11,4 °C 9,7 km/h (2 Bft)
16.08.2019 02:37 11,4 °C 92 % 1017,7 hPa 0,0 mm 5,9 km/h (2 Bft) SW 219 ° 0 min 0,000 mm 0,0 UV-I 0 W/m² 10,1 °C 11,4 °C 9,7 km/h (2 Bft)
16.08.2019 02:38 11,4 °C 92 % 1017,8 hPa 0,0 mm 3,1 km/h (1 Bft) SW 232 ° 0 min 0,000 mm 0,0 UV-I 0 W/m² 10,1 °C 11,4 °C 6,4 km/h (2 Bft)
16.08.2019 02:39 11,4 °C 92 % 1017,7 hPa 0,0 mm 2,4 km/h (1 Bft) S-SW 203 ° 0 min 0,000 mm 0,0 UV-I 0 W/m² 10,1 °C 11,4 °C 6,4 km/h (2 Bft)
16.08.2019 02:40 11,4 °C 92 % 1017,7 hPa 0,0 mm 5,8 km/h (2 Bft) W-SW 252 ° 0 min 0,000 mm 0,0 UV-I 0 W/m² 10,1 °C 11,4 °C 9,7 km/h (2 Bft)
16.08.2019 02:41 11,4 °C 92 % 1017,7 hPa 0,0 mm 2,4 km/h (1 Bft) SW 235 ° 0 min 0,000 mm 0,0 UV-I 0 W/m² 10,1 °C 11,4 °C 4,8 km/h (1 Bft)
16.08.2019 02:42 11,4 °C 92 % 1017,7 hPa 0,0 mm 3,8 km/h (1 Bft) W-SW 242 ° 0 min 0,000 mm 0,0 UV-I 0 W/m² 10,1 °C 11,4 °C 6,4 km/h (2 Bft)
16.08.2019 02:43 11,4 °C 92 % 1017,7 hPa 0,0 mm 3,9 km/h (1 Bft) S-SW 194 ° 0 min 0,000 mm 0,0 UV-I 0 W/m² 10,1 °C 11,4 °C 12,9 km/h (3 Bft)
16.08.2019 02:44 11,5 °C 92 % 1017,7 hPa 0,0 mm 1,6 km/h (1 Bft) S-SW 198 ° 0 min 0,000 mm 0,0 UV-I 0 W/m² 10,2 °C 11,5 °C 3,2 km/h (1 Bft)
16.08.2019 02:45 11,4 °C 92 % 1017,7 hPa 0,0 mm 4,8 km/h (1 Bft) S 185 ° 0 min 0,000 mm 0,0 UV-I 0 W/m² 10,1 °C 11,4 °C 8,0 km/h (2 Bft)
16.08.2019 02:46 11,5 °C 92 % 1017,8 hPa 0,0 mm 4,4 km/h (1 Bft) S-SW 209 ° 0 min 0,000 mm 0,0 UV-I 0 W/m² 10,2 °C 11,5 °C 8,0 km/h (2 Bft)
16.08.2019 02:47 11,5 °C 92 % 1017,8 hPa 0,2 mm 6,4 km/h (2 Bft) S 191 ° 0 min 0,000 mm 0,0 UV-I 0 W/m² 10,2 °C 11,5 °C 11,3 km/h (2 Bft)
16.08.2019 02:48 11,6 °C 92 % 1017,8 hPa 0,0 mm 6,0 km/h (2 Bft) S-SW 200 ° 0 min 0,000 mm 0,0 UV-I 0 W/m² 10,3 °C 11,6 °C 11,3 km/h (2 Bft)
16.08.2019 02:49 11,6 °C 92 % 1017,7 hPa 0,0 mm 7,4 km/h (2 Bft) S 185 ° 0 min 0,000 mm 0,0 UV-I 0 W/m² 10,3 °C 11,6 °C 12,9 km/h (3 Bft)
16.08.2019 02:50 11,6 °C 92 % 1017,8 hPa 0,0 mm 5,3 km/h (1 Bft) S-SW 208 ° 0 min 0,000 mm 0,0 UV-I 0 W/m² 10,3 °C 11,6 °C 9,7 km/h (2 Bft)
16.08.2019 02:51 11,7 °C 92 % 1017,7 hPa 0,0 mm 3,2 km/h (1 Bft) W-SW 239 ° 0 min 0,000 mm 0,0 UV-I 0 W/m² 10,4 °C 11,7 °C 6,4 km/h (2 Bft)
16.08.2019 02:52 11,7 °C 93 % 1017,8 hPa 0,0 mm 3,2 km/h (1 Bft) W-SW 250 ° 0 min 0,000 mm 0,0 UV-I 0 W/m² 10,6 °C 11,7 °C 8,0 km/h (2 Bft)
16.08.2019 02:53 11,7 °C 93 % 1017,8 hPa 0,0 mm 3,4 km/h (1 Bft) SW 214 ° 0 min 0,000 mm 0,0 UV-I 0 W/m² 10,6 °C 11,7 °C 6,4 km/h (2 Bft)
16.08.2019 02:54 11,7 °C 93 % 1017,8 hPa 0,0 mm 0,7 km/h (0 Bft) SW 214 ° 0 min 0,000 mm 0,0 UV-I 0 W/m² 10,6 °C 11,7 °C 1,6 km/h (1 Bft)
16.08.2019 02:55 11,7 °C 92 % 1017,8 hPa 0,0 mm 2,6 km/h (1 Bft) S-SW 193 ° 0 min 0,000 mm 0,0 UV-I 0 W/m² 10,4 °C 11,7 °C 6,4 km/h (2 Bft)
16.08.2019 02:56 11,8 °C 92 % 1017,8 hPa 0,0 mm 2,3 km/h (1 Bft) S-SW 192 ° 0 min 0,000 mm 0,0 UV-I 0 W/m² 10,5 °C 11,8 °C 3,2 km/h (1 Bft)
16.08.2019 02:57 11,8 °C 93 % 1017,8 hPa 0,0 mm 2,1 km/h (1 Bft) S-SW 192 ° 0 min 0,000 mm 0,0 UV-I 0 W/m² 10,7 °C 11,8 °C 4,8 km/h (1 Bft)
16.08.2019 02:58 11,8 °C 92 % 1017,8 hPa 0,2 mm 2,5 km/h (1 Bft) W 259 ° 0 min 0,000 mm 0,0 UV-I 0 W/m² 10,5 °C 11,8 °C 4,8 km/h (1 Bft)
16.08.2019 02:59 11,8 °C 92 % 1017,8 hPa 0,0 mm 0,9 km/h (0 Bft) W 263 ° 0 min 0,000 mm 0,0 UV-I 0 W/m² 10,5 °C 11,8 °C 3,2 km/h (1 Bft)
16.08.2019 03:00 11,9 °C 92 % 1017,8 hPa 0,0 mm 1,6 km/h (1 Bft) W 263 ° 0 min 0,000 mm 0,0 UV-I 0 W/m² 10,6 °C 11,9 °C 4,8 km/h (1 Bft)
16.08.2019 03:01 11,9 °C 92 % 1017,8 hPa 0,0 mm 0,1 km/h (0 Bft) W 263 ° 0 min 0,000 mm 0,0 UV-I 0 W/m² 10,6 °C 11,9 °C 1,6 km/h (1 Bft)
16.08.2019 03:02 11,9 °C 92 % 1017,9 hPa 0,0 mm 2,3 km/h (1 Bft) S 182 ° 0 min 0,000 mm 0,0 UV-I 0 W/m² 10,6 °C 11,9 °C 6,4 km/h (2 Bft)
16.08.2019 03:03 11,9 °C 92 % 1017,9 hPa 0,0 mm 5,2 km/h (1 Bft) SW 225 ° 0 min 0,000 mm 0,0 UV-I 0 W/m² 10,6 °C 11,9 °C 12,9 km/h (3 Bft)
16.08.2019 03:04 11,9 °C 92 % 1017,9 hPa 0,0 mm 4,7 km/h (1 Bft) SW 220 ° 0 min 0,000 mm 0,0 UV-I 0 W/m² 10,6 °C 11,9 °C 11,3 km/h (2 Bft)
16.08.2019 03:05 11,9 °C 92 % 1017,9 hPa 0,0 mm 1,1 km/h (1 Bft) SW 220 ° 0 min 0,000 mm 0,0 UV-I 0 W/m² 10,6 °C 11,9 °C 3,2 km/h (1 Bft)
16.08.2019 03:06 11,9 °C 92 % 1017,9 hPa 0,0 mm 5,8 km/h (2 Bft) W-SW 253 ° 0 min 0,000 mm 0,0 UV-I 0 W/m² 10,6 °C 11,9 °C 9,7 km/h (2 Bft)
16.08.2019 03:07 11,9 °C 92 % 1017,9 hPa 0,0 mm 5,3 km/h (1 Bft) S-SW 206 ° 0 min 0,000 mm 0,0 UV-I 0 W/m² 10,6 °C 11,9 °C 11,3 km/h (2 Bft)
16.08.2019 03:08 11,9 °C 92 % 1017,9 hPa 0,0 mm 1,2 km/h (1 Bft) S-SW 200 ° 0 min 0,000 mm 0,0 UV-I 0 W/m² 10,6 °C 11,9 °C 3,2 km/h (1 Bft)
16.08.2019 03:09 11,9 °C 92 % 1017,9 hPa 0,0 mm 5,0 km/h (1 Bft) W-SW 241 ° 0 min 0,000 mm 0,0 UV-I 0 W/m² 10,6 °C 11,9 °C 11,3 km/h (2 Bft)
16.08.2019 03:10 11,9 °C 92 % 1017,9 hPa 0,0 mm 3,3 km/h (1 Bft) W-SW 247 ° 0 min 0,000 mm 0,0 UV-I 0 W/m² 10,6 °C 11,9 °C 9,7 km/h (2 Bft)
16.08.2019 03:11 11,9 °C 92 % 1017,9 hPa 0,0 mm 1,4 km/h (1 Bft) W-SW 246 ° 0 min 0,000 mm 0,0 UV-I 0 W/m² 10,6 °C 11,9 °C 4,8 km/h (1 Bft)
16.08.2019 03:12 11,9 °C 92 % 1017,9 hPa 0,2 mm 1,4 km/h (1 Bft) W-SW 241 ° 0 min 0,000 mm 0,0 UV-I 0 W/m² 10,6 °C 11,9 °C 4,8 km/h (1 Bft)
16.08.2019 03:13 12,0 °C 92 % 1017,9 hPa 0,0 mm 1,0 km/h (0 Bft) SW 218 ° 0 min 0,000 mm 0,0 UV-I 0 W/m² 10,7 °C 12,0 °C 4,8 km/h (1 Bft)
16.08.2019 03:14 12,0 °C 92 % 1017,9 hPa 0,0 mm 0,9 km/h (0 Bft) SW 218 ° 0 min 0,000 mm 0,0 UV-I 0 W/m² 10,7 °C 12,0 °C 4,8 km/h (1 Bft)
16.08.2019 03:15 12,1 °C 92 % 1017,9 hPa 0,0 mm 1,9 km/h (1 Bft) SW 214 ° 0 min 0,000 mm 0,0 UV-I 0 W/m² 10,8 °C 12,1 °C 4,8 km/h (1 Bft)
16.08.2019 03:16 12,1 °C 92 % 1017,9 hPa 0,0 mm 3,8 km/h (1 Bft) SW 225 ° 0 min 0,000 mm 0,0 UV-I 0 W/m² 10,8 °C 12,1 °C 8,0 km/h (2 Bft)
16.08.2019 03:17 12,1 °C 92 % 1017,9 hPa 0,0 mm 5,7 km/h (1 Bft) S 188 ° 0 min 0,000 mm 0,0 UV-I 0 W/m² 10,8 °C 12,1 °C 9,7 km/h (2 Bft)
16.08.2019 03:18 12,1 °C 93 % 1017,9 hPa 0,0 mm 1,3 km/h (1 Bft) S 188 ° 0 min 0,000 mm 0,0 UV-I 0 W/m² 11,0 °C 12,1 °C 3,2 km/h (1 Bft)
16.08.2019 03:19 12,1 °C 93 % 1017,9 hPa 0,0 mm 2,1 km/h (1 Bft) W-SW 243 ° 0 min 0,000 mm 0,0 UV-I 0 W/m² 11,0 °C 12,1 °C 4,8 km/h (1 Bft)
16.08.2019 03:20 12,2 °C 93 % 1017,9 hPa 0,0 mm 2,8 km/h (1 Bft) S-SW 197 ° 0 min 0,000 mm 0,0 UV-I 0 W/m² 11,1 °C 12,2 °C 6,4 km/h (2 Bft)
16.08.2019 03:21 12,2 °C 93 % 1017,9 hPa 0,0 mm 2,7 km/h (1 Bft) SW 218 ° 0 min 0,000 mm 0,0 UV-I 0 W/m² 11,1 °C 12,2 °C 8,0 km/h (2 Bft)
16.08.2019 03:22 12,2 °C 93 % 1017,9 hPa 0,0 mm 1,5 km/h (1 Bft) S-SW 201 ° 0 min 0,000 mm 0,0 UV-I 0 W/m² 11,1 °C 12,2 °C 6,4 km/h (2 Bft)
16.08.2019 03:23 12,2 °C 93 % 1017,9 hPa 0,2 mm 3,1 km/h (1 Bft) SW 224 ° 0 min 0,000 mm 0,0 UV-I 0 W/m² 11,1 °C 12,2 °C 6,4 km/h (2 Bft)
16.08.2019 03:24 12,2 °C 92 % 1017,9 hPa 0,0 mm 2,1 km/h (1 Bft) W-SW 252 ° 0 min 0,000 mm 0,0 UV-I 0 W/m² 10,9 °C 12,2 °C 6,4 km/h (2 Bft)
16.08.2019 03:25 12,2 °C 92 % 1017,9 hPa 0,0 mm 2,1 km/h (1 Bft) W-SW 252 ° 0 min 0,000 mm 0,0 UV-I 0 W/m² 10,9 °C 12,2 °C 3,2 km/h (1 Bft)
16.08.2019 03:26 12,3 °C 92 % 1017,9 hPa 0,0 mm 0,2 km/h (0 Bft) W-SW 252 ° 0 min 0,000 mm 0,0 UV-I 0 W/m² 11,0 °C 12,3 °C 1,6 km/h (1 Bft)
16.08.2019 03:27 12,3 °C 92 % 1017,9 hPa 0,0 mm 0,9 km/h (0 Bft) W-SW 252 ° 0 min 0,000 mm 0,0 UV-I 0 W/m² 11,0 °C 12,3 °C 3,2 km/h (1 Bft)
16.08.2019 03:28 12,3 °C 92 % 1017,9 hPa 0,0 mm 3,6 km/h (1 Bft) W-SW 248 ° 0 min 0,000 mm 0,0 UV-I 0 W/m² 11,0 °C 12,3 °C 8,0 km/h (2 Bft)
16.08.2019 03:29 12,3 °C 92 % 1017,9 hPa 0,0 mm 2,7 km/h (1 Bft) W-SW 246 ° 0 min 0,000 mm 0,0 UV-I 0 W/m² 11,0 °C 12,3 °C 8,0 km/h (2 Bft)
16.08.2019 03:30 12,3 °C 92 % 1017,9 hPa 0,0 mm 0,3 km/h (0 Bft) W-SW 246 ° 0 min 0,000 mm 0,0 UV-I 0 W/m² 11,0 °C 12,3 °C 1,6 km/h (1 Bft)
16.08.2019 03:31 12,3 °C 92 % 1017,9 hPa 0,0 mm 0,7 km/h (0 Bft) S-SW 209 ° 0 min 0,000 mm 0,0 UV-I 0 W/m² 11,0 °C 12,3 °C 3,2 km/h (1 Bft)
16.08.2019 03:32 12,3 °C 92 % 1017,9 hPa 0,0 mm 0,1 km/h (0 Bft) S-SW 213 ° 0 min 0,000 mm 0,0 UV-I 0 W/m² 11,0 °C 12,3 °C 1,6 km/h (1 Bft)
16.08.2019 03:33 12,3 °C 92 % 1018,0 hPa 0,0 mm 2,3 km/h (1 Bft) W 275 ° 0 min 0,000 mm 0,0 UV-I 0 W/m² 11,0 °C 12,3 °C 6,4 km/h (2 Bft)
16.08.2019 03:34 12,3 °C 92 % 1018,0 hPa 0,0 mm 4,6 km/h (1 Bft) W-SW 253 ° 0 min 0,000 mm 0,0 UV-I 0 W/m² 11,0 °C 12,3 °C 9,7 km/h (2 Bft)
16.08.2019 03:35 12,3 °C 92 % 1018,0 hPa 0,0 mm 3,9 km/h (1 Bft) S 186 ° 0 min 0,000 mm 0,0 UV-I 0 W/m² 11,0 °C 12,3 °C 8,0 km/h (2 Bft)
16.08.2019 03:36 12,3 °C 92 % 1018,0 hPa 0,0 mm 5,6 km/h (1 Bft) W-SW 257 ° 0 min 0,000 mm 0,0 UV-I 0 W/m² 11,0 °C 12,3 °C 8,0 km/h (2 Bft)
16.08.2019 03:37 12,3 °C 92 % 1018,0 hPa 0,0 mm 1,6 km/h (1 Bft) W-SW 242 ° 0 min 0,000 mm 0,0 UV-I 0 W/m² 11,0 °C 12,3 °C 4,8 km/h (1 Bft)
16.08.2019 03:38 12,4 °C 92 % 1018,0 hPa 0,2 mm 1,3 km/h (1 Bft) W-SW 245 ° 0 min 0,000 mm 0,0 UV-I 0 W/m² 11,1 °C 12,4 °C 4,8 km/h (1 Bft)
16.08.2019 03:39 12,3 °C 92 % 1018,0 hPa 0,0 mm 3,0 km/h (1 Bft) S 178 ° 0 min 0,000 mm 0,0 UV-I 0 W/m² 11,0 °C 12,3 °C 9,7 km/h (2 Bft)
16.08.2019 03:40 12,4 °C 92 % 1018,0 hPa 0,0 mm 1,5 km/h (1 Bft) S 178 ° 0 min 0,000 mm 0,0 UV-I 0 W/m² 11,1 °C 12,4 °C 6,4 km/h (2 Bft)
16.08.2019 03:41 12,3 °C 92 % 1018,0 hPa 0,0 mm 5,9 km/h (2 Bft) SW 225 ° 0 min 0,000 mm 0,0 UV-I 0 W/m² 11,0 °C 12,3 °C 12,9 km/h (3 Bft)
16.08.2019 03:42 12,3 °C 92 % 1017,9 hPa 0,0 mm 1,1 km/h (1 Bft) W-SW 247 ° 0 min 0,000 mm 0,0 UV-I 0 W/m² 11,0 °C 12,3 °C 3,2 km/h (1 Bft)
16.08.2019 03:43 12,4 °C 92 % 1018,0 hPa 0,0 mm 5,0 km/h (1 Bft) W-SW 258 ° 0 min 0,000 mm 0,0 UV-I 0 W/m² 11,1 °C 12,4 °C 8,0 km/h (2 Bft)
16.08.2019 03:44 12,4 °C 92 % 1018,0 hPa 0,0 mm 1,5 km/h (1 Bft) SW 220 ° 0 min 0,000 mm 0,0 UV-I 0 W/m² 11,1 °C 12,4 °C 4,8 km/h (1 Bft)
16.08.2019 03:45 12,4 °C 92 % 1018,0 hPa 0,0 mm 1,1 km/h (1 Bft) S-SW 212 ° 0 min 0,000 mm 0,0 UV-I 0 W/m² 11,1 °C 12,4 °C 4,8 km/h (1 Bft)
16.08.2019 03:46 12,4 °C 92 % 1018,0 hPa 0,0 mm 0,0 km/h (0 Bft) S-SW 212 ° 0 min 0,000 mm 0,0 UV-I 0 W/m² 11,1 °C 12,4 °C 0,0 km/h (0 Bft)
16.08.2019 03:47 12,4 °C 92 % 1018,0 hPa 0,0 mm 3,1 km/h (1 Bft) W-SW 250 ° 0 min 0,000 mm 0,0 UV-I 0 W/m² 11,1 °C 12,4 °C 6,4 km/h (2 Bft)
16.08.2019 03:48 12,4 °C 92 % 1018,0 hPa 0,0 mm 3,4 km/h (1 Bft) W-SW 240 ° 0 min 0,000 mm 0,0 UV-I 0 W/m² 11,1 °C 12,4 °C 4,8 km/h (1 Bft)
16.08.2019 03:49 12,4 °C 92 % 1018,0 hPa 0,0 mm 4,5 km/h (1 Bft) S 178 ° 0 min 0,000 mm 0,0 UV-I 0 W/m² 11,1 °C 12,4 °C 8,0 km/h (2 Bft)
16.08.2019 03:50 12,4 °C 92 % 1018,0 hPa 0,0 mm 2,3 km/h (1 Bft) W-SW 246 ° 0 min 0,000 mm 0,0 UV-I 0 W/m² 11,1 °C 12,4 °C 4,8 km/h (1 Bft)
16.08.2019 03:51 12,4 °C 92 % 1018,0 hPa 0,2 mm 3,2 km/h (1 Bft) W-SW 252 ° 0 min 0,000 mm 0,0 UV-I 0 W/m² 11,1 °C 12,4 °C 8,0 km/h (2 Bft)
16.08.2019 03:52 12,4 °C 92 % 1018,0 hPa 0,0 mm 2,6 km/h (1 Bft) W 259 ° 0 min 0,000 mm 0,0 UV-I 0 W/m² 11,1 °C 12,4 °C 6,4 km/h (2 Bft)
16.08.2019 03:53 12,4 °C 92 % 1018,0 hPa 0,0 mm 2,8 km/h (1 Bft) SW 233 ° 0 min 0,000 mm 0,0 UV-I 0 W/m² 11,1 °C 12,4 °C 6,4 km/h (2 Bft)
16.08.2019 03:54 12,4 °C 92 % 1018,0 hPa 0,0 mm 3,9 km/h (1 Bft) SW 230 ° 0 min 0,000 mm 0,0 UV-I 0 W/m² 11,1 °C 12,4 °C 6,4 km/h (2 Bft)
16.08.2019 03:55 12,4 °C 92 % 1018,0 hPa 0,0 mm 3,0 km/h (1 Bft) S-SW 195 ° 0 min 0,000 mm 0,0 UV-I 0 W/m² 11,1 °C 12,4 °C 6,4 km/h (2 Bft)
16.08.2019 03:56 12,4 °C 92 % 1018,0 hPa 0,0 mm 1,2 km/h (1 Bft) W-SW 242 ° 0 min 0,000 mm 0,0 UV-I 0 W/m² 11,1 °C 12,4 °C 4,8 km/h (1 Bft)
16.08.2019 03:57 12,4 °C 92 % 1018,0 hPa 0,0 mm 2,1 km/h (1 Bft) S-SW 207 ° 0 min 0,000 mm 0,0 UV-I 0 W/m² 11,1 °C 12,4 °C 4,8 km/h (1 Bft)
16.08.2019 03:58 12,4 °C 92 % 1018,0 hPa 0,0 mm 1,1 km/h (1 Bft) S 175 ° 0 min 0,000 mm 0,0 UV-I 0 W/m² 11,1 °C 12,4 °C 3,2 km/h (1 Bft)
16.08.2019 03:59 12,4 °C 92 % 1018,0 hPa 0,0 mm 2,1 km/h (1 Bft) SW 220 ° 0 min 0,000 mm 0,0 UV-I 0 W/m² 11,1 °C 12,4 °C 4,8 km/h (1 Bft)
16.08.2019 04:00 12,4 °C 92 % 1018,0 hPa 0,0 mm 0,0 km/h (0 Bft) SW 220 ° 0 min 0,000 mm 0,0 UV-I 0 W/m² 11,1 °C 12,4 °C 0,0 km/h (0 Bft)
16.08.2019 04:02 12,4 °C 92 % 1018,0 hPa 0,0 mm 0,7 km/h (0 Bft) W-SW 249 ° 0 min 0,000 mm 0,0 UV-I 0 W/m² 11,1 °C 12,4 °C 6,4 km/h (2 Bft)
16.08.2019 04:03 12,4 °C 92 % 1018,0 hPa 0,0 mm 1,3 km/h (1 Bft) W-SW 249 ° 0 min 0,000 mm 0,0 UV-I 0 W/m² 11,1 °C 12,4 °C 3,2 km/h (1 Bft)
16.08.2019 04:04 12,4 °C 92 % 1018,1 hPa 0,0 mm 1,5 km/h (1 Bft) W-SW 248 ° 0 min 0,000 mm 0,0 UV-I 0 W/m² 11,1 °C 12,4 °C 4,8 km/h (1 Bft)
16.08.2019 04:05 12,4 °C 92 % 1018,1 hPa 0,0 mm 1,4 km/h (1 Bft) W-SW 244 ° 0 min 0,000 mm 0,0 UV-I 0 W/m² 11,1 °C 12,4 °C 4,8 km/h (1 Bft)
16.08.2019 04:06 12,4 °C 92 % 1018,1 hPa 0,0 mm 0,3 km/h (0 Bft) W-SW 246 ° 0 min 0,000 mm 0,0 UV-I 0 W/m² 11,1 °C 12,4 °C 1,6 km/h (1 Bft)
16.08.2019 04:07 12,4 °C 92 % 1018,1 hPa 0,2 mm 0,6 km/h (0 Bft) W-SW 244 ° 0 min 0,000 mm 0,0 UV-I 0 W/m² 11,1 °C 12,4 °C 4,8 km/h (1 Bft)
16.08.2019 04:08 12,4 °C 92 % 1018,0 hPa 0,0 mm 3,8 km/h (1 Bft) S-SW 213 ° 0 min 0,000 mm 0,0 UV-I 0 W/m² 11,1 °C 12,4 °C 6,4 km/h (2 Bft)
16.08.2019 04:09 12,4 °C 92 % 1018,2 hPa 0,0 mm 2,4 km/h (1 Bft) W-SW 257 ° 0 min 0,000 mm 0,0 UV-I 0 W/m² 11,1 °C 12,4 °C 6,4 km/h (2 Bft)
16.08.2019 04:10 12,4 °C 92 % 1018,1 hPa 0,0 mm 3,1 km/h (1 Bft) S-SW 200 ° 0 min 0,000 mm 0,0 UV-I 0 W/m² 11,1 °C 12,4 °C 6,4 km/h (2 Bft)
16.08.2019 04:11 12,4 °C 92 % 1018,2 hPa 0,0 mm 0,3 km/h (0 Bft) S-SW 200 ° 0 min 0,000 mm 0,0 UV-I 0 W/m² 11,1 °C 12,4 °C 3,2 km/h (1 Bft)
16.08.2019 04:12 12,4 °C 92 % 1018,2 hPa 0,0 mm 0,6 km/h (0 Bft) SW 225 ° 0 min 0,000 mm 0,0 UV-I 0 W/m² 11,1 °C 12,4 °C 1,6 km/h (1 Bft)
16.08.2019 04:13 12,4 °C 92 % 1018,1 hPa 0,0 mm 3,7 km/h (1 Bft) S-SW 201 ° 0 min 0,000 mm 0,0 UV-I 0 W/m² 11,1 °C 12,4 °C 6,4 km/h (2 Bft)
16.08.2019 04:14 12,4 °C 92 % 1018,1 hPa 0,0 mm 0,4 km/h (0 Bft) S-SW 201 ° 0 min 0,000 mm 0,0 UV-I 0 W/m² 11,1 °C 12,4 °C 3,2 km/h (1 Bft)
16.08.2019 04:15 12,4 °C 92 % 1018,1 hPa 0,0 mm 0,2 km/h (0 Bft) S-SW 201 ° 0 min 0,000 mm 0,0 UV-I 0 W/m² 11,1 °C 12,4 °C 1,6 km/h (1 Bft)
16.08.2019 04:16 12,4 °C 92 % 1018,1 hPa 0,0 mm 3,1 km/h (1 Bft) SW 232 ° 0 min 0,000 mm 0,0 UV-I 0 W/m² 11,1 °C 12,4 °C 6,4 km/h (2 Bft)
16.08.2019 04:17 12,4 °C 92 % 1018,1 hPa 0,0 mm 0,8 km/h (0 Bft) SW 232 ° 0 min 0,000 mm 0,0 UV-I 0 W/m² 11,1 °C 12,4 °C 1,6 km/h (1 Bft)
16.08.2019 04:18 12,4 °C 92 % 1018,1 hPa 0,0 mm 0,5 km/h (0 Bft) SW 232 ° 0 min 0,000 mm 0,0 UV-I 0 W/m² 11,1 °C 12,4 °C 1,6 km/h (1 Bft)
16.08.2019 04:19 12,4 °C 92 % 1018,1 hPa 0,0 mm 1,7 km/h (1 Bft) S-SW 207 ° 0 min 0,000 mm 0,0 UV-I 0 W/m² 11,1 °C 12,4 °C 3,2 km/h (1 Bft)
16.08.2019 04:20 12,4 °C 92 % 1018,1 hPa 0,0 mm 3,7 km/h (1 Bft) S-SW 213 ° 0 min 0,000 mm 0,0 UV-I 0 W/m² 11,1 °C 12,4 °C 8,0 km/h (2 Bft)
16.08.2019 04:21 12,4 °C 92 % 1018,2 hPa 0,0 mm 2,3 km/h (1 Bft) SW 227 ° 0 min 0,000 mm 0,0 UV-I 0 W/m² 11,1 °C 12,4 °C 4,8 km/h (1 Bft)
16.08.2019 04:22 12,4 °C 92 % 1018,2 hPa 0,2 mm 2,4 km/h (1 Bft) SW 227 ° 0 min 0,000 mm 0,0 UV-I 0 W/m² 11,1 °C 12,4 °C 4,8 km/h (1 Bft)
16.08.2019 04:23 12,4 °C 92 % 1018,2 hPa 0,0 mm 1,4 km/h (1 Bft) SW 236 ° 0 min 0,000 mm 0,0 UV-I 0 W/m² 11,1 °C 12,4 °C 4,8 km/h (1 Bft)
16.08.2019 04:24 12,4 °C 92 % 1018,1 hPa 0,0 mm 4,1 km/h (1 Bft) SW 228 ° 0 min 0,000 mm 0,0 UV-I 0 W/m² 11,1 °C 12,4 °C 8,0 km/h (2 Bft)
16.08.2019 04:25 12,4 °C 92 % 1018,1 hPa 0,0 mm 1,3 km/h (1 Bft) W-SW 254 ° 0 min 0,000 mm 0,0 UV-I 0 W/m² 11,1 °C 12,4 °C 6,4 km/h (2 Bft)
16.08.2019 04:26 12,4 °C 92 % 1018,2 hPa 0,0 mm 1,0 km/h (0 Bft) W-SW 254 ° 0 min 0,000 mm 0,0 UV-I 0 W/m² 11,1 °C 12,4 °C 4,8 km/h (1 Bft)
16.08.2019 04:27 12,4 °C 92 % 1018,1 hPa 0,0 mm 0,0 km/h (0 Bft) W-SW 253 ° 0 min 0,000 mm 0,0 UV-I 0 W/m² 11,1 °C 12,4 °C 0,0 km/h (0 Bft)
16.08.2019 04:28 12,4 °C 92 % 1018,2 hPa 0,0 mm 1,0 km/h (0 Bft) W-SW 253 ° 0 min 0,000 mm 0,0 UV-I 0 W/m² 11,1 °C 12,4 °C 3,2 km/h (1 Bft)
16.08.2019 04:29 12,4 °C 91 % 1018,1 hPa 0,0 mm 1,7 km/h (1 Bft) S 190 ° 0 min 0,000 mm 0,0 UV-I 0 W/m² 11,0 °C 12,4 °C 4,8 km/h (1 Bft)
16.08.2019 04:30 12,4 °C 91 % 1018,2 hPa 0,0 mm 1,7 km/h (1 Bft) S-SW 210 ° 0 min 0,000 mm 0,0 UV-I 0 W/m² 11,0 °C 12,4 °C 4,8 km/h (1 Bft)
16.08.2019 04:31 12,4 °C 92 % 1018,0 hPa 0,0 mm 6,1 km/h (2 Bft) W 269 ° 0 min 0,000 mm 0,0 UV-I 0 W/m² 11,1 °C 12,4 °C 11,3 km/h (2 Bft)
16.08.2019 04:32 12,4 °C 91 % 1018,1 hPa 0,0 mm 2,4 km/h (1 Bft) S-SW 202 ° 0 min 0,000 mm 0,0 UV-I 0 W/m² 11,0 °C 12,4 °C 4,8 km/h (1 Bft)
16.08.2019 04:33 12,4 °C 91 % 1018,2 hPa 0,0 mm 0,4 km/h (0 Bft) S-SW 203 ° 0 min 0,000 mm 0,0 UV-I 0 W/m² 11,0 °C 12,4 °C 1,6 km/h (1 Bft)
16.08.2019 04:34 12,4 °C 91 % 1018,1 hPa 0,0 mm 1,2 km/h (1 Bft) W-SW 258 ° 0 min 0,000 mm 0,0 UV-I 0 W/m² 11,0 °C 12,4 °C 6,4 km/h (2 Bft)
16.08.2019 04:35 12,4 °C 91 % 1018,2 hPa 0,0 mm 1,8 km/h (1 Bft) W-SW 243 ° 0 min 0,000 mm 0,0 UV-I 0 W/m² 11,0 °C 12,4 °C 4,8 km/h (1 Bft)
16.08.2019 04:36 12,4 °C 91 % 1018,1 hPa 0,0 mm 1,4 km/h (1 Bft) W-SW 252 ° 0 min 0,000 mm 0,0 UV-I 0 W/m² 11,0 °C 12,4 °C 4,8 km/h (1 Bft)
16.08.2019 04:37 12,4 °C 91 % 1018,2 hPa 0,0 mm 2,8 km/h (1 Bft) W 266 ° 0 min 0,000 mm 0,0 UV-I 0 W/m² 11,0 °C 12,4 °C 4,8 km/h (1 Bft)
16.08.2019 04:38 12,4 °C 91 % 1018,2 hPa 0,0 mm 2,2 km/h (1 Bft) W-SW 254 ° 0 min 0,000 mm 0,0 UV-I 0 W/m² 11,0 °C 12,4 °C 6,4 km/h (2 Bft)
16.08.2019 04:39 12,4 °C 91 % 1018,2 hPa 0,2 mm 3,0 km/h (1 Bft) S-SW 209 ° 0 min 0,000 mm 0,0 UV-I 0 W/m² 11,0 °C 12,4 °C 9,7 km/h (2 Bft)
16.08.2019 04:40 12,4 °C 91 % 1018,2 hPa 0,0 mm 4,2 km/h (1 Bft) SW 218 ° 0 min 0,000 mm 0,0 UV-I 0 W/m² 11,0 °C 12,4 °C 6,4 km/h (2 Bft)
16.08.2019 04:41 12,4 °C 91 % 1018,2 hPa 0,0 mm 2,6 km/h (1 Bft) SW 225 ° 0 min 0,000 mm 0,0 UV-I 0 W/m² 11,0 °C 12,4 °C 9,7 km/h (2 Bft)
16.08.2019 04:42 12,4 °C 91 % 1018,2 hPa 0,0 mm 3,2 km/h (1 Bft) S 189 ° 0 min 0,000 mm 0,0 UV-I 0 W/m² 11,0 °C 12,4 °C 8,0 km/h (2 Bft)
16.08.2019 04:43 12,4 °C 91 % 1018,2 hPa 0,0 mm 2,3 km/h (1 Bft) SW 236 ° 0 min 0,000 mm 0,0 UV-I 0 W/m² 11,0 °C 12,4 °C 4,8 km/h (1 Bft)
16.08.2019 04:44 12,4 °C 91 % 1018,2 hPa 0,0 mm 3,5 km/h (1 Bft) S-SW 198 ° 0 min 0,000 mm 0,0 UV-I 0 W/m² 11,0 °C 12,4 °C 6,4 km/h (2 Bft)
16.08.2019 04:45 12,4 °C 91 % 1018,2 hPa 0,0 mm 3,6 km/h (1 Bft) S-SW 192 ° 0 min 0,000 mm 0,0 UV-I 0 W/m² 11,0 °C 12,4 °C 6,4 km/h (2 Bft)
16.08.2019 04:46 12,4 °C 91 % 1018,2 hPa 0,0 mm 0,2 km/h (0 Bft) S-SW 192 ° 0 min 0,000 mm 0,0 UV-I 0 W/m² 11,0 °C 12,4 °C 1,6 km/h (1 Bft)
16.08.2019 04:47 12,4 °C 91 % 1018,2 hPa 0,0 mm 0,0 km/h (0 Bft) S-SW 193 ° 0 min 0,000 mm 0,0 UV-I 0 W/m² 11,0 °C 12,4 °C 0,0 km/h (0 Bft)
16.08.2019 04:48 12,4 °C 91 % 1018,2 hPa 0,0 mm 4,8 km/h (1 Bft) SW 225 ° 0 min 0,000 mm 0,0 UV-I 0 W/m² 11,0 °C 12,4 °C 9,7 km/h (2 Bft)
16.08.2019 04:49 12,4 °C 91 % 1018,2 hPa 0,0 mm 2,3 km/h (1 Bft) W-SW 246 ° 0 min 0,000 mm 0,0 UV-I 0 W/m² 11,0 °C 12,4 °C 6,4 km/h (2 Bft)
16.08.2019 04:50 12,4 °C 91 % 1018,2 hPa 0,0 mm 2,1 km/h (1 Bft) S-SW 200 ° 0 min 0,000 mm 0,0 UV-I 0 W/m² 11,0 °C 12,4 °C 3,2 km/h (1 Bft)
16.08.2019 04:51 12,4 °C 91 % 1018,2 hPa 0,0 mm 5,6 km/h (1 Bft) SW 217 ° 0 min 0,000 mm 0,0 UV-I 0 W/m² 11,0 °C 12,4 °C 9,7 km/h (2 Bft)
16.08.2019 04:52 12,4 °C 91 % 1018,2 hPa 0,0 mm 4,5 km/h (1 Bft) W-SW 256 ° 0 min 0,000 mm 0,0 UV-I 0 W/m² 11,0 °C 12,4 °C 12,9 km/h (3 Bft)
16.08.2019 04:53 12,4 °C 91 % 1018,2 hPa 0,0 mm 4,7 km/h (1 Bft) W-SW 256 ° 0 min 0,000 mm 0,0 UV-I 0 W/m² 11,0 °C 12,4 °C 11,3 km/h (2 Bft)
16.08.2019 04:54 12,4 °C 91 % 1018,2 hPa 0,0 mm 5,2 km/h (1 Bft) SW 236 ° 0 min 0,000 mm 0,0 UV-I 0 W/m² 11,0 °C 12,4 °C 11,3 km/h (2 Bft)
16.08.2019 04:55 12,4 °C 91 % 1018,3 hPa 0,2 mm 2,6 km/h (1 Bft) W-SW 245 ° 0 min 0,000 mm 0,0 UV-I 0 W/m² 11,0 °C 12,4 °C 6,4 km/h (2 Bft)
16.08.2019 04:56 12,4 °C 91 % 1018,3 hPa 0,0 mm 3,1 km/h (1 Bft) W 264 ° 0 min 0,000 mm 0,0 UV-I 0 W/m² 11,0 °C 12,4 °C 11,3 km/h (2 Bft)
16.08.2019 04:57 12,4 °C 91 % 1018,3 hPa 0,0 mm 2,5 km/h (1 Bft) W 270 ° 0 min 0,000 mm 0,0 UV-I 0 W/m² 11,0 °C 12,4 °C 6,4 km/h (2 Bft)
16.08.2019 04:58 12,4 °C 91 % 1018,3 hPa 0,0 mm 3,5 km/h (1 Bft) W 270 ° 0 min 0,000 mm 0,0 UV-I 0 W/m² 11,0 °C 12,4 °C 4,8 km/h (1 Bft)
16.08.2019 04:59 12,3 °C 91 % 1018,3 hPa 0,0 mm 2,0 km/h (1 Bft) W-SW 251 ° 0 min 0,000 mm 0,0 UV-I 0 W/m² 10,9 °C 12,3 °C 4,8 km/h (1 Bft)
16.08.2019 05:00 12,3 °C 91 % 1018,3 hPa 0,0 mm 0,5 km/h (0 Bft) S-SW 206 ° 0 min 0,000 mm 0,0 UV-I 0 W/m² 10,9 °C 12,3 °C 3,2 km/h (1 Bft)
16.08.2019 05:01 12,3 °C 91 % 1018,3 hPa 0,0 mm 0,7 km/h (0 Bft) SW 231 ° 0 min 0,000 mm 0,0 UV-I 0 W/m² 10,9 °C 12,3 °C 1,6 km/h (1 Bft)
16.08.2019 05:02 12,3 °C 91 % 1018,3 hPa 0,0 mm 0,1 km/h (0 Bft) W 281 ° 0 min 0,000 mm 0,0 UV-I 0 W/m² 10,9 °C 12,3 °C 1,6 km/h (1 Bft)
16.08.2019 05:03 12,3 °C 91 % 1018,3 hPa 0,0 mm 1,7 km/h (1 Bft) W-SW 245 ° 0 min 0,000 mm 0,0 UV-I 0 W/m² 10,9 °C 12,3 °C 4,8 km/h (1 Bft)
16.08.2019 05:04 12,3 °C 91 % 1018,3 hPa 0,0 mm 2,6 km/h (1 Bft) W-SW 251 ° 0 min 0,000 mm 0,0 UV-I 0 W/m² 10,9 °C 12,3 °C 4,8 km/h (1 Bft)
16.08.2019 05:05 12,3 °C 91 % 1018,3 hPa 0,0 mm 0,6 km/h (0 Bft) W-SW 251 ° 0 min 0,000 mm 0,0 UV-I 0 W/m² 10,9 °C 12,3 °C 1,6 km/h (1 Bft)
16.08.2019 05:06 12,3 °C 91 % 1018,3 hPa 0,0 mm 0,1 km/h (0 Bft) W-SW 250 ° 0 min 0,000 mm 0,0 UV-I 0 W/m² 10,9 °C 12,3 °C 1,6 km/h (1 Bft)
16.08.2019 05:07 12,2 °C 91 % 1018,4 hPa 0,0 mm 2,1 km/h (1 Bft) SW 234 ° 0 min 0,000 mm 0,0 UV-I 0 W/m² 10,8 °C 12,2 °C 4,8 km/h (1 Bft)
16.08.2019 05:08 12,2 °C 91 % 1018,3 hPa 0,0 mm 5,2 km/h (1 Bft) S-SW 195 ° 0 min 0,000 mm 0,0 UV-I 0 W/m² 10,8 °C 12,2 °C 8,0 km/h (2 Bft)
16.08.2019 05:09 12,2 °C 91 % 1018,3 hPa 0,0 mm 0,9 km/h (0 Bft) S-SW 195 ° 0 min 0,000 mm 0,0 UV-I 0 W/m² 10,8 °C 12,2 °C 4,8 km/h (1 Bft)
16.08.2019 05:10 12,2 °C 91 % 1018,3 hPa 0,0 mm 0,5 km/h (0 Bft) S-SW 194 ° 0 min 0,000 mm 0,0 UV-I 0 W/m² 10,8 °C 12,2 °C 3,2 km/h (1 Bft)
16.08.2019 05:11 12,2 °C 91 % 1018,3 hPa 0,0 mm 0,3 km/h (0 Bft) S-SW 196 ° 0 min 0,000 mm 0,0 UV-I 0 W/m² 10,8 °C 12,2 °C 3,2 km/h (1 Bft)
16.08.2019 05:12 12,2 °C 91 % 1018,3 hPa 0,0 mm 0,7 km/h (0 Bft) S-SW 207 ° 0 min 0,000 mm 0,0 UV-I 0 W/m² 10,8 °C 12,2 °C 1,6 km/h (1 Bft)
16.08.2019 05:13 12,2 °C 91 % 1018,3 hPa 0,0 mm 1,4 km/h (1 Bft) W-SW 254 ° 0 min 0,000 mm 0,0 UV-I 0 W/m² 10,8 °C 12,2 °C 6,4 km/h (2 Bft)
16.08.2019 05:14 12,2 °C 91 % 1018,3 hPa 0,0 mm 0,1 km/h (0 Bft) W-SW 254 ° 0 min 0,000 mm 0,0 UV-I 0 W/m² 10,8 °C 12,2 °C 1,6 km/h (1 Bft)
16.08.2019 05:15 12,2 °C 91 % 1018,4 hPa 0,0 mm 3,8 km/h (1 Bft) W-SW 244 ° 0 min 0,000 mm 0,0 UV-I 0 W/m² 10,8 °C 12,2 °C 8,0 km/h (2 Bft)
16.08.2019 05:16 12,3 °C 91 % 1018,4 hPa 0,2 mm 0,3 km/h (0 Bft) W-SW 244 ° 0 min 0,000 mm 0,0 UV-I 0 W/m² 10,9 °C 12,3 °C 3,2 km/h (1 Bft)
16.08.2019 05:17 12,2 °C 91 % 1018,4 hPa 0,0 mm 1,1 km/h (1 Bft) W-SW 238 ° 0 min 0,000 mm 0,0 UV-I 0 W/m² 10,8 °C 12,2 °C 3,2 km/h (1 Bft)
16.08.2019 05:18 12,2 °C 91 % 1018,4 hPa 0,0 mm 3,8 km/h (1 Bft) S 184 ° 0 min 0,000 mm 0,0 UV-I 0 W/m² 10,8 °C 12,2 °C 6,4 km/h (2 Bft)
16.08.2019 05:19 12,2 °C 91 % 1018,4 hPa 0,0 mm 0,8 km/h (0 Bft) S 184 ° 0 min 0,000 mm 0,0 UV-I 0 W/m² 10,8 °C 12,2 °C 3,2 km/h (1 Bft)
16.08.2019 05:20 12,2 °C 91 % 1018,4 hPa 0,0 mm 2,0 km/h (1 Bft) W-SW 240 ° 0 min 0,000 mm 0,0 UV-I 0 W/m² 10,8 °C 12,2 °C 6,4 km/h (2 Bft)
16.08.2019 05:21 12,2 °C 90 % 1018,4 hPa 0,0 mm 1,2 km/h (1 Bft) W-SW 240 ° 0 min 0,000 mm 0,0 UV-I 0 W/m² 10,6 °C 12,2 °C 3,2 km/h (1 Bft)
16.08.2019 05:22 12,3 °C 90 % 1018,4 hPa 0,0 mm 0,4 km/h (0 Bft) W-SW 240 ° 0 min 0,000 mm 0,0 UV-I 0 W/m² 10,7 °C 12,3 °C 1,6 km/h (1 Bft)
16.08.2019 05:23 12,2 °C 90 % 1018,4 hPa 0,0 mm 0,3 km/h (0 Bft) W-SW 240 ° 0 min 0,000 mm 0,0 UV-I 0 W/m² 10,6 °C 12,2 °C 1,6 km/h (1 Bft)
16.08.2019 05:24 12,2 °C 90 % 1018,4 hPa 0,0 mm 0,9 km/h (0 Bft) W-SW 240 ° 0 min 0,000 mm 0,0 UV-I 0 W/m² 10,6 °C 12,2 °C 3,2 km/h (1 Bft)
16.08.2019 05:25 12,2 °C 90 % 1018,4 hPa 0,0 mm 0,0 km/h (0 Bft) W-SW 240 ° 0 min 0,000 mm 0,0 UV-I 0 W/m² 10,6 °C 12,2 °C 0,0 km/h (0 Bft)
16.08.2019 05:26 12,2 °C 90 % 1018,4 hPa 0,0 mm 0,0 km/h (0 Bft) W-SW 240 ° 0 min 0,000 mm 0,0 UV-I 0 W/m² 10,6 °C 12,2 °C 0,0 km/h (0 Bft)
16.08.2019 05:27 12,2 °C 90 % 1018,5 hPa 0,0 mm 0,5 km/h (0 Bft) W-SW 240 ° 0 min 0,000 mm 0,0 UV-I 0 W/m² 10,6 °C 12,2 °C 3,2 km/h (1 Bft)
16.08.2019 05:28 12,2 °C 90 % 1018,4 hPa 0,0 mm 0,5 km/h (0 Bft) W-SW 240 ° 0 min 0,000 mm 0,0 UV-I 0 W/m² 10,6 °C 12,2 °C 3,2 km/h (1 Bft)
16.08.2019 05:29 12,2 °C 90 % 1018,4 hPa 0,0 mm 1,8 km/h (1 Bft) W-SW 240 ° 0 min 0,000 mm 0,0 UV-I 0 W/m² 10,6 °C 12,2 °C 3,2 km/h (1 Bft)
16.08.2019 05:30 12,2 °C 90 % 1018,5 hPa 0,0 mm 0,5 km/h (0 Bft) W-SW 240 ° 0 min 0,000 mm 0,0 UV-I 0 W/m² 10,6 °C 12,2 °C 1,6 km/h (1 Bft)
16.08.2019 05:31 12,2 °C 90 % 1018,5 hPa 0,0 mm 1,4 km/h (1 Bft) SW 219 ° 0 min 0,000 mm 0,0 UV-I 0 W/m² 10,6 °C 12,2 °C 6,4 km/h (2 Bft)
16.08.2019 05:32 12,2 °C 90 % 1018,5 hPa 0,0 mm 4,6 km/h (1 Bft) S-SW 211 ° 0 min 0,000 mm 0,0 UV-I 0 W/m² 10,6 °C 12,2 °C 8,0 km/h (2 Bft)
16.08.2019 05:33 12,2 °C 90 % 1018,4 hPa 0,0 mm 3,9 km/h (1 Bft) S-SW 196 ° 0 min 0,000 mm 0,0 UV-I 0 W/m² 10,6 °C 12,2 °C 9,7 km/h (2 Bft)
16.08.2019 05:34 12,2 °C 90 % 1018,4 hPa 0,0 mm 3,1 km/h (1 Bft) S 190 ° 0 min 0,000 mm 0,0 UV-I 0 W/m² 10,6 °C 12,2 °C 8,0 km/h (2 Bft)
16.08.2019 05:35 12,2 °C 90 % 1018,4 hPa 0,2 mm 2,4 km/h (1 Bft) S-SW 198 ° 0 min 0,000 mm 0,0 UV-I 0 W/m² 10,6 °C 12,2 °C 6,4 km/h (2 Bft)
16.08.2019 05:36 12,2 °C 90 % 1018,5 hPa 0,0 mm 0,9 km/h (0 Bft) S-SW 199 ° 0 min 0,000 mm 0,0 UV-I 0 W/m² 10,6 °C 12,2 °C 3,2 km/h (1 Bft)
16.08.2019 05:37 12,3 °C 90 % 1018,5 hPa 0,0 mm 1,1 km/h (1 Bft) SW 220 ° 0 min 0,000 mm 0,0 UV-I 0 W/m² 10,7 °C 12,3 °C 3,2 km/h (1 Bft)
16.08.2019 05:38 12,2 °C 90 % 1018,5 hPa 0,0 mm 0,2 km/h (0 Bft) SW 219 ° 0 min 0,000 mm 0,0 UV-I 0 W/m² 10,6 °C 12,2 °C 1,6 km/h (1 Bft)
16.08.2019 05:39 12,2 °C 90 % 1018,5 hPa 0,0 mm 3,2 km/h (1 Bft) W-SW 253 ° 0 min 0,000 mm 0,0 UV-I 0 W/m² 10,6 °C 12,2 °C 11,3 km/h (2 Bft)
16.08.2019 05:40 12,2 °C 90 % 1018,5 hPa 0,0 mm 1,1 km/h (1 Bft) W-SW 246 ° 0 min 0,000 mm 0,0 UV-I 0 W/m² 10,6 °C 12,2 °C 4,8 km/h (1 Bft)
16.08.2019 05:41 12,2 °C 90 % 1018,5 hPa 0,0 mm 0,0 km/h (0 Bft) W-SW 246 ° 0 min 0,000 mm 0,0 UV-I 0 W/m² 10,6 °C 12,2 °C 0,0 km/h (0 Bft)
16.08.2019 05:42 12,2 °C 90 % 1018,4 hPa 0,0 mm 0,0 km/h (0 Bft) W-SW 246 ° 0 min 0,000 mm 0,0 UV-I 0 W/m² 10,6 °C 12,2 °C 0,0 km/h (0 Bft)
16.08.2019 05:43 12,2 °C 90 % 1018,5 hPa 0,0 mm 1,8 km/h (1 Bft) W-SW 246 ° 0 min 0,000 mm 0,0 UV-I 0 W/m² 10,6 °C 12,2 °C 3,2 km/h (1 Bft)
16.08.2019 05:44 12,1 °C 91 % 1018,5 hPa 0,0 mm 0,2 km/h (0 Bft) W-SW 246 ° 0 min 0,000 mm 0,0 UV-I 0 W/m² 10,7 °C 12,1 °C 1,6 km/h (1 Bft)
16.08.2019 05:45 12,2 °C 91 % 1018,5 hPa 0,0 mm 0,4 km/h (0 Bft) W-SW 252 ° 0 min 0,000 mm 0,0 UV-I 0 W/m² 10,8 °C 12,2 °C 4,8 km/h (1 Bft)
16.08.2019 05:46 12,1 °C 91 % 1018,5 hPa 0,0 mm 1,7 km/h (1 Bft) W-SW 252 ° 0 min 0,000 mm 0,0 UV-I 0 W/m² 10,7 °C 12,1 °C 4,8 km/h (1 Bft)
16.08.2019 05:47 12,1 °C 91 % 1018,5 hPa 0,0 mm 0,0 km/h (0 Bft) W-SW 252 ° 0 min 0,000 mm 0,0 UV-I 0 W/m² 10,7 °C 12,1 °C 0,0 km/h (0 Bft)
16.08.2019 05:48 12,1 °C 91 % 1018,5 hPa 0,0 mm 0,7 km/h (0 Bft) W-SW 248 ° 0 min 0,000 mm 0,0 UV-I 0 W/m² 10,7 °C 12,1 °C 3,2 km/h (1 Bft)
16.08.2019 05:49 12,1 °C 91 % 1018,5 hPa 0,0 mm 0,0 km/h (0 Bft) W-SW 248 ° 0 min 0,000 mm 0,0 UV-I 0 W/m² 10,7 °C 12,1 °C 0,0 km/h (0 Bft)
16.08.2019 05:50 12,0 °C 91 % 1018,5 hPa 0,0 mm 0,3 km/h (0 Bft) W-SW 248 ° 0 min 0,000 mm 0,0 UV-I 0 W/m² 10,6 °C 12,0 °C 1,6 km/h (1 Bft)
16.08.2019 05:51 12,0 °C 91 % 1018,5 hPa 0,0 mm 1,3 km/h (1 Bft) W-SW 248 ° 0 min 0,000 mm 0,0 UV-I 0 W/m² 10,6 °C 12,0 °C 3,2 km/h (1 Bft)
16.08.2019 05:52 12,0 °C 91 % 1018,5 hPa 0,0 mm 0,1 km/h (0 Bft) W-SW 248 ° 0 min 0,000 mm 0,0 UV-I 0 W/m² 10,6 °C 12,0 °C 1,6 km/h (1 Bft)
16.08.2019 05:53 12,0 °C 91 % 1018,5 hPa 0,0 mm 0,0 km/h (0 Bft) W-SW 248 ° 0 min 0,000 mm 0,0 UV-I 0 W/m² 10,6 °C 12,0 °C 0,0 km/h (0 Bft)
16.08.2019 05:54 11,9 °C 91 % 1018,5 hPa 0,0 mm 0,0 km/h (0 Bft) W-SW 248 ° 0 min 0,000 mm 0,0 UV-I 0 W/m² 10,5 °C 11,9 °C 0,0 km/h (0 Bft)
16.08.2019 05:55 11,9 °C 91 % 1018,5 hPa 0,0 mm 0,0 km/h (0 Bft) W-SW 248 ° 0 min 0,000 mm 0,0 UV-I 0 W/m² 10,5 °C 11,9 °C 0,0 km/h (0 Bft)
16.08.2019 05:56 11,9 °C 91 % 1018,5 hPa 0,0 mm 0,0 km/h (0 Bft) W-SW 248 ° 0 min 0,000 mm 0,0 UV-I 0 W/m² 10,5 °C 11,9 °C 0,0 km/h (0 Bft)
16.08.2019 05:57 11,9 °C 92 % 1018,5 hPa 0,0 mm 0,0 km/h (0 Bft) W-SW 248 ° 0 min 0,000 mm 0,0 UV-I 0 W/m² 10,6 °C 11,9 °C 0,0 km/h (0 Bft)
16.08.2019 05:58 11,8 °C 92 % 1018,5 hPa 0,0 mm 0,0 km/h (0 Bft) W-SW 248 ° 0 min 0,000 mm 0,0 UV-I 0 W/m² 10,5 °C 11,8 °C 0,0 km/h (0 Bft)
16.08.2019 05:59 11,8 °C 92 % 1018,5 hPa 0,0 mm 0,0 km/h (0 Bft) S 186 ° 0 min 0,000 mm 0,0 UV-I 0 W/m² 10,5 °C 11,8 °C 0,0 km/h (0 Bft)
16.08.2019 06:00 11,8 °C 91 % 1018,5 hPa 0,2 mm 1,0 km/h (0 Bft) S 185 ° 0 min 0,000 mm 0,0 UV-I 0 W/m² 10,4 °C 11,8 °C 4,8 km/h (1 Bft)
16.08.2019 06:01 11,9 °C 91 % 1018,5 hPa 0,0 mm 0,0 km/h (0 Bft) S 186 ° 0 min 0,000 mm 0,0 UV-I 0 W/m² 10,5 °C 11,9 °C 0,0 km/h (0 Bft)
16.08.2019 06:02 11,9 °C 92 % 1018,4 hPa 0,0 mm 3,2 km/h (1 Bft) S 189 ° 0 min 0,000 mm 0,0 UV-I 0 W/m² 10,6 °C 11,9 °C 6,4 km/h (2 Bft)
16.08.2019 06:03 11,9 °C 91 % 1018,4 hPa 0,0 mm 2,6 km/h (1 Bft) S-SW 200 ° 0 min 0,000 mm 0,0 UV-I 0 W/m² 10,5 °C 11,9 °C 4,8 km/h (1 Bft)
16.08.2019 06:04 11,9 °C 91 % 1018,4 hPa 0,0 mm 1,1 km/h (1 Bft) S 181 ° 0 min 0,000 mm 0,0 UV-I 0 W/m² 10,5 °C 11,9 °C 3,2 km/h (1 Bft)
16.08.2019 06:05 11,9 °C 91 % 1018,4 hPa 0,0 mm 2,0 km/h (1 Bft) S-SW 208 ° 0 min 0,000 mm 0,0 UV-I 0 W/m² 10,5 °C 11,9 °C 4,8 km/h (1 Bft)
16.08.2019 06:06 11,9 °C 91 % 1018,4 hPa 0,0 mm 4,0 km/h (1 Bft) S-SW 199 ° 0 min 0,000 mm 0,0 UV-I 0 W/m² 10,5 °C 11,9 °C 9,7 km/h (2 Bft)
16.08.2019 06:07 11,9 °C 91 % 1018,4 hPa 0,0 mm 0,5 km/h (0 Bft) S-SW 200 ° 0 min 0,000 mm 0,0 UV-I 0 W/m² 10,5 °C 11,9 °C 1,6 km/h (1 Bft)
16.08.2019 06:08 11,9 °C 91 % 1018,4 hPa 0,0 mm 3,6 km/h (1 Bft) S 181 ° 0 min 0,000 mm 0,0 UV-I 0 W/m² 10,5 °C 11,9 °C 11,3 km/h (2 Bft)
16.08.2019 06:09 12,0 °C 91 % 1018,4 hPa 0,0 mm 6,3 km/h (2 Bft) S-SW 199 ° 0 min 0,000 mm 0,0 UV-I 0 W/m² 10,6 °C 12,0 °C 9,7 km/h (2 Bft)
16.08.2019 06:10 12,0 °C 91 % 1018,4 hPa 0,0 mm 1,4 km/h (1 Bft) S-SW 202 ° 0 min 0,000 mm 0,0 UV-I 0 W/m² 10,6 °C 12,0 °C 3,2 km/h (1 Bft)
16.08.2019 06:11 12,0 °C 91 % 1018,4 hPa 0,0 mm 1,4 km/h (1 Bft) S-SW 196 ° 0 min 0,000 mm 0,0 UV-I 0 W/m² 10,6 °C 12,0 °C 4,8 km/h (1 Bft)
16.08.2019 06:12 12,1 °C 90 % 1018,3 hPa 0,0 mm 1,5 km/h (1 Bft) S-SW 193 ° 0 min 0,000 mm 0,0 UV-I 0 W/m² 10,5 °C 12,1 °C 3,2 km/h (1 Bft)
16.08.2019 06:13 12,1 °C 90 % 1018,3 hPa 0,0 mm 0,3 km/h (0 Bft) S-SW 193 ° 0 min 0,000 mm 0,0 UV-I 0 W/m² 10,5 °C 12,1 °C 1,6 km/h (1 Bft)
16.08.2019 06:14 12,0 °C 90 % 1018,3 hPa 0,0 mm 0,0 km/h (0 Bft) S-SW 193 ° 0 min 0,000 mm 0,0 UV-I 0 W/m² 10,4 °C 12,0 °C 0,0 km/h (0 Bft)
16.08.2019 06:15 11,9 °C 90 % 1018,3 hPa 0,0 mm 0,0 km/h (0 Bft) S-SW 193 ° 0 min 0,000 mm 0,0 UV-I 0 W/m² 10,3 °C 11,9 °C 0,0 km/h (0 Bft)
16.08.2019 06:16 11,9 °C 91 % 1018,3 hPa 0,0 mm 0,0 km/h (0 Bft) S-SW 193 ° 0 min 0,000 mm 0,0 UV-I 0 W/m² 10,5 °C 11,9 °C 0,0 km/h (0 Bft)
16.08.2019 06:17 11,8 °C 91 % 1018,3 hPa 0,0 mm 0,0 km/h (0 Bft) S-SW 193 ° 0 min 0,000 mm 0,0 UV-I 5 W/m² 10,4 °C 11,8 °C 0,0 km/h (0 Bft)
16.08.2019 06:18 11,7 °C 91 % 1018,3 hPa 0,0 mm 0,0 km/h (0 Bft) S-SW 193 ° 0 min 0,000 mm 0,0 UV-I 5 W/m² 10,3 °C 11,7 °C 0,0 km/h (0 Bft)
16.08.2019 06:19 11,6 °C 91 % 1018,2 hPa 0,0 mm 0,0 km/h (0 Bft) S-SW 193 ° 0 min 0,000 mm 0,0 UV-I 5 W/m² 10,2 °C 11,6 °C 0,0 km/h (0 Bft)
16.08.2019 06:20 11,6 °C 92 % 1018,3 hPa 0,0 mm 0,0 km/h (0 Bft) S-SW 193 ° 0 min 0,000 mm 0,0 UV-I 5 W/m² 10,3 °C 11,6 °C 0,0 km/h (0 Bft)
16.08.2019 06:21 11,5 °C 92 % 1018,2 hPa 0,2 mm 0,0 km/h (0 Bft) S-SW 193 ° 0 min 0,000 mm 0,0 UV-I 7 W/m² 10,2 °C 11,5 °C 0,0 km/h (0 Bft)
16.08.2019 06:22 11,4 °C 92 % 1018,1 hPa 0,0 mm 0,0 km/h (0 Bft) S-SW 192 ° 0 min 0,000 mm 0,0 UV-I 7 W/m² 10,1 °C 11,4 °C 0,0 km/h (0 Bft)
16.08.2019 06:23 11,4 °C 92 % 1018,2 hPa 0,0 mm 0,0 km/h (0 Bft) S-SW 192 ° 0 min 0,000 mm 0,0 UV-I 7 W/m² 10,1 °C 11,4 °C 0,0 km/h (0 Bft)
16.08.2019 06:24 11,3 °C 92 % 1018,2 hPa 0,0 mm 0,0 km/h (0 Bft) S-SW 192 ° 0 min 0,000 mm 0,0 UV-I 9 W/m² 10,0 °C 11,3 °C 0,0 km/h (0 Bft)
16.08.2019 06:25 11,3 °C 92 % 1018,2 hPa 0,0 mm 0,0 km/h (0 Bft) S-SW 192 ° 0 min 0,000 mm 0,0 UV-I 9 W/m² 10,0 °C 11,3 °C 0,0 km/h (0 Bft)
16.08.2019 06:26 11,3 °C 92 % 1018,2 hPa 0,0 mm 0,0 km/h (0 Bft) S-SW 192 ° 0 min 0,000 mm 0,0 UV-I 9 W/m² 10,0 °C 11,3 °C 0,0 km/h (0 Bft)
16.08.2019 06:27 11,2 °C 93 % 1018,2 hPa 0,0 mm 0,0 km/h (0 Bft) S-SW 192 ° 0 min 0,000 mm 0,0 UV-I 9 W/m² 10,1 °C 11,2 °C 0,0 km/h (0 Bft)
16.08.2019 06:28 11,2 °C 93 % 1018,2 hPa 0,0 mm 0,0 km/h (0 Bft) S-SW 192 ° 0 min 0,000 mm 0,0 UV-I 9 W/m² 10,1 °C 11,2 °C 0,0 km/h (0 Bft)
16.08.2019 06:29 11,2 °C 93 % 1018,3 hPa 0,0 mm 0,0 km/h (0 Bft) S-SW 192 ° 0 min 0,000 mm 0,0 UV-I 11 W/m² 10,1 °C 11,2 °C 0,0 km/h (0 Bft)
16.08.2019 06:30 11,1 °C 93 % 1018,2 hPa 0,0 mm 0,0 km/h (0 Bft) S-SW 192 ° 0 min 0,000 mm 0,0 UV-I 11 W/m² 10,0 °C 11,1 °C 0,0 km/h (0 Bft)
16.08.2019 06:31 11,1 °C 93 % 1018,3 hPa 0,0 mm 0,0 km/h (0 Bft) S-SW 192 ° 0 min 0,000 mm 0,0 UV-I 11 W/m² 10,0 °C 11,1 °C 0,0 km/h (0 Bft)
16.08.2019 06:32 11,0 °C 93 % 1018,3 hPa 0,0 mm 0,0 km/h (0 Bft) S-SW 192 ° 0 min 0,000 mm 0,0 UV-I 12 W/m² 9,9 °C 11,0 °C 0,0 km/h (0 Bft)
16.08.2019 06:33 10,9 °C 93 % 1018,3 hPa 0,0 mm 0,0 km/h (0 Bft) S-SW 192 ° 0 min 0,000 mm 0,0 UV-I 12 W/m² 9,8 °C 10,9 °C 0,0 km/h (0 Bft)
16.08.2019 06:34 10,9 °C 93 % 1018,3 hPa 0,0 mm 0,0 km/h (0 Bft) S-SW 192 ° 0 min 0,000 mm 0,0 UV-I 12 W/m² 9,8 °C 10,9 °C 0,0 km/h (0 Bft)
16.08.2019 06:35 10,9 °C 93 % 1018,3 hPa 0,0 mm 0,0 km/h (0 Bft) S-SW 192 ° 0 min 0,000 mm 0,0 UV-I 14 W/m² 9,8 °C 10,9 °C 0,0 km/h (0 Bft)
16.08.2019 06:36 10,9 °C 93 % 1018,3 hPa 0,0 mm 0,0 km/h (0 Bft) S-SW 192 ° 0 min 0,000 mm 0,0 UV-I 14 W/m² 9,8 °C 10,9 °C 0,0 km/h (0 Bft)
16.08.2019 06:37 10,9 °C 93 % 1018,3 hPa 0,0 mm 0,0 km/h (0 Bft) S-SW 192 ° 0 min 0,000 mm 0,0 UV-I 14 W/m² 9,8 °C 10,9 °C 0,0 km/h (0 Bft)
16.08.2019 06:38 10,9 °C 93 % 1018,3 hPa 0,0 mm 0,0 km/h (0 Bft) S-SW 192 ° 0 min 0,000 mm 0,0 UV-I 14 W/m² 9,8 °C 10,9 °C 0,0 km/h (0 Bft)
16.08.2019 06:39 10,9 °C 93 % 1018,3 hPa 0,0 mm 0,0 km/h (0 Bft) S-SW 192 ° 0 min 0,000 mm 0,0 UV-I 14 W/m² 9,8 °C 10,9 °C 0,0 km/h (0 Bft)
16.08.2019 06:40 10,9 °C 94 % 1018,3 hPa 0,0 mm 0,0 km/h (0 Bft) S-SW 192 ° 0 min 0,000 mm 0,0 UV-I 16 W/m² 10,0 °C 10,9 °C 0,0 km/h (0 Bft)
16.08.2019 06:41 10,9 °C 94 % 1018,3 hPa 0,0 mm 0,0 km/h (0 Bft) S-SW 192 ° 0 min 0,000 mm 0,0 UV-I 16 W/m² 10,0 °C 10,9 °C 0,0 km/h (0 Bft)
16.08.2019 06:42 10,8 °C 94 % 1018,3 hPa 0,0 mm 0,0 km/h (0 Bft) S-SW 192 ° 0 min 0,000 mm 0,0 UV-I 16 W/m² 9,9 °C 10,8 °C 0,0 km/h (0 Bft)
16.08.2019 06:43 10,8 °C 94 % 1018,3 hPa 0,0 mm 0,0 km/h (0 Bft) S-SW 192 ° 0 min 0,000 mm 0,0 UV-I 16 W/m² 9,9 °C 10,8 °C 0,0 km/h (0 Bft)
16.08.2019 06:44 10,8 °C 93 % 1018,3 hPa 0,0 mm 0,0 km/h (0 Bft) S-SW 192 ° 0 min 0,000 mm 0,0 UV-I 18 W/m² 9,7 °C 10,8 °C 0,0 km/h (0 Bft)
16.08.2019 06:45 10,7 °C 93 % 1018,3 hPa 0,0 mm 0,0 km/h (0 Bft) S-SW 192 ° 0 min 0,000 mm 0,0 UV-I 18 W/m² 9,6 °C 10,7 °C 0,0 km/h (0 Bft)
16.08.2019 06:46 10,7 °C 94 % 1018,3 hPa 0,0 mm 0,0 km/h (0 Bft) S-SW 192 ° 0 min 0,000 mm 0,0 UV-I 19 W/m² 9,8 °C 10,7 °C 0,0 km/h (0 Bft)
16.08.2019 06:47 10,8 °C 94 % 1018,2 hPa 0,2 mm 0,0 km/h (0 Bft) S-SW 192 ° 0 min 0,000 mm 0,0 UV-I 21 W/m² 9,9 °C 10,8 °C 0,0 km/h (0 Bft)
16.08.2019 06:48 10,7 °C 94 % 1018,2 hPa 0,0 mm 0,0 km/h (0 Bft) S-SW 192 ° 0 min 0,000 mm 0,0 UV-I 23 W/m² 9,8 °C 10,7 °C 0,0 km/h (0 Bft)
16.08.2019 06:49 10,7 °C 94 % 1018,2 hPa 0,0 mm 0,1 km/h (0 Bft) S-SW 198 ° 0 min 0,000 mm 0,0 UV-I 23 W/m² 9,8 °C 10,7 °C 1,6 km/h (1 Bft)
16.08.2019 06:50 10,7 °C 94 % 1018,2 hPa 0,0 mm 1,1 km/h (1 Bft) S-SW 198 ° 0 min 0,000 mm 0,0 UV-I 25 W/m² 9,8 °C 10,7 °C 3,2 km/h (1 Bft)
16.08.2019 06:51 10,7 °C 94 % 1018,2 hPa 0,0 mm 2,1 km/h (1 Bft) S-SW 198 ° 0 min 0,000 mm 0,0 UV-I 26 W/m² 9,8 °C 10,7 °C 3,2 km/h (1 Bft)
16.08.2019 06:52 10,7 °C 94 % 1018,2 hPa 0,0 mm 1,7 km/h (1 Bft) S-SW 198 ° 0 min 0,000 mm 0,0 UV-I 26 W/m² 9,8 °C 10,7 °C 3,2 km/h (1 Bft)
16.08.2019 06:53 10,7 °C 94 % 1018,2 hPa 0,0 mm 0,9 km/h (0 Bft) S-SW 198 ° 0 min 0,000 mm 0,0 UV-I 28 W/m² 9,8 °C 10,7 °C 3,2 km/h (1 Bft)
16.08.2019 06:54 10,7 °C 94 % 1018,2 hPa 0,0 mm 0,0 km/h (0 Bft) S-SW 198 ° 0 min 0,000 mm 0,0 UV-I 30 W/m² 9,8 °C 10,7 °C 0,0 km/h (0 Bft)
16.08.2019 06:55 10,7 °C 94 % 1018,2 hPa 0,0 mm 1,4 km/h (1 Bft) S-SW 198 ° 0 min 0,000 mm 0,0 UV-I 33 W/m² 9,8 °C 10,7 °C 3,2 km/h (1 Bft)
16.08.2019 06:56 10,7 °C 94 % 1018,2 hPa 0,0 mm 0,9 km/h (0 Bft) S-SW 198 ° 0 min 0,000 mm 0,0 UV-I 37 W/m² 9,8 °C 10,7 °C 1,6 km/h (1 Bft)
16.08.2019 06:57 10,7 °C 94 % 1018,2 hPa 0,0 mm 2,3 km/h (1 Bft) S 169 ° 0 min 0,000 mm 0,0 UV-I 39 W/m² 9,8 °C 10,7 °C 3,2 km/h (1 Bft)
16.08.2019 06:58 10,7 °C 94 % 1018,2 hPa 0,0 mm 2,6 km/h (1 Bft) S 169 ° 0 min 0,000 mm 0,0 UV-I 33 W/m² 9,8 °C 10,7 °C 3,2 km/h (1 Bft)
16.08.2019 06:59 10,8 °C 94 % 1018,2 hPa 0,0 mm 0,2 km/h (0 Bft) S 169 ° 0 min 0,000 mm 0,0 UV-I 32 W/m² 9,9 °C 10,8 °C 1,6 km/h (1 Bft)
16.08.2019 07:00 10,8 °C 94 % 1018,2 hPa 0,0 mm 0,0 km/h (0 Bft) S 169 ° 0 min 0,000 mm 0,0 UV-I 32 W/m² 9,9 °C 10,8 °C 0,0 km/h (0 Bft)
16.08.2019 07:01 10,8 °C 94 % 1018,2 hPa 0,0 mm 0,0 km/h (0 Bft) S 169 ° 0 min 0,000 mm 0,0 UV-I 32 W/m² 9,9 °C 10,8 °C 0,0 km/h (0 Bft)
16.08.2019 07:02 10,8 °C 94 % 1018,2 hPa 0,0 mm 0,0 km/h (0 Bft) S 169 ° 0 min 0,000 mm 0,0 UV-I 32 W/m² 9,9 °C 10,8 °C 0,0 km/h (0 Bft)
16.08.2019 07:03 10,8 °C 94 % 1018,2 hPa 0,0 mm 0,0 km/h (0 Bft) S 169 ° 0 min 0,000 mm 0,0 UV-I 35 W/m² 9,9 °C 10,8 °C 0,0 km/h (0 Bft)
16.08.2019 07:04 10,8 °C 94 % 1018,2 hPa 0,0 mm 0,0 km/h (0 Bft) S 169 ° 0 min 0,000 mm 0,0 UV-I 35 W/m² 9,9 °C 10,8 °C 0,0 km/h (0 Bft)
16.08.2019 07:05 10,8 °C 94 % 1018,2 hPa 0,0 mm 0,0 km/h (0 Bft) S 169 ° 0 min 0,000 mm 0,0 UV-I 35 W/m² 9,9 °C 10,8 °C 0,0 km/h (0 Bft)
16.08.2019 07:06 10,8 °C 94 % 1018,2 hPa 0,0 mm 0,0 km/h (0 Bft) S 169 ° 0 min 0,000 mm 0,0 UV-I 35 W/m² 9,9 °C 10,8 °C 0,0 km/h (0 Bft)
16.08.2019 07:07 10,8 °C 94 % 1018,2 hPa 0,0 mm 0,0 km/h (0 Bft) S 169 ° 0 min 0,000 mm 0,0 UV-I 39 W/m² 9,9 °C 10,8 °C 0,0 km/h (0 Bft)
16.08.2019 07:08 10,8 °C 94 % 1018,2 hPa 0,0 mm 0,0 km/h (0 Bft) S 169 ° 0 min 0,000 mm 0,0 UV-I 44 W/m² 9,9 °C 10,8 °C 0,0 km/h (0 Bft)
16.08.2019 07:09 10,9 °C 94 % 1018,2 hPa 0,0 mm 0,0 km/h (0 Bft) S 169 ° 0 min 0,000 mm 0,0 UV-I 49 W/m² 10,0 °C 10,9 °C 0,0 km/h (0 Bft)
16.08.2019 07:10 10,9 °C 94 % 1018,2 hPa 0,2 mm 0,0 km/h (0 Bft) S 169 ° 0 min 0,000 mm 0,0 UV-I 60 W/m² 10,0 °C 10,9 °C 0,0 km/h (0 Bft)
16.08.2019 07:11 10,9 °C 94 % 1018,2 hPa 0,0 mm 0,0 km/h (0 Bft) S 169 ° 0 min 0,000 mm 0,0 UV-I 63 W/m² 10,0 °C 10,9 °C 0,0 km/h (0 Bft)
16.08.2019 07:12 10,9 °C 94 % 1018,2 hPa 0,0 mm 0,0 km/h (0 Bft) S 169 ° 0 min 0,000 mm 0,0 UV-I 65 W/m² 10,0 °C 10,9 °C 0,0 km/h (0 Bft)
16.08.2019 07:13 10,9 °C 94 % 1018,2 hPa 0,0 mm 0,0 km/h (0 Bft) S 169 ° 0 min 0,000 mm 0,0 UV-I 67 W/m² 10,0 °C 10,9 °C 0,0 km/h (0 Bft)
16.08.2019 07:14 10,9 °C 94 % 1018,2 hPa 0,0 mm 0,0 km/h (0 Bft) S 169 ° 0 min 0,000 mm 0,0 UV-I 69 W/m² 10,0 °C 10,9 °C 0,0 km/h (0 Bft)
16.08.2019 07:15 11,0 °C 94 % 1018,1 hPa 0,0 mm 0,0 km/h (0 Bft) S 169 ° 0 min 0,000 mm 0,0 UV-I 65 W/m² 10,1 °C 11,0 °C 0,0 km/h (0 Bft)
16.08.2019 07:16 11,1 °C 95 % 1018,2 hPa 0,0 mm 0,0 km/h (0 Bft) S 169 ° 0 min 0,000 mm 0,0 UV-I 62 W/m² 10,3 °C 11,1 °C 0,0 km/h (0 Bft)
16.08.2019 07:17 11,1 °C 95 % 1018,2 hPa 0,0 mm 0,0 km/h (0 Bft) S 169 ° 0 min 0,000 mm 0,0 UV-I 60 W/m² 10,3 °C 11,1 °C 0,0 km/h (0 Bft)
16.08.2019 07:18 11,1 °C 95 % 1018,2 hPa 0,0 mm 0,0 km/h (0 Bft) S 169 ° 0 min 0,000 mm 0,0 UV-I 56 W/m² 10,3 °C 11,1 °C 0,0 km/h (0 Bft)
16.08.2019 07:19 11,2 °C 95 % 1018,2 hPa 0,0 mm 0,0 km/h (0 Bft) S 169 ° 0 min 0,000 mm 0,0 UV-I 54 W/m² 10,4 °C 11,2 °C 0,0 km/h (0 Bft)
16.08.2019 07:20 11,2 °C 94 % 1018,3 hPa 0,0 mm 0,0 km/h (0 Bft) S 169 ° 0 min 0,000 mm 0,0 UV-I 53 W/m² 10,3 °C 11,2 °C 0,0 km/h (0 Bft)
16.08.2019 07:21 11,2 °C 94 % 1018,3 hPa 0,0 mm 0,0 km/h (0 Bft) S 169 ° 0 min 0,000 mm 0,0 UV-I 49 W/m² 10,3 °C 11,2 °C 0,0 km/h (0 Bft)
16.08.2019 07:22 11,2 °C 94 % 1018,3 hPa 0,0 mm 0,0 km/h (0 Bft) S 169 ° 0 min 0,000 mm 0,0 UV-I 49 W/m² 10,3 °C 11,2 °C 0,0 km/h (0 Bft)
16.08.2019 07:23 11,2 °C 94 % 1018,3 hPa 0,0 mm 0,0 km/h (0 Bft) S 169 ° 0 min 0,000 mm 0,0 UV-I 49 W/m² 10,3 °C 11,2 °C 0,0 km/h (0 Bft)
16.08.2019 07:24 11,3 °C 94 % 1018,4 hPa 0,0 mm 0,0 km/h (0 Bft) S 169 ° 0 min 0,000 mm 0,0 UV-I 53 W/m² 10,4 °C 11,3 °C 0,0 km/h (0 Bft)
16.08.2019 07:25 11,3 °C 94 % 1018,3 hPa 0,0 mm 0,0 km/h (0 Bft) S 169 ° 0 min 0,000 mm 0,0 UV-I 54 W/m² 10,4 °C 11,3 °C 0,0 km/h (0 Bft)
16.08.2019 07:26 11,3 °C 94 % 1018,4 hPa 0,0 mm 0,0 km/h (0 Bft) S 169 ° 0 min 0,000 mm 0,0 UV-I 54 W/m² 10,4 °C 11,3 °C 0,0 km/h (0 Bft)
16.08.2019 07:27 11,3 °C 94 % 1018,4 hPa 0,0 mm 0,0 km/h (0 Bft) S 169 ° 0 min 0,000 mm 0,0 UV-I 58 W/m² 10,4 °C 11,3 °C 0,0 km/h (0 Bft)
16.08.2019 07:28 11,3 °C 94 % 1018,4 hPa 0,0 mm 0,0 km/h (0 Bft) S 169 ° 0 min 0,000 mm 0,0 UV-I 62 W/m² 10,4 °C 11,3 °C 0,0 km/h (0 Bft)
16.08.2019 07:29 11,4 °C 95 % 1018,3 hPa 0,0 mm 0,0 km/h (0 Bft) S 169 ° 0 min 0,000 mm 0,0 UV-I 65 W/m² 10,6 °C 11,4 °C 0,0 km/h (0 Bft)
16.08.2019 07:30 11,4 °C 95 % 1018,3 hPa 0,0 mm 0,0 km/h (0 Bft) S 169 ° 0 min 0,000 mm 0,0 UV-I 70 W/m² 10,6 °C 11,4 °C 0,0 km/h (0 Bft)
16.08.2019 07:31 11,4 °C 95 % 1018,4 hPa 0,0 mm 0,0 km/h (0 Bft) S 169 ° 0 min 0,000 mm 0,0 UV-I 77 W/m² 10,6 °C 11,4 °C 0,0 km/h (0 Bft)
16.08.2019 07:32 11,4 °C 95 % 1018,4 hPa 0,0 mm 0,0 km/h (0 Bft) S 169 ° 0 min 0,000 mm 0,0 UV-I 84 W/m² 10,6 °C 11,4 °C 0,0 km/h (0 Bft)
16.08.2019 07:33 11,4 °C 95 % 1018,3 hPa 0,0 mm 0,0 km/h (0 Bft) S 169 ° 0 min 0,000 mm 0,0 UV-I 102 W/m² 10,6 °C 11,4 °C 0,0 km/h (0 Bft)
16.08.2019 07:34 11,4 °C 94 % 1018,3 hPa 0,0 mm 0,0 km/h (0 Bft) S 171 ° 0 min 0,000 mm 0,0 UV-I 107 W/m² 10,5 °C 11,4 °C 0,0 km/h (0 Bft)
16.08.2019 07:35 11,5 °C 95 % 1018,4 hPa 0,0 mm 0,0 km/h (0 Bft) S 171 ° 0 min 0,000 mm 0,0 UV-I 113 W/m² 10,7 °C 11,5 °C 0,0 km/h (0 Bft)
16.08.2019 07:36 11,6 °C 94 % 1018,3 hPa 0,0 mm 0,0 km/h (0 Bft) S 171 ° 0 min 0,000 mm 0,0 UV-I 118 W/m² 10,7 °C 11,6 °C 0,0 km/h (0 Bft)
16.08.2019 07:37 11,6 °C 94 % 1018,3 hPa 0,0 mm 0,0 km/h (0 Bft) S 171 ° 0 min 0,000 mm 0,0 UV-I 109 W/m² 10,7 °C 11,6 °C 0,0 km/h (0 Bft)
16.08.2019 07:38 11,7 °C 94 % 1018,3 hPa 0,0 mm 0,0 km/h (0 Bft) S 171 ° 0 min 0,000 mm 0,0 UV-I 109 W/m² 10,8 °C 11,7 °C 0,0 km/h (0 Bft)
16.08.2019 07:39 11,8 °C 95 % 1018,2 hPa 0,0 mm 0,0 km/h (0 Bft) S 171 ° 0 min 0,000 mm 0,5 UV-I 114 W/m² 11,0 °C 11,8 °C 0,0 km/h (0 Bft)
16.08.2019 07:40 11,8 °C 95 % 1018,2 hPa 0,0 mm 0,0 km/h (0 Bft) S 171 ° 0 min 0,000 mm 0,5 UV-I 105 W/m² 11,0 °C 11,8 °C 0,0 km/h (0 Bft)
16.08.2019 07:41 11,8 °C 95 % 1018,3 hPa 0,0 mm 0,0 km/h (0 Bft) S 171 ° 0 min 0,000 mm 0,5 UV-I 98 W/m² 11,0 °C 11,8 °C 0,0 km/h (0 Bft)
16.08.2019 07:42 11,9 °C 94 % 1018,3 hPa 0,0 mm 0,0 km/h (0 Bft) S 171 ° 0 min 0,000 mm 0,5 UV-I 91 W/m² 11,0 °C 11,9 °C 0,0 km/h (0 Bft)
16.08.2019 07:43 11,9 °C 94 % 1018,3 hPa 0,2 mm 0,0 km/h (0 Bft) S 171 ° 0 min 0,000 mm 0,5 UV-I 86 W/m² 11,0 °C 11,9 °C 0,0 km/h (0 Bft)
16.08.2019 07:44 11,9 °C 94 % 1018,3 hPa 0,0 mm 0,0 km/h (0 Bft) S 171 ° 0 min 0,000 mm 0,5 UV-I 83 W/m² 11,0 °C 11,9 °C 0,0 km/h (0 Bft)
16.08.2019 07:45 11,9 °C 94 % 1018,3 hPa 0,0 mm 0,0 km/h (0 Bft) S 171 ° 0 min 0,000 mm 0,5 UV-I 98 W/m² 11,0 °C 11,9 °C 0,0 km/h (0 Bft)
16.08.2019 07:46 12,0 °C 94 % 1018,3 hPa 0,0 mm 0,0 km/h (0 Bft) S 171 ° 0 min 0,000 mm 0,6 UV-I 146 W/m² 11,1 °C 12,0 °C 0,0 km/h (0 Bft)
16.08.2019 07:47 12,0 °C 94 % 1018,3 hPa 0,0 mm 0,0 km/h (0 Bft) S 171 ° 0 min 0,000 mm 0,6 UV-I 132 W/m² 11,1 °C 12,0 °C 0,0 km/h (0 Bft)
16.08.2019 07:48 12,0 °C 94 % 1018,3 hPa 0,0 mm 0,0 km/h (0 Bft) S 171 ° 0 min 0,000 mm 0,6 UV-I 88 W/m² 11,1 °C 12,0 °C 0,0 km/h (0 Bft)
16.08.2019 07:49 12,1 °C 94 % 1018,3 hPa 0,0 mm 0,0 km/h (0 Bft) S 171 ° 0 min 0,000 mm 0,6 UV-I 70 W/m² 11,2 °C 12,1 °C 0,0 km/h (0 Bft)
16.08.2019 07:50 12,1 °C 94 % 1018,3 hPa 0,0 mm 0,0 km/h (0 Bft) S 171 ° 0 min 0,000 mm 0,6 UV-I 100 W/m² 11,2 °C 12,1 °C 0,0 km/h (0 Bft)
16.08.2019 07:51 12,1 °C 94 % 1018,3 hPa 0,0 mm 0,0 km/h (0 Bft) S 171 ° 0 min 0,000 mm 0,6 UV-I 70 W/m² 11,2 °C 12,1 °C 0,0 km/h (0 Bft)
16.08.2019 07:52 12,1 °C 94 % 1018,2 hPa 0,0 mm 0,0 km/h (0 Bft) S 171 ° 0 min 0,000 mm 0,7 UV-I 63 W/m² 11,2 °C 12,1 °C 0,0 km/h (0 Bft)
16.08.2019 07:53 12,1 °C 94 % 1018,3 hPa 0,0 mm 0,0 km/h (0 Bft) S 171 ° 0 min 0,000 mm 0,7 UV-I 105 W/m² 11,2 °C 12,1 °C 0,0 km/h (0 Bft)
16.08.2019 07:54 12,1 °C 94 % 1018,2 hPa 0,0 mm 0,0 km/h (0 Bft) S 171 ° 0 min 0,000 mm 0,8 UV-I 193 W/m² 11,2 °C 12,1 °C 0,0 km/h (0 Bft)
16.08.2019 07:55 12,1 °C 94 % 1018,2 hPa 0,0 mm 0,0 km/h (0 Bft) S 171 ° 0 min 0,000 mm 0,8 UV-I 197 W/m² 11,2 °C 12,1 °C 0,0 km/h (0 Bft)
16.08.2019 07:56 12,1 °C 94 % 1018,2 hPa 0,0 mm 0,0 km/h (0 Bft) S 171 ° 0 min 0,000 mm 0,8 UV-I 202 W/m² 11,2 °C 12,1 °C 0,0 km/h (0 Bft)
16.08.2019 07:57 12,1 °C 94 % 1018,2 hPa 0,0 mm 0,0 km/h (0 Bft) S 171 ° 0 min 0,000 mm 0,8 UV-I 220 W/m² 11,2 °C 12,1 °C 0,0 km/h (0 Bft)
16.08.2019 07:58 12,1 °C 94 % 1018,2 hPa 0,0 mm 0,0 km/h (0 Bft) S 171 ° 0 min 0,000 mm 0,9 UV-I 232 W/m² 11,2 °C 12,1 °C 0,0 km/h (0 Bft)
16.08.2019 07:59 12,2 °C 94 % 1018,2 hPa 0,0 mm 0,0 km/h (0 Bft) S 171 ° 0 min 0,000 mm 0,9 UV-I 246 W/m² 11,3 °C 12,2 °C 0,0 km/h (0 Bft)
16.08.2019 08:00 12,3 °C 94 % 1018,2 hPa 0,0 mm 0,0 km/h (0 Bft) S 171 ° 0 min 0,051 mm 0,9 UV-I 258 W/m² 11,4 °C 12,3 °C 0,0 km/h (0 Bft)
16.08.2019 08:01 12,3 °C 94 % 1018,2 hPa 0,0 mm 0,0 km/h (0 Bft) S 172 ° 0 min 0,000 mm 0,9 UV-I 271 W/m² 11,4 °C 12,3 °C 0,0 km/h (0 Bft)
16.08.2019 08:02 12,3 °C 94 % 1018,2 hPa 0,0 mm 0,0 km/h (0 Bft) S 172 ° 0 min 0,000 mm 0,9 UV-I 290 W/m² 11,4 °C 12,3 °C 0,0 km/h (0 Bft)
16.08.2019 08:03 12,4 °C 94 % 1018,2 hPa 0,0 mm 0,0 km/h (0 Bft) S 172 ° 0 min 0,000 mm 0,9 UV-I 297 W/m² 11,5 °C 12,4 °C 0,0 km/h (0 Bft)
16.08.2019 08:04 12,4 °C 94 % 1018,3 hPa 0,0 mm 0,0 km/h (0 Bft) S 172 ° 0 min 0,000 mm 0,9 UV-I 304 W/m² 11,5 °C 12,4 °C 0,0 km/h (0 Bft)
16.08.2019 08:05 12,7 °C 94 % 1018,2 hPa 0,0 mm 0,7 km/h (0 Bft) S 171 ° 0 min 0,000 mm 1,0 UV-I 309 W/m² 11,8 °C 12,7 °C 3,2 km/h (1 Bft)
16.08.2019 08:06 12,9 °C 93 % 1018,2 hPa 0,0 mm 0,0 km/h (0 Bft) S 171 ° 0 min 0,000 mm 1,0 UV-I 316 W/m² 11,8 °C 12,9 °C 0,0 km/h (0 Bft)
16.08.2019 08:07 13,2 °C 92 % 1018,3 hPa 0,0 mm 1,9 km/h (1 Bft) S 179 ° 0 min 0,000 mm 1,0 UV-I 309 W/m² 11,9 °C 13,2 °C 4,8 km/h (1 Bft)
16.08.2019 08:08 13,4 °C 91 % 1018,2 hPa 0,0 mm 3,3 km/h (1 Bft) S 188 ° 0 min 0,000 mm 1,0 UV-I 334 W/m² 12,0 °C 13,4 °C 4,8 km/h (1 Bft)
16.08.2019 08:09 13,6 °C 91 % 1018,3 hPa 0,0 mm 0,1 km/h (0 Bft) S-SW 211 ° 0 min 0,000 mm 1,0 UV-I 341 W/m² 12,2 °C 13,6 °C 3,2 km/h (1 Bft)
16.08.2019 08:10 13,7 °C 90 % 1018,3 hPa 0,0 mm 1,7 km/h (1 Bft) SW 227 ° 0 min 0,000 mm 1,0 UV-I 343 W/m² 12,1 °C 13,7 °C 4,8 km/h (1 Bft)
16.08.2019 08:11 13,8 °C 89 % 1018,2 hPa 0,0 mm 1,0 km/h (0 Bft) W 266 ° 0 min 0,000 mm 0,9 UV-I 343 W/m² 12,0 °C 13,8 °C 3,2 km/h (1 Bft)
16.08.2019 08:12 13,9 °C 88 % 1018,3 hPa 0,0 mm 1,1 km/h (1 Bft) W 266 ° 0 min 0,000 mm 0,8 UV-I 174 W/m² 11,9 °C 13,9 °C 3,2 km/h (1 Bft)
16.08.2019 08:13 13,9 °C 88 % 1018,3 hPa 0,0 mm 1,1 km/h (1 Bft) S-SW 194 ° 0 min 0,000 mm 0,8 UV-I 171 W/m² 11,9 °C 13,9 °C 4,8 km/h (1 Bft)
16.08.2019 08:14 14,0 °C 88 % 1018,3 hPa 0,0 mm 0,3 km/h (0 Bft) W-SW 248 ° 0 min 0,000 mm 0,8 UV-I 149 W/m² 12,0 °C 14,0 °C 3,2 km/h (1 Bft)
16.08.2019 08:15 14,0 °C 88 % 1018,2 hPa 0,0 mm 3,6 km/h (1 Bft) S-SW 199 ° 0 min 0,000 mm 0,8 UV-I 141 W/m² 12,0 °C 14,0 °C 4,8 km/h (1 Bft)
16.08.2019 08:16 14,0 °C 87 % 1018,2 hPa 0,0 mm 0,6 km/h (0 Bft) S-SW 200 ° 0 min 0,000 mm 0,8 UV-I 135 W/m² 11,9 °C 14,0 °C 1,6 km/h (1 Bft)
16.08.2019 08:17 13,9 °C 88 % 1018,2 hPa 0,0 mm 0,0 km/h (0 Bft) S-SW 200 ° 0 min 0,000 mm 0,8 UV-I 135 W/m² 11,9 °C 13,9 °C 0,0 km/h (0 Bft)
16.08.2019 08:18 13,9 °C 88 % 1018,2 hPa 0,0 mm 0,0 km/h (0 Bft) S-SW 200 ° 0 min 0,000 mm 0,8 UV-I 139 W/m² 11,9 °C 13,9 °C 0,0 km/h (0 Bft)
16.08.2019 08:19 13,8 °C 87 % 1018,2 hPa 0,0 mm 1,0 km/h (0 Bft) SW 226 ° 0 min 0,000 mm 0,8 UV-I 142 W/m² 11,7 °C 13,8 °C 4,8 km/h (1 Bft)
16.08.2019 08:20 13,7 °C 88 % 1018,2 hPa 0,0 mm 0,0 km/h (0 Bft) SW 226 ° 0 min 0,000 mm 0,8 UV-I 148 W/m² 11,7 °C 13,7 °C 0,0 km/h (0 Bft)
16.08.2019 08:21 13,6 °C 89 % 1018,2 hPa 0,0 mm 0,0 km/h (0 Bft) SW 226 ° 0 min 0,000 mm 0,8 UV-I 146 W/m² 11,8 °C 13,6 °C 0,0 km/h (0 Bft)
16.08.2019 08:22 13,4 °C 90 % 1018,2 hPa 0,0 mm 1,2 km/h (1 Bft) W-SW 253 ° 0 min 0,000 mm 0,7 UV-I 142 W/m² 11,8 °C 13,4 °C 4,8 km/h (1 Bft)
16.08.2019 08:23 13,4 °C 90 % 1018,2 hPa 0,0 mm 0,0 km/h (0 Bft) W-SW 252 ° 0 min 0,000 mm 0,7 UV-I 134 W/m² 11,8 °C 13,4 °C 0,0 km/h (0 Bft)
16.08.2019 08:24 13,4 °C 91 % 1018,2 hPa 0,2 mm 0,8 km/h (0 Bft) O-SO 107 ° 0 min 0,000 mm 0,7 UV-I 127 W/m² 12,0 °C 13,4 °C 3,2 km/h (1 Bft)
16.08.2019 08:25 13,3 °C 91 % 1018,1 hPa 0,0 mm 0,0 km/h (0 Bft) O-SO 107 ° 0 min 0,000 mm 0,7 UV-I 120 W/m² 11,9 °C 13,3 °C 0,0 km/h (0 Bft)
16.08.2019 08:26 13,2 °C 91 % 1018,1 hPa 0,0 mm 0,0 km/h (0 Bft) O-SO 107 ° 0 min 0,000 mm 0,7 UV-I 120 W/m² 11,8 °C 13,2 °C 0,0 km/h (0 Bft)
16.08.2019 08:27 13,1 °C 91 % 1018,1 hPa 0,0 mm 0,9 km/h (0 Bft) O 101 ° 0 min 0,000 mm 0,7 UV-I 121 W/m² 11,7 °C 13,1 °C 3,2 km/h (1 Bft)
16.08.2019 08:28 13,1 °C 91 % 1018,1 hPa 0,0 mm 0,9 km/h (0 Bft) O 101 ° 0 min 0,000 mm 0,7 UV-I 120 W/m² 11,7 °C 13,1 °C 3,2 km/h (1 Bft)
16.08.2019 08:29 13,2 °C 91 % 1018,2 hPa 0,0 mm 1,7 km/h (1 Bft) O-SO 123 ° 0 min 0,000 mm 0,7 UV-I 118 W/m² 11,8 °C 13,2 °C 4,8 km/h (1 Bft)
16.08.2019 08:30 13,2 °C 90 % 1018,2 hPa 0,0 mm 1,5 km/h (1 Bft) S-SW 195 ° 0 min 0,000 mm 0,7 UV-I 116 W/m² 11,6 °C 13,2 °C 8,0 km/h (2 Bft)
16.08.2019 08:31 13,2 °C 90 % 1018,2 hPa 0,0 mm 0,3 km/h (0 Bft) S-SW 195 ° 0 min 0,000 mm 0,7 UV-I 114 W/m² 11,6 °C 13,2 °C 1,6 km/h (1 Bft)
16.08.2019 08:32 13,3 °C 89 % 1018,2 hPa 0,0 mm 0,3 km/h (0 Bft) S-SW 194 ° 0 min 0,000 mm 0,7 UV-I 118 W/m² 11,5 °C 13,3 °C 1,6 km/h (1 Bft)
16.08.2019 08:33 13,3 °C 89 % 1018,2 hPa 0,0 mm 0,0 km/h (0 Bft) S-SW 194 ° 0 min 0,000 mm 0,7 UV-I 121 W/m² 11,5 °C 13,3 °C 0,0 km/h (0 Bft)
16.08.2019 08:34 13,4 °C 89 % 1018,2 hPa 0,0 mm 1,2 km/h (1 Bft) S-SW 193 ° 0 min 0,000 mm 0,7 UV-I 123 W/m² 11,6 °C 13,4 °C 3,2 km/h (1 Bft)
16.08.2019 08:35 13,4 °C 90 % 1018,2 hPa 0,0 mm 0,0 km/h (0 Bft) S-SW 193 ° 0 min 0,000 mm 0,7 UV-I 125 W/m² 11,8 °C 13,4 °C 0,0 km/h (0 Bft)
16.08.2019 08:36 13,3 °C 91 % 1018,2 hPa 0,0 mm 0,0 km/h (0 Bft) S-SW 193 ° 0 min 0,000 mm 0,8 UV-I 127 W/m² 11,9 °C 13,3 °C 0,0 km/h (0 Bft)
16.08.2019 08:37 13,3 °C 91 % 1018,2 hPa 0,0 mm 0,0 km/h (0 Bft) S-SW 193 ° 0 min 0,000 mm 0,8 UV-I 128 W/m² 11,9 °C 13,3 °C 0,0 km/h (0 Bft)
16.08.2019 08:38 13,2 °C 91 % 1018,2 hPa 0,0 mm 0,0 km/h (0 Bft) S-SW 193 ° 0 min 0,000 mm 0,8 UV-I 135 W/m² 11,8 °C 13,2 °C 0,0 km/h (0 Bft)
16.08.2019 08:39 13,2 °C 91 % 1018,2 hPa 0,0 mm 0,0 km/h (0 Bft) S-SW 193 ° 0 min 0,000 mm 0,9 UV-I 141 W/m² 11,8 °C 13,2 °C 0,0 km/h (0 Bft)
16.08.2019 08:40 13,2 °C 91 % 1018,2 hPa 0,0 mm 0,0 km/h (0 Bft) S-SW 193 ° 0 min 0,000 mm 0,9 UV-I 146 W/m² 11,8 °C 13,2 °C 0,0 km/h (0 Bft)
16.08.2019 08:41 13,1 °C 92 % 1018,2 hPa 0,0 mm 0,0 km/h (0 Bft) S-SW 193 ° 0 min 0,000 mm 0,9 UV-I 149 W/m² 11,8 °C 13,1 °C 0,0 km/h (0 Bft)
16.08.2019 08:42 13,1 °C 92 % 1018,2 hPa 0,0 mm 0,0 km/h (0 Bft) S-SW 193 ° 0 min 0,000 mm 0,9 UV-I 149 W/m² 11,8 °C 13,1 °C 0,0 km/h (0 Bft)
16.08.2019 08:43 13,1 °C 92 % 1018,2 hPa 0,0 mm 0,0 km/h (0 Bft) S-SW 193 ° 0 min 0,000 mm 1,0 UV-I 151 W/m² 11,8 °C 13,1 °C 0,0 km/h (0 Bft)
16.08.2019 08:44 13,2 °C 92 % 1018,2 hPa 0,0 mm 0,0 km/h (0 Bft) S-SW 193 ° 0 min 0,000 mm 1,0 UV-I 153 W/m² 11,9 °C 13,2 °C 0,0 km/h (0 Bft)
16.08.2019 08:45 13,2 °C 92 % 1018,3 hPa 0,0 mm 0,0 km/h (0 Bft) S-SW 193 ° 0 min 0,000 mm 1,0 UV-I 155 W/m² 11,9 °C 13,2 °C 0,0 km/h (0 Bft)
16.08.2019 08:46 13,2 °C 92 % 1018,2 hPa 0,0 mm 0,0 km/h (0 Bft) S-SW 193 ° 0 min 0,000 mm 1,1 UV-I 153 W/m² 11,9 °C 13,2 °C 0,0 km/h (0 Bft)
16.08.2019 08:47 13,3 °C 92 % 1018,2 hPa 0,0 mm 0,0 km/h (0 Bft) S-SW 193 ° 0 min 0,000 mm 1,1 UV-I 148 W/m² 12,0 °C 13,3 °C 0,0 km/h (0 Bft)
16.08.2019 08:48 13,2 °C 91 % 1018,2 hPa 0,0 mm 0,0 km/h (0 Bft) S-SW 193 ° 0 min 0,000 mm 1,1 UV-I 142 W/m² 11,8 °C 13,2 °C 0,0 km/h (0 Bft)
16.08.2019 08:49 13,3 °C 91 % 1018,2 hPa 0,0 mm 0,0 km/h (0 Bft) S-SW 193 ° 0 min 0,000 mm 1,1 UV-I 125 W/m² 11,9 °C 13,3 °C 0,0 km/h (0 Bft)
16.08.2019 08:50 13,3 °C 91 % 1018,2 hPa 0,0 mm 0,0 km/h (0 Bft) S-SW 193 ° 0 min 0,000 mm 1,1 UV-I 120 W/m² 11,9 °C 13,3 °C 0,0 km/h (0 Bft)
16.08.2019 08:51 13,3 °C 91 % 1018,2 hPa 0,0 mm 0,0 km/h (0 Bft) S-SW 193 ° 0 min 0,000 mm 1,2 UV-I 116 W/m² 11,9 °C 13,3 °C 0,0 km/h (0 Bft)
16.08.2019 08:52 13,3 °C 91 % 1018,2 hPa 0,0 mm 0,0 km/h (0 Bft) S-SW 193 ° 0 min 0,000 mm 1,2 UV-I 123 W/m² 11,9 °C 13,3 °C 0,0 km/h (0 Bft)
16.08.2019 08:53 13,3 °C 92 % 1018,2 hPa 0,0 mm 0,0 km/h (0 Bft) S-SW 193 ° 0 min 0,000 mm 1,2 UV-I 116 W/m² 12,0 °C 13,3 °C 0,0 km/h (0 Bft)
16.08.2019 08:54 13,3 °C 91 % 1018,2 hPa 0,0 mm 0,0 km/h (0 Bft) S-SW 193 ° 0 min 0,000 mm 1,2 UV-I 123 W/m² 11,9 °C 13,3 °C 0,0 km/h (0 Bft)
16.08.2019 08:55 13,2 °C 91 % 1018,2 hPa 0,0 mm 0,0 km/h (0 Bft) S-SW 193 ° 0 min 0,000 mm 1,3 UV-I 125 W/m² 11,8 °C 13,2 °C 0,0 km/h (0 Bft)
16.08.2019 08:56 13,2 °C 91 % 1018,2 hPa 0,0 mm 0,0 km/h (0 Bft) S-SW 193 ° 0 min 0,000 mm 1,8 UV-I 125 W/m² 11,8 °C 13,2 °C 0,0 km/h (0 Bft)
16.08.2019 08:57 13,2 °C 91 % 1018,2 hPa 0,0 mm 0,0 km/h (0 Bft) S-SW 193 ° 0 min 0,000 mm 1,9 UV-I 125 W/m² 11,8 °C 13,2 °C 0,0 km/h (0 Bft)
16.08.2019 08:58 13,3 °C 92 % 1018,2 hPa 0,0 mm 0,0 km/h (0 Bft) S-SW 193 ° 0 min 0,000 mm 1,9 UV-I 429 W/m² 12,0 °C 13,3 °C 0,0 km/h (0 Bft)
16.08.2019 08:59 13,3 °C 92 % 1018,2 hPa 0,0 mm 0,0 km/h (0 Bft) S-SW 193 ° 0 min 0,000 mm 1,9 UV-I 429 W/m² 12,0 °C 13,3 °C 0,0 km/h (0 Bft)
16.08.2019 09:00 13,5 °C 92 % 1018,2 hPa 0,0 mm 0,0 km/h (0 Bft) S-SW 193 ° 0 min 0,101 mm 1,9 UV-I 431 W/m² 12,2 °C 13,5 °C 0,0 km/h (0 Bft)
16.08.2019 09:01 13,6 °C 92 % 1018,2 hPa 0,0 mm 0,0 km/h (0 Bft) S-SW 193 ° 0 min 0,000 mm 1,9 UV-I 436 W/m² 12,3 °C 13,6 °C 0,0 km/h (0 Bft)
16.08.2019 09:02 13,7 °C 92 % 1018,1 hPa 0,0 mm 0,0 km/h (0 Bft) S-SW 193 ° 0 min 0,000 mm 2,0 UV-I 436 W/m² 12,4 °C 13,7 °C 0,0 km/h (0 Bft)
16.08.2019 09:03 13,8 °C 92 % 1018,2 hPa 0,0 mm 0,0 km/h (0 Bft) S-SW 193 ° 0 min 0,000 mm 2,0 UV-I 434 W/m² 12,5 °C 13,8 °C 0,0 km/h (0 Bft)
16.08.2019 09:04 13,9 °C 90 % 1018,2 hPa 0,0 mm 0,4 km/h (0 Bft) S 190 ° 0 min 0,000 mm 2,0 UV-I 431 W/m² 12,3 °C 13,9 °C 4,8 km/h (1 Bft)
16.08.2019 09:05 14,0 °C 90 % 1018,2 hPa 0,0 mm 2,3 km/h (1 Bft) S 190 ° 0 min 0,000 mm 1,9 UV-I 425 W/m² 12,4 °C 14,0 °C 4,8 km/h (1 Bft)
16.08.2019 09:06 14,1 °C 90 % 1018,1 hPa 0,0 mm 0,0 km/h (0 Bft) S 190 ° 0 min 0,000 mm 1,9 UV-I 411 W/m² 12,5 °C 14,1 °C 0,0 km/h (0 Bft)
16.08.2019 09:07 14,1 °C 89 % 1018,2 hPa 0,0 mm 0,0 km/h (0 Bft) S 190 ° 0 min 0,000 mm 1,8 UV-I 418 W/m² 12,3 °C 14,1 °C 0,0 km/h (0 Bft)
16.08.2019 09:08 13,9 °C 89 % 1018,1 hPa 0,0 mm 0,0 km/h (0 Bft) S 190 ° 0 min 0,000 mm 2,1 UV-I 448 W/m² 12,1 °C 13,9 °C 0,0 km/h (0 Bft)
16.08.2019 09:09 14,0 °C 90 % 1018,2 hPa 0,0 mm 0,0 km/h (0 Bft) S 190 ° 0 min 0,000 mm 2,1 UV-I 441 W/m² 12,4 °C 14,0 °C 0,0 km/h (0 Bft)
16.08.2019 09:10 14,0 °C 90 % 1018,2 hPa 0,0 mm 0,0 km/h (0 Bft) S 190 ° 0 min 0,000 mm 2,1 UV-I 441 W/m² 12,4 °C 14,0 °C 0,0 km/h (0 Bft)
16.08.2019 09:11 14,1 °C 87 % 1018,1 hPa 0,0 mm 0,0 km/h (0 Bft) S 190 ° 0 min 0,000 mm 2,1 UV-I 441 W/m² 12,0 °C 14,1 °C 0,0 km/h (0 Bft)
16.08.2019 09:12 14,2 °C 86 % 1018,2 hPa 0,0 mm 0,0 km/h (0 Bft) S 190 ° 0 min 0,000 mm 2,1 UV-I 443 W/m² 11,9 °C 14,2 °C 0,0 km/h (0 Bft)
16.08.2019 09:13 14,3 °C 85 % 1018,2 hPa 0,0 mm 0,8 km/h (0 Bft) S-SW 207 ° 0 min 0,000 mm 2,2 UV-I 443 W/m² 11,8 °C 14,3 °C 3,2 km/h (1 Bft)
16.08.2019 09:14 14,5 °C 86 % 1018,2 hPa 0,0 mm 2,3 km/h (1 Bft) W 264 ° 0 min 0,000 mm 2,2 UV-I 443 W/m² 12,2 °C 14,5 °C 4,8 km/h (1 Bft)
16.08.2019 09:15 14,6 °C 87 % 1018,2 hPa 0,0 mm 3,8 km/h (1 Bft) W 264 ° 0 min 0,000 mm 2,2 UV-I 443 W/m² 12,5 °C 14,6 °C 6,4 km/h (2 Bft)
16.08.2019 09:16 14,7 °C 85 % 1018,1 hPa 0,0 mm 3,8 km/h (1 Bft) W 265 ° 0 min 0,000 mm 2,2 UV-I 445 W/m² 12,2 °C 14,7 °C 6,4 km/h (2 Bft)
16.08.2019 09:17 14,8 °C 84 % 1018,1 hPa 0,0 mm 3,7 km/h (1 Bft) W 265 ° 0 min 0,000 mm 2,2 UV-I 445 W/m² 12,1 °C 14,8 °C 6,4 km/h (2 Bft)
16.08.2019 09:18 14,9 °C 83 % 1018,1 hPa 0,0 mm 2,7 km/h (1 Bft) W 265 ° 0 min 0,000 mm 2,2 UV-I 446 W/m² 12,0 °C 14,9 °C 4,8 km/h (1 Bft)
16.08.2019 09:19 15,0 °C 82 % 1018,0 hPa 0,0 mm 0,1 km/h (0 Bft) W 265 ° 0 min 0,000 mm 2,3 UV-I 450 W/m² 12,0 °C 15,0 °C 1,6 km/h (1 Bft)
16.08.2019 09:20 15,0 °C 82 % 1018,1 hPa 0,0 mm 1,0 km/h (0 Bft) W 267 ° 0 min 0,000 mm 2,3 UV-I 454 W/m² 12,0 °C 15,0 °C 3,2 km/h (1 Bft)
16.08.2019 09:21 14,8 °C 84 % 1018,1 hPa 0,0 mm 0,1 km/h (0 Bft) W 265 ° 0 min 0,000 mm 2,3 UV-I 455 W/m² 12,1 °C 14,8 °C 1,6 km/h (1 Bft)
16.08.2019 09:22 14,8 °C 84 % 1018,0 hPa 0,0 mm 1,4 km/h (1 Bft) W 265 ° 0 min 0,000 mm 2,3 UV-I 459 W/m² 12,1 °C 14,8 °C 3,2 km/h (1 Bft)
16.08.2019 09:23 14,7 °C 82 % 1018,0 hPa 0,0 mm 2,8 km/h (1 Bft) S 180 ° 0 min 0,000 mm 2,4 UV-I 462 W/m² 11,7 °C 14,7 °C 4,8 km/h (1 Bft)
16.08.2019 09:24 14,7 °C 82 % 1018,0 hPa 0,0 mm 4,4 km/h (1 Bft) S 181 ° 0 min 0,000 mm 2,4 UV-I 468 W/m² 11,7 °C 14,7 °C 6,4 km/h (2 Bft)
16.08.2019 09:25 14,7 °C 81 % 1018,0 hPa 0,0 mm 3,7 km/h (1 Bft) S 181 ° 0 min 0,000 mm 2,4 UV-I 471 W/m² 11,5 °C 14,7 °C 6,4 km/h (2 Bft)
16.08.2019 09:26 14,8 °C 82 % 1018,0 hPa 0,0 mm 2,6 km/h (1 Bft) S 182 ° 0 min 0,000 mm 2,4 UV-I 473 W/m² 11,8 °C 14,8 °C 4,8 km/h (1 Bft)
16.08.2019 09:27 14,9 °C 83 % 1018,0 hPa 0,0 mm 0,0 km/h (0 Bft) S 182 ° 0 min 0,000 mm 2,4 UV-I 475 W/m² 12,0 °C 14,9 °C 0,0 km/h (0 Bft)
16.08.2019 09:28 14,8 °C 85 % 1018,0 hPa 0,0 mm 0,0 km/h (0 Bft) S 182 ° 0 min 0,000 mm 2,5 UV-I 476 W/m² 12,3 °C 14,8 °C 0,0 km/h (0 Bft)
16.08.2019 09:29 14,7 °C 84 % 1018,0 hPa 0,0 mm 0,0 km/h (0 Bft) S 182 ° 0 min 0,000 mm 2,5 UV-I 480 W/m² 12,0 °C 14,7 °C 0,0 km/h (0 Bft)
16.08.2019 09:30 14,7 °C 85 % 1018,0 hPa 0,0 mm 0,0 km/h (0 Bft) S 182 ° 0 min 0,000 mm 2,5 UV-I 496 W/m² 12,2 °C 14,7 °C 0,0 km/h (0 Bft)
16.08.2019 09:31 14,4 °C 84 % 1018,0 hPa 0,0 mm 0,0 km/h (0 Bft) S 182 ° 0 min 0,000 mm 2,5 UV-I 489 W/m² 11,7 °C 14,4 °C 0,0 km/h (0 Bft)
16.08.2019 09:32 14,4 °C 85 % 1018,0 hPa 0,0 mm 0,0 km/h (0 Bft) S 182 ° 0 min 0,000 mm 2,6 UV-I 490 W/m² 11,9 °C 14,4 °C 0,0 km/h (0 Bft)
16.08.2019 09:33 14,6 °C 88 % 1018,0 hPa 0,0 mm 0,0 km/h (0 Bft) S 182 ° 0 min 0,000 mm 2,6 UV-I 492 W/m² 12,6 °C 14,6 °C 0,0 km/h (0 Bft)
16.08.2019 09:34 14,6 °C 88 % 1018,0 hPa 0,0 mm 0,0 km/h (0 Bft) S 182 ° 0 min 0,000 mm 2,6 UV-I 494 W/m² 12,6 °C 14,6 °C 0,0 km/h (0 Bft)
16.08.2019 09:35 14,7 °C 88 % 1018,0 hPa 0,0 mm 0,5 km/h (0 Bft) S 182 ° 0 min 0,000 mm 2,7 UV-I 497 W/m² 12,7 °C 14,7 °C 3,2 km/h (1 Bft)
16.08.2019 09:36 14,8 °C 88 % 1018,0 hPa 0,0 mm 2,9 km/h (1 Bft) W-SW 246 ° 0 min 0,000 mm 2,7 UV-I 503 W/m² 12,8 °C 14,8 °C 4,8 km/h (1 Bft)
16.08.2019 09:37 14,8 °C 85 % 1018,0 hPa 0,0 mm 0,0 km/h (0 Bft) SW 217 ° 0 min 0,000 mm 2,8 UV-I 504 W/m² 12,3 °C 14,8 °C 0,0 km/h (0 Bft)
16.08.2019 09:38 14,9 °C 83 % 1018,0 hPa 0,0 mm 3,4 km/h (1 Bft) S 186 ° 0 min 0,000 mm 2,8 UV-I 506 W/m² 12,0 °C 14,9 °C 6,4 km/h (2 Bft)
16.08.2019 09:39 15,0 °C 80 % 1018,0 hPa 0,0 mm 3,0 km/h (1 Bft) S 186 ° 0 min 0,000 mm 2,8 UV-I 510 W/m² 11,6 °C 15,0 °C 4,8 km/h (1 Bft)
16.08.2019 09:40 14,9 °C 81 % 1018,1 hPa 0,0 mm 0,0 km/h (0 Bft) S 186 ° 0 min 0,000 mm 2,8 UV-I 512 W/m² 11,7 °C 14,9 °C 0,0 km/h (0 Bft)
16.08.2019 09:41 14,9 °C 81 % 1018,1 hPa 0,0 mm 0,2 km/h (0 Bft) S 186 ° 0 min 0,000 mm 2,9 UV-I 513 W/m² 11,7 °C 14,9 °C 1,6 km/h (1 Bft)
16.08.2019 09:42 14,9 °C 81 % 1018,1 hPa 0,0 mm 4,8 km/h (1 Bft) S 188 ° 0 min 0,000 mm 2,9 UV-I 519 W/m² 11,7 °C 14,9 °C 6,4 km/h (2 Bft)
16.08.2019 09:43 14,9 °C 81 % 1018,1 hPa 0,0 mm 1,0 km/h (0 Bft) S 188 ° 0 min 0,000 mm 2,9 UV-I 519 W/m² 11,7 °C 14,9 °C 4,8 km/h (1 Bft)
16.08.2019 09:44 15,0 °C 81 % 1018,1 hPa 0,0 mm 1,1 km/h (1 Bft) S 188 ° 0 min 0,000 mm 3,0 UV-I 520 W/m² 11,8 °C 15,0 °C 3,2 km/h (1 Bft)
16.08.2019 09:45 14,9 °C 82 % 1018,1 hPa 0,0 mm 0,2 km/h (0 Bft) S 188 ° 0 min 0,000 mm 3,0 UV-I 529 W/m² 11,9 °C 14,9 °C 1,6 km/h (1 Bft)
16.08.2019 09:46 14,9 °C 80 % 1018,1 hPa 0,0 mm 0,1 km/h (0 Bft) S 188 ° 0 min 0,000 mm 3,0 UV-I 531 W/m² 11,5 °C 14,9 °C 1,6 km/h (1 Bft)
16.08.2019 09:47 14,8 °C 81 % 1018,1 hPa 0,0 mm 3,2 km/h (1 Bft) S 187 ° 0 min 0,000 mm 3,0 UV-I 534 W/m² 11,6 °C 14,8 °C 4,8 km/h (1 Bft)
16.08.2019 09:48 14,9 °C 82 % 1018,0 hPa 0,0 mm 1,8 km/h (1 Bft) S 187 ° 0 min 0,000 mm 3,1 UV-I 538 W/m² 11,9 °C 14,9 °C 3,2 km/h (1 Bft)
16.08.2019 09:49 15,0 °C 81 % 1018,1 hPa 0,0 mm 2,5 km/h (1 Bft) S 187 ° 0 min 0,000 mm 3,1 UV-I 540 W/m² 11,8 °C 15,0 °C 4,8 km/h (1 Bft)
16.08.2019 09:50 15,1 °C 79 % 1018,0 hPa 0,0 mm 0,0 km/h (0 Bft) S 187 ° 0 min 0,000 mm 3,1 UV-I 540 W/m² 11,5 °C 15,1 °C 0,0 km/h (0 Bft)
16.08.2019 09:51 15,0 °C 84 % 1018,0 hPa 0,0 mm 3,7 km/h (1 Bft) S-SO 167 ° 0 min 0,000 mm 3,1 UV-I 541 W/m² 12,3 °C 15,0 °C 6,4 km/h (2 Bft)
16.08.2019 09:52 14,9 °C 83 % 1018,1 hPa 0,0 mm 1,7 km/h (1 Bft) S-SO 165 ° 0 min 0,000 mm 3,1 UV-I 543 W/m² 12,0 °C 14,9 °C 4,8 km/h (1 Bft)
16.08.2019 09:53 14,9 °C 82 % 1018,1 hPa 0,0 mm 0,1 km/h (0 Bft) S-SO 165 ° 0 min 0,000 mm 3,2 UV-I 552 W/m² 11,9 °C 14,9 °C 1,6 km/h (1 Bft)
16.08.2019 09:54 14,9 °C 83 % 1018,1 hPa 0,0 mm 0,0 km/h (0 Bft) S-SO 165 ° 0 min 0,000 mm 3,2 UV-I 559 W/m² 12,0 °C 14,9 °C 0,0 km/h (0 Bft)
16.08.2019 09:55 14,9 °C 85 % 1018,1 hPa 0,0 mm 0,0 km/h (0 Bft) S-SO 166 ° 0 min 0,000 mm 3,3 UV-I 555 W/m² 12,4 °C 14,9 °C 0,0 km/h (0 Bft)
16.08.2019 09:56 14,9 °C 86 % 1018,1 hPa 0,0 mm 0,0 km/h (0 Bft) S-SO 166 ° 0 min 0,000 mm 3,3 UV-I 557 W/m² 12,6 °C 14,9 °C 0,0 km/h (0 Bft)
16.08.2019 09:57 14,9 °C 83 % 1018,1 hPa 0,0 mm 1,1 km/h (1 Bft) N 5 ° 0 min 0,000 mm 3,3 UV-I 563 W/m² 12,0 °C 14,9 °C 3,2 km/h (1 Bft)
16.08.2019 09:58 14,9 °C 83 % 1018,1 hPa 0,0 mm 0,2 km/h (0 Bft) N 360 ° 0 min 0,000 mm 3,3 UV-I 568 W/m² 12,0 °C 14,9 °C 3,2 km/h (1 Bft)
16.08.2019 09:59 15,2 °C 84 % 1018,1 hPa 0,0 mm 2,5 km/h (1 Bft) N 360 ° 0 min 0,000 mm 3,4 UV-I 580 W/m² 12,5 °C 15,2 °C 4,8 km/h (1 Bft)
16.08.2019 10:00 15,4 °C 82 % 1018,1 hPa 0,0 mm 2,1 km/h (1 Bft) N 355 ° 0 min 0,000 mm 3,4 UV-I 587 W/m² 12,3 °C 15,4 °C 4,8 km/h (1 Bft)
16.08.2019 10:01 15,7 °C 82 % 1018,1 hPa 0,0 mm 4,4 km/h (1 Bft) NW 321 ° 0 min 0,254 mm 2,3 UV-I 587 W/m² 12,6 °C 15,7 °C 6,4 km/h (2 Bft)
16.08.2019 10:02 15,9 °C 80 % 1018,2 hPa 0,0 mm 3,3 km/h (1 Bft) NW 321 ° 1 min 0,000 mm 3,1 UV-I 621 W/m² 12,5 °C 15,9 °C 6,4 km/h (2 Bft)
16.08.2019 10:03 16,0 °C 78 % 1018,2 hPa 0,0 mm 2,5 km/h (1 Bft) NW 321 ° 1 min 0,000 mm 3,2 UV-I 621 W/m² 12,2 °C 16,0 °C 3,2 km/h (1 Bft)
16.08.2019 10:04 16,1 °C 78 % 1018,1 hPa 0,0 mm 0,5 km/h (0 Bft) NW 321 ° 1 min 0,000 mm 3,6 UV-I 621 W/m² 12,3 °C 16,1 °C 1,6 km/h (1 Bft)
16.08.2019 10:05 16,2 °C 81 % 1018,1 hPa 0,0 mm 0,0 km/h (0 Bft) NW 321 ° 1 min 0,000 mm 3,6 UV-I 664 W/m² 12,9 °C 16,2 °C 0,0 km/h (0 Bft)
16.08.2019 10:06 16,3 °C 81 % 1018,1 hPa 0,0 mm 3,9 km/h (1 Bft) W-NW 299 ° 1 min 0,000 mm 3,8 UV-I 675 W/m² 13,0 °C 16,3 °C 6,4 km/h (2 Bft)
16.08.2019 10:07 16,3 °C 78 % 1018,1 hPa 0,0 mm 2,5 km/h (1 Bft) W-NW 298 ° 1 min 0,000 mm 3,7 UV-I 677 W/m² 12,5 °C 16,3 °C 4,8 km/h (1 Bft)
16.08.2019 10:08 16,3 °C 78 % 1018,1 hPa 0,0 mm 1,9 km/h (1 Bft) W-NW 298 ° 1 min 0,000 mm 3,8 UV-I 682 W/m² 12,5 °C 16,3 °C 3,2 km/h (1 Bft)
16.08.2019 10:09 16,3 °C 77 % 1018,1 hPa 0,0 mm 0,3 km/h (0 Bft) W-NW 298 ° 1 min 0,000 mm 2,5 UV-I 615 W/m² 12,3 °C 16,3 °C 3,2 km/h (1 Bft)
16.08.2019 10:10 16,3 °C 76 % 1018,1 hPa 0,0 mm 3,1 km/h (1 Bft) W-NW 288 ° 1 min 0,000 mm 2,3 UV-I 615 W/m² 12,1 °C 16,3 °C 4,8 km/h (1 Bft)
16.08.2019 10:11 16,1 °C 76 % 1018,1 hPa 0,0 mm 0,0 km/h (0 Bft) W-NW 288 ° 0 min 0,000 mm 2,2 UV-I 139 W/m² 11,9 °C 16,1 °C 0,0 km/h (0 Bft)
16.08.2019 10:12 15,9 °C 75 % 1018,1 hPa 0,0 mm 1,1 km/h (1 Bft) W-SW 240 ° 0 min 0,000 mm 3,1 UV-I 155 W/m² 11,5 °C 15,9 °C 3,2 km/h (1 Bft)
16.08.2019 10:13 15,9 °C 75 % 1018,1 hPa 0,0 mm 2,6 km/h (1 Bft) W-SW 240 ° 0 min 0,000 mm 3,8 UV-I 155 W/m² 11,5 °C 15,9 °C 4,8 km/h (1 Bft)
16.08.2019 10:14 15,7 °C 75 % 1018,1 hPa 0,0 mm 3,8 km/h (1 Bft) S-SO 149 ° 1 min 0,000 mm 3,8 UV-I 650 W/m² 11,3 °C 15,7 °C 4,8 km/h (1 Bft)
16.08.2019 10:15 15,7 °C 76 % 1018,2 hPa 0,0 mm 1,1 km/h (1 Bft) S-SO 149 ° 1 min 0,000 mm 3,8 UV-I 654 W/m² 11,5 °C 15,7 °C 3,2 km/h (1 Bft)
16.08.2019 10:16 15,8 °C 76 % 1018,2 hPa 0,0 mm 0,1 km/h (0 Bft) S-SO 149 ° 1 min 0,000 mm 3,9 UV-I 664 W/m² 11,6 °C 15,8 °C 1,6 km/h (1 Bft)
16.08.2019 10:17 15,8 °C 77 % 1018,2 hPa 0,0 mm 0,1 km/h (0 Bft) S-SO 149 ° 1 min 0,000 mm 3,9 UV-I 696 W/m² 11,8 °C 15,8 °C 1,6 km/h (1 Bft)
16.08.2019 10:18 15,8 °C 77 % 1018,1 hPa 0,0 mm 0,1 km/h (0 Bft) S-SO 149 ° 1 min 0,000 mm 4,0 UV-I 712 W/m² 11,8 °C 15,8 °C 1,6 km/h (1 Bft)
16.08.2019 10:19 15,8 °C 79 % 1018,2 hPa 0,0 mm 0,0 km/h (0 Bft) S-SO 149 ° 1 min 0,000 mm 4,1 UV-I 712 W/m² 12,2 °C 15,8 °C 0,0 km/h (0 Bft)
16.08.2019 10:20 15,9 °C 78 % 1018,1 hPa 0,0 mm 2,3 km/h (1 Bft) N-NO 28 ° 1 min 0,000 mm 4,2 UV-I 712 W/m² 12,1 °C 15,9 °C 4,8 km/h (1 Bft)
16.08.2019 10:21 15,9 °C 84 % 1018,2 hPa 0,0 mm 1,7 km/h (1 Bft) N-NO 28 ° 1 min 0,000 mm 3,8 UV-I 784 W/m² 13,2 °C 15,9 °C 3,2 km/h (1 Bft)
16.08.2019 10:22 16,1 °C 82 % 1018,2 hPa 0,0 mm 3,4 km/h (1 Bft) N-NW 327 ° 1 min 0,000 mm 3,8 UV-I 772 W/m² 13,0 °C 16,1 °C 8,0 km/h (2 Bft)
16.08.2019 10:23 16,4 °C 81 % 1018,2 hPa 0,0 mm 7,7 km/h (2 Bft) N 349 ° 1 min 0,000 mm 3,8 UV-I 761 W/m² 13,1 °C 16,4 °C 12,9 km/h (3 Bft)
16.08.2019 10:24 16,6 °C 77 % 1018,2 hPa 0,0 mm 5,6 km/h (1 Bft) NW 320 ° 1 min 0,000 mm 2,3 UV-I 761 W/m² 12,5 °C 16,6 °C 9,7 km/h (2 Bft)
16.08.2019 10:25 16,6 °C 78 % 1018,2 hPa 0,0 mm 8,5 km/h (2 Bft) NW 310 ° 0 min 0,000 mm 2,3 UV-I 207 W/m² 12,7 °C 16,6 °C 14,5 km/h (3 Bft)
16.08.2019 10:26 16,6 °C 74 % 1018,2 hPa 0,0 mm 4,5 km/h (1 Bft) W-NW 302 ° 0 min 0,000 mm 2,4 UV-I 200 W/m² 11,9 °C 16,6 °C 6,4 km/h (2 Bft)
16.08.2019 10:27 16,4 °C 75 % 1018,2 hPa 0,0 mm 3,2 km/h (1 Bft) W 267 ° 0 min 0,000 mm 4,1 UV-I 200 W/m² 12,0 °C 16,4 °C 6,4 km/h (2 Bft)
16.08.2019 10:28 16,4 °C 75 % 1018,2 hPa 0,0 mm 1,5 km/h (1 Bft) W 267 ° 1 min 0,000 mm 4,1 UV-I 724 W/m² 12,0 °C 16,4 °C 3,2 km/h (1 Bft)
16.08.2019 10:29 16,6 °C 75 % 1018,2 hPa 0,0 mm 2,5 km/h (1 Bft) W-NW 290 ° 1 min 0,000 mm 3,6 UV-I 719 W/m² 12,1 °C 16,6 °C 6,4 km/h (2 Bft)
16.08.2019 10:30 16,4 °C 75 % 1018,1 hPa 0,0 mm 2,8 km/h (1 Bft) N 355 ° 0 min 0,000 mm 2,1 UV-I 121 W/m² 12,0 °C 16,4 °C 6,4 km/h (2 Bft)
16.08.2019 10:31 16,4 °C 74 % 1018,1 hPa 0,0 mm 4,9 km/h (1 Bft) NW 317 ° 0 min 0,000 mm 2,0 UV-I 97 W/m² 11,8 °C 16,4 °C 6,4 km/h (2 Bft)
16.08.2019 10:32 16,4 °C 75 % 1018,2 hPa 0,0 mm 3,6 km/h (1 Bft) W-NW 290 ° 0 min 0,000 mm 2,0 UV-I 88 W/m² 12,0 °C 16,4 °C 4,8 km/h (1 Bft)
16.08.2019 10:33 16,3 °C 76 % 1018,1 hPa 0,0 mm 4,2 km/h (1 Bft) NW 323 ° 0 min 0,000 mm 2,0 UV-I 83 W/m² 12,1 °C 16,3 °C 6,4 km/h (2 Bft)
16.08.2019 10:34 16,2 °C 75 % 1018,2 hPa 0,0 mm 4,4 km/h (1 Bft) W-NW 286 ° 0 min 0,000 mm 2,1 UV-I 86 W/m² 11,8 °C 16,2 °C 6,4 km/h (2 Bft)
16.08.2019 10:35 16,1 °C 73 % 1018,2 hPa 0,0 mm 4,4 km/h (1 Bft) W 265 ° 0 min 0,000 mm 2,1 UV-I 125 W/m² 11,3 °C 16,1 °C 6,4 km/h (2 Bft)
16.08.2019 10:36 15,9 °C 73 % 1018,2 hPa 0,0 mm 4,0 km/h (1 Bft) W-NW 297 ° 0 min 0,000 mm 2,1 UV-I 88 W/m² 11,1 °C 15,9 °C 4,8 km/h (1 Bft)
16.08.2019 10:37 15,8 °C 74 % 1018,2 hPa 0,0 mm 3,4 km/h (1 Bft) W-SW 258 ° 0 min 0,000 mm 2,2 UV-I 88 W/m² 11,2 °C 15,8 °C 6,4 km/h (2 Bft)
16.08.2019 10:38 15,7 °C 76 % 1018,2 hPa 0,0 mm 2,8 km/h (1 Bft) W-SW 257 ° 0 min 0,000 mm 4,2 UV-I 169 W/m² 11,5 °C 15,7 °C 4,8 km/h (1 Bft)
16.08.2019 10:39 15,8 °C 76 % 1018,2 hPa 0,0 mm 1,5 km/h (1 Bft) W-SW 257 ° 0 min 0,000 mm 4,3 UV-I 169 W/m² 11,6 °C 15,8 °C 3,2 km/h (1 Bft)
16.08.2019 10:40 15,8 °C 77 % 1018,2 hPa 0,0 mm 0,7 km/h (0 Bft) W 260 ° 1 min 0,000 mm 4,3 UV-I 686 W/m² 11,8 °C 15,8 °C 1,6 km/h (1 Bft)
16.08.2019 10:41 16,0 °C 78 % 1018,2 hPa 0,0 mm 3,3 km/h (1 Bft) N-NW 331 ° 1 min 0,000 mm 4,4 UV-I 694 W/m² 12,2 °C 16,0 °C 4,8 km/h (1 Bft)
16.08.2019 10:42 16,2 °C 79 % 1018,2 hPa 0,0 mm 6,9 km/h (2 Bft) N-NW 334 ° 1 min 0,000 mm 4,4 UV-I 707 W/m² 12,6 °C 16,2 °C 11,3 km/h (2 Bft)
16.08.2019 10:43 16,4 °C 79 % 1018,2 hPa 0,0 mm 5,2 km/h (1 Bft) W-NW 288 ° 1 min 0,000 mm 4,4 UV-I 705 W/m² 12,7 °C 16,4 °C 8,0 km/h (2 Bft)
16.08.2019 10:44 16,5 °C 74 % 1018,2 hPa 0,0 mm 2,7 km/h (1 Bft) W 281 ° 1 min 0,000 mm 4,5 UV-I 696 W/m² 11,8 °C 16,5 °C 6,4 km/h (2 Bft)
16.08.2019 10:45 16,6 °C 75 % 1018,2 hPa 0,0 mm 6,9 km/h (2 Bft) W 262 ° 1 min 0,000 mm 4,5 UV-I 700 W/m² 12,1 °C 16,6 °C 11,3 km/h (2 Bft)
16.08.2019 10:46 16,7 °C 77 % 1018,2 hPa 0,0 mm 5,4 km/h (1 Bft) NW 325 ° 1 min 0,000 mm 4,5 UV-I 721 W/m² 12,6 °C 16,7 °C 9,7 km/h (2 Bft)
16.08.2019 10:47 16,9 °C 77 % 1018,2 hPa 0,0 mm 4,7 km/h (1 Bft) W-NW 302 ° 1 min 0,000 mm 4,7 UV-I 733 W/m² 12,8 °C 16,9 °C 8,0 km/h (2 Bft)
16.08.2019 10:48 17,0 °C 75 % 1018,2 hPa 0,0 mm 0,3 km/h (0 Bft) W-NW 302 ° 1 min 0,000 mm 4,7 UV-I 735 W/m² 12,5 °C 17,0 °C 1,6 km/h (1 Bft)
16.08.2019 10:49 16,9 °C 73 % 1018,2 hPa 0,0 mm 0,3 km/h (0 Bft) W-NW 302 ° 1 min 0,000 mm 4,7 UV-I 744 W/m² 12,0 °C 16,9 °C 3,2 km/h (1 Bft)
16.08.2019 10:50 17,1 °C 78 % 1018,2 hPa 0,0 mm 0,1 km/h (0 Bft) W 263 ° 1 min 0,000 mm 4,8 UV-I 749 W/m² 13,2 °C 17,1 °C 3,2 km/h (1 Bft)
16.08.2019 10:51 17,2 °C 74 % 1018,2 hPa 0,0 mm 10,8 km/h (2 Bft) W-NW 290 ° 1 min 0,000 mm 4,8 UV-I 758 W/m² 12,5 °C 17,2 °C 14,5 km/h (3 Bft)
16.08.2019 10:52 17,3 °C 76 % 1018,2 hPa 0,0 mm 7,2 km/h (2 Bft) W-NW 289 ° 1 min 0,000 mm 4,9 UV-I 766 W/m² 13,0 °C 17,3 °C 9,7 km/h (2 Bft)
16.08.2019 10:53 17,3 °C 75 % 1018,2 hPa 0,0 mm 5,1 km/h (1 Bft) NW 320 ° 1 min 0,000 mm 4,3 UV-I 766 W/m² 12,8 °C 17,3 °C 6,4 km/h (2 Bft)
16.08.2019 10:54 17,3 °C 73 % 1018,2 hPa 0,0 mm 5,7 km/h (1 Bft) NW 315 ° 1 min 0,000 mm 2,8 UV-I 766 W/m² 12,4 °C 17,3 °C 9,7 km/h (2 Bft)
16.08.2019 10:55 17,2 °C 72 % 1018,2 hPa 0,0 mm 7,5 km/h (2 Bft) NW 321 ° 1 min 0,000 mm 5,0 UV-I 766 W/m² 12,1 °C 17,2 °C 14,5 km/h (3 Bft)
16.08.2019 10:56 17,2 °C 73 % 1018,2 hPa 0,0 mm 6,6 km/h (2 Bft) W-NW 300 ° 1 min 0,000 mm 3,6 UV-I 766 W/m² 12,3 °C 17,2 °C 9,7 km/h (2 Bft)
16.08.2019 10:57 17,2 °C 72 % 1018,2 hPa 0,0 mm 5,7 km/h (1 Bft) NW 322 ° 1 min 0,000 mm 5,1 UV-I 766 W/m² 12,1 °C 17,2 °C 11,3 km/h (2 Bft)
16.08.2019 10:58 17,2 °C 71 % 1018,1 hPa 0,0 mm 10,2 km/h (2 Bft) W 271 ° 1 min 0,000 mm 5,1 UV-I 809 W/m² 11,9 °C 17,2 °C 16,1 km/h (3 Bft)
16.08.2019 10:59 17,2 °C 73 % 1018,1 hPa 0,0 mm 8,6 km/h (2 Bft) W 267 ° 1 min 0,000 mm 5,0 UV-I 802 W/m² 12,3 °C 17,2 °C 14,5 km/h (3 Bft)
16.08.2019 11:00 17,3 °C 72 % 1018,1 hPa 0,0 mm 8,0 km/h (2 Bft) W-NW 288 ° 1 min 0,000 mm 5,0 UV-I 803 W/m² 12,2 °C 17,3 °C 14,5 km/h (3 Bft)
16.08.2019 11:01 17,2 °C 72 % 1018,1 hPa 0,0 mm 6,0 km/h (2 Bft) NW 313 ° 1 min 0,305 mm 5,0 UV-I 798 W/m² 12,1 °C 17,2 °C 9,7 km/h (2 Bft)
16.08.2019 11:02 17,4 °C 74 % 1018,1 hPa 0,0 mm 6,3 km/h (2 Bft) N-NW 331 ° 1 min 0,000 mm 4,4 UV-I 793 W/m² 12,7 °C 17,4 °C 9,7 km/h (2 Bft)
16.08.2019 11:03 17,3 °C 72 % 1018,1 hPa 0,0 mm 9,0 km/h (2 Bft) N-NW 327 ° 1 min 0,000 mm 5,0 UV-I 782 W/m² 12,2 °C 17,3 °C 12,9 km/h (3 Bft)
16.08.2019 11:04 17,3 °C 72 % 1018,1 hPa 0,0 mm 7,5 km/h (2 Bft) NW 305 ° 1 min 0,000 mm 4,2 UV-I 782 W/m² 12,2 °C 17,3 °C 12,9 km/h (3 Bft)
16.08.2019 11:05 17,2 °C 70 % 1018,0 hPa 0,0 mm 7,6 km/h (2 Bft) W-NW 290 ° 1 min 0,000 mm 5,0 UV-I 742 W/m² 11,7 °C 17,2 °C 11,3 km/h (2 Bft)
16.08.2019 11:06 17,2 °C 73 % 1018,0 hPa 0,0 mm 5,9 km/h (2 Bft) NW 324 ° 1 min 0,000 mm 5,0 UV-I 747 W/m² 12,3 °C 17,2 °C 9,7 km/h (2 Bft)
16.08.2019 11:07 17,3 °C 73 % 1018,0 hPa 0,0 mm 4,1 km/h (1 Bft) W-SW 257 ° 1 min 0,000 mm 5,0 UV-I 768 W/m² 12,4 °C 17,3 °C 9,7 km/h (2 Bft)
16.08.2019 11:08 17,3 °C 71 % 1018,1 hPa 0,0 mm 3,8 km/h (1 Bft) NW 315 ° 1 min 0,000 mm 5,0 UV-I 758 W/m² 12,0 °C 17,3 °C 8,0 km/h (2 Bft)
16.08.2019 11:09 17,3 °C 72 % 1018,0 hPa 0,0 mm 5,8 km/h (2 Bft) NW 305 ° 1 min 0,000 mm 5,1 UV-I 768 W/m² 12,2 °C 17,3 °C 12,9 km/h (3 Bft)
16.08.2019 11:10 17,2 °C 72 % 1018,1 hPa 0,0 mm 5,6 km/h (1 Bft) NW 311 ° 1 min 0,000 mm 5,1 UV-I 775 W/m² 12,1 °C 17,2 °C 11,3 km/h (2 Bft)
16.08.2019 11:11 17,3 °C 72 % 1018,0 hPa 0,0 mm 4,8 km/h (1 Bft) W-NW 299 ° 1 min 0,000 mm 5,2 UV-I 784 W/m² 12,2 °C 17,3 °C 6,4 km/h (2 Bft)
16.08.2019 11:12 17,3 °C 72 % 1018,0 hPa 0,0 mm 7,2 km/h (2 Bft) NW 317 ° 1 min 0,000 mm 5,2 UV-I 789 W/m² 12,2 °C 17,3 °C 12,9 km/h (3 Bft)
16.08.2019 11:13 17,4 °C 71 % 1018,1 hPa 0,0 mm 7,0 km/h (2 Bft) NW 304 ° 1 min 0,000 mm 5,2 UV-I 789 W/m² 12,1 °C 17,4 °C 11,3 km/h (2 Bft)
16.08.2019 11:14 17,4 °C 72 % 1018,1 hPa 0,0 mm 4,2 km/h (1 Bft) W 275 ° 1 min 0,000 mm 5,2 UV-I 793 W/m² 12,3 °C 17,4 °C 9,7 km/h (2 Bft)
16.08.2019 11:15 17,4 °C 70 % 1018,1 hPa 0,0 mm 7,5 km/h (2 Bft) NW 323 ° 1 min 0,000 mm 5,2 UV-I 791 W/m² 11,9 °C 17,4 °C 11,3 km/h (2 Bft)
16.08.2019 11:16 17,4 °C 71 % 1018,0 hPa 0,0 mm 4,8 km/h (1 Bft) W 270 ° 1 min 0,000 mm 5,2 UV-I 793 W/m² 12,1 °C 17,4 °C 6,4 km/h (2 Bft)
16.08.2019 11:17 17,4 °C 72 % 1018,0 hPa 0,0 mm 6,4 km/h (2 Bft) W 262 ° 1 min 0,000 mm 5,3 UV-I 800 W/m² 12,3 °C 17,4 °C 9,7 km/h (2 Bft)
16.08.2019 11:18 17,5 °C 72 % 1018,0 hPa 0,0 mm 3,2 km/h (1 Bft) SW 235 ° 1 min 0,000 mm 5,1 UV-I 807 W/m² 12,4 °C 17,5 °C 6,4 km/h (2 Bft)
16.08.2019 11:19 17,6 °C 72 % 1018,0 hPa 0,0 mm 8,6 km/h (2 Bft) W-SW 257 ° 1 min 0,000 mm 5,3 UV-I 821 W/m² 12,5 °C 17,6 °C 12,9 km/h (3 Bft)
16.08.2019 11:20 17,6 °C 71 % 1018,0 hPa 0,0 mm 9,2 km/h (2 Bft) W-NW 288 ° 1 min 0,000 mm 5,3 UV-I 819 W/m² 12,3 °C 17,6 °C 14,5 km/h (3 Bft)
16.08.2019 11:21 17,6 °C 71 % 1018,0 hPa 0,0 mm 7,4 km/h (2 Bft) W-NW 296 ° 1 min 0,000 mm 5,3 UV-I 823 W/m² 12,3 °C 17,6 °C 11,3 km/h (2 Bft)
16.08.2019 11:22 17,6 °C 69 % 1018,0 hPa 0,0 mm 6,3 km/h (2 Bft) NW 313 ° 1 min 0,000 mm 5,3 UV-I 828 W/m² 11,8 °C 17,6 °C 11,3 km/h (2 Bft)
16.08.2019 11:23 17,6 °C 72 % 1018,0 hPa 0,0 mm 5,7 km/h (1 Bft) NW 320 ° 1 min 0,000 mm 5,4 UV-I 838 W/m² 12,5 °C 17,6 °C 9,7 km/h (2 Bft)
16.08.2019 11:24 17,7 °C 71 % 1017,9 hPa 0,0 mm 6,0 km/h (2 Bft) NW 316 ° 1 min 0,000 mm 5,4 UV-I 865 W/m² 12,4 °C 17,7 °C 8,0 km/h (2 Bft)
16.08.2019 11:25 17,7 °C 71 % 1018,0 hPa 0,0 mm 6,6 km/h (2 Bft) N-NW 333 ° 1 min 0,000 mm 5,1 UV-I 826 W/m² 12,4 °C 17,7 °C 12,9 km/h (3 Bft)
16.08.2019 11:26 17,7 °C 71 % 1018,0 hPa 0,0 mm 4,0 km/h (1 Bft) NW 317 ° 1 min 0,000 mm 2,8 UV-I 826 W/m² 12,4 °C 17,7 °C 12,9 km/h (3 Bft)
16.08.2019 11:27 17,6 °C 72 % 1018,0 hPa 0,0 mm 5,0 km/h (1 Bft) W-SW 244 ° 0 min 0,000 mm 2,9 UV-I 227 W/m² 12,5 °C 17,6 °C 9,7 km/h (2 Bft)
16.08.2019 11:28 17,6 °C 72 % 1018,0 hPa 0,0 mm 4,5 km/h (1 Bft) W 262 ° 1 min 0,000 mm 5,7 UV-I 919 W/m² 12,5 °C 17,6 °C 6,4 km/h (2 Bft)
16.08.2019 11:29 17,6 °C 72 % 1018,0 hPa 0,0 mm 3,7 km/h (1 Bft) W 274 ° 1 min 0,000 mm 5,6 UV-I 902 W/m² 12,5 °C 17,6 °C 9,7 km/h (2 Bft)
16.08.2019 11:30 17,6 °C 71 % 1018,0 hPa 0,0 mm 0,0 km/h (0 Bft) W 274 ° 1 min 0,000 mm 5,5 UV-I 893 W/m² 12,3 °C 17,6 °C 0,0 km/h (0 Bft)
16.08.2019 11:31 17,7 °C 76 % 1018,0 hPa 0,0 mm 5,1 km/h (1 Bft) NW 321 ° 1 min 0,000 mm 4,0 UV-I 893 W/m² 13,4 °C 17,7 °C 8,0 km/h (2 Bft)
16.08.2019 11:32 17,8 °C 72 % 1018,0 hPa 0,0 mm 3,0 km/h (1 Bft) W-NW 286 ° 1 min 0,000 mm 2,7 UV-I 893 W/m² 12,7 °C 17,8 °C 6,4 km/h (2 Bft)
16.08.2019 11:33 17,7 °C 70 % 1018,0 hPa 0,0 mm 6,5 km/h (2 Bft) NW 322 ° 0 min 0,000 mm 3,3 UV-I 246 W/m² 12,2 °C 17,7 °C 9,7 km/h (2 Bft)
16.08.2019 11:34 17,6 °C 70 % 1018,0 hPa 0,0 mm 4,3 km/h (1 Bft) N-NW 339 ° 0 min 0,000 mm 2,7 UV-I 241 W/m² 12,1 °C 17,6 °C 6,4 km/h (2 Bft)
16.08.2019 11:35 17,4 °C 71 % 1018,0 hPa 0,0 mm 8,6 km/h (2 Bft) W-NW 294 ° 0 min 0,000 mm 3,0 UV-I 278 W/m² 12,1 °C 17,4 °C 14,5 km/h (3 Bft)
16.08.2019 11:36 17,2 °C 70 % 1018,0 hPa 0,0 mm 4,4 km/h (1 Bft) NW 323 ° 0 min 0,000 mm 3,0 UV-I 341 W/m² 11,7 °C 17,2 °C 6,4 km/h (2 Bft)
16.08.2019 11:37 17,0 °C 71 % 1018,0 hPa 0,0 mm 4,2 km/h (1 Bft) W 281 ° 0 min 0,000 mm 3,1 UV-I 362 W/m² 11,7 °C 17,0 °C 6,4 km/h (2 Bft)
16.08.2019 11:38 16,9 °C 73 % 1018,0 hPa 0,0 mm 4,2 km/h (1 Bft) NW 325 ° 0 min 0,000 mm 3,1 UV-I 406 W/m² 12,0 °C 16,9 °C 6,4 km/h (2 Bft)
16.08.2019 11:39 16,9 °C 73 % 1018,0 hPa 0,0 mm 4,9 km/h (1 Bft) NW 326 ° 0 min 0,000 mm 2,6 UV-I 207 W/m² 12,0 °C 16,9 °C 8,0 km/h (2 Bft)
16.08.2019 11:40 16,8 °C 73 % 1018,0 hPa 0,0 mm 3,1 km/h (1 Bft) W 279 ° 0 min 0,000 mm 2,6 UV-I 178 W/m² 11,9 °C 16,8 °C 6,4 km/h (2 Bft)
16.08.2019 11:41 16,8 °C 73 % 1017,9 hPa 0,0 mm 3,5 km/h (1 Bft) W-NW 286 ° 0 min 0,000 mm 2,4 UV-I 158 W/m² 11,9 °C 16,8 °C 4,8 km/h (1 Bft)
16.08.2019 11:42 16,7 °C 72 % 1017,9 hPa 0,0 mm 4,5 km/h (1 Bft) W-NW 285 ° 0 min 0,000 mm 2,5 UV-I 156 W/m² 11,6 °C 16,7 °C 8,0 km/h (2 Bft)
16.08.2019 11:43 16,6 °C 73 % 1017,9 hPa 0,0 mm 5,0 km/h (1 Bft) W-NW 286 ° 0 min 0,000 mm 2,6 UV-I 162 W/m² 11,7 °C 16,6 °C 8,0 km/h (2 Bft)
16.08.2019 11:44 16,4 °C 73 % 1017,9 hPa 0,0 mm 4,9 km/h (1 Bft) W-NW 292 ° 0 min 0,000 mm 3,1 UV-I 199 W/m² 11,5 °C 16,4 °C 6,4 km/h (2 Bft)
16.08.2019 11:45 16,4 °C 74 % 1017,9 hPa 0,0 mm 5,3 km/h (1 Bft) W-NW 288 ° 0 min 0,000 mm 4,6 UV-I 381 W/m² 11,8 °C 16,4 °C 11,3 km/h (2 Bft)
16.08.2019 11:46 16,5 °C 77 % 1017,8 hPa 0,0 mm 2,3 km/h (1 Bft) W-NW 289 ° 0 min 0,000 mm 2,7 UV-I 381 W/m² 12,5 °C 16,5 °C 4,8 km/h (1 Bft)
16.08.2019 11:47 16,5 °C 74 % 1017,9 hPa 0,0 mm 4,0 km/h (1 Bft) NW 311 ° 0 min 0,000 mm 2,5 UV-I 132 W/m² 11,8 °C 16,5 °C 6,4 km/h (2 Bft)
16.08.2019 11:48 16,5 °C 73 % 1017,9 hPa 0,0 mm 4,8 km/h (1 Bft) W-NW 292 ° 0 min 0,000 mm 2,5 UV-I 128 W/m² 11,6 °C 16,5 °C 8,0 km/h (2 Bft)
16.08.2019 11:49 16,4 °C 74 % 1017,8 hPa 0,0 mm 3,8 km/h (1 Bft) W-NW 292 ° 0 min 0,000 mm 2,6 UV-I 128 W/m² 11,8 °C 16,4 °C 4,8 km/h (1 Bft)
16.08.2019 11:50 16,4 °C 74 % 1017,8 hPa 0,0 mm 4,0 km/h (1 Bft) W-NW 292 ° 0 min 0,000 mm 2,7 UV-I 128 W/m² 11,8 °C 16,4 °C 6,4 km/h (2 Bft)
16.08.2019 11:51 16,4 °C 78 % 1017,8 hPa 0,0 mm 0,0 km/h (0 Bft) W-NW 292 ° 1 min 0,000 mm 2,7 UV-I 831 W/m² 12,6 °C 16,4 °C 0,0 km/h (0 Bft)
16.08.2019 11:52 16,6 °C 77 % 1017,8 hPa 0,0 mm 0,0 km/h (0 Bft) W-NW 292 ° 1 min 0,000 mm 5,8 UV-I 831 W/m² 12,5 °C 16,6 °C 0,0 km/h (0 Bft)
16.08.2019 11:53 16,8 °C 74 % 1017,8 hPa 0,0 mm 0,0 km/h (0 Bft) W-NW 292 ° 1 min 0,000 mm 5,8 UV-I 828 W/m² 12,1 °C 16,8 °C 0,0 km/h (0 Bft)
16.08.2019 11:54 16,9 °C 74 % 1017,8 hPa 0,0 mm 0,7 km/h (0 Bft) W-NW 292 ° 1 min 0,000 mm 5,8 UV-I 828 W/m² 12,2 °C 16,9 °C 4,8 km/h (1 Bft)
16.08.2019 11:55 17,1 °C 73 % 1017,8 hPa 0,0 mm 3,6 km/h (1 Bft) W-NW 290 ° 1 min 0,000 mm 5,9 UV-I 830 W/m² 12,2 °C 17,1 °C 4,8 km/h (1 Bft)
16.08.2019 11:56 17,2 °C 71 % 1017,8 hPa 0,0 mm 1,4 km/h (1 Bft) W-NW 290 ° 1 min 0,000 mm 5,9 UV-I 837 W/m² 11,9 °C 17,2 °C 3,2 km/h (1 Bft)
16.08.2019 11:57 17,3 °C 72 % 1017,7 hPa 0,0 mm 1,5 km/h (1 Bft) W-NW 290 ° 1 min 0,000 mm 5,9 UV-I 838 W/m² 12,2 °C 17,3 °C 4,8 km/h (1 Bft)
16.08.2019 11:58 17,4 °C 73 % 1017,8 hPa 0,0 mm 1,9 km/h (1 Bft) W-NW 290 ° 1 min 0,000 mm 6,0 UV-I 849 W/m² 12,5 °C 17,4 °C 4,8 km/h (1 Bft)
16.08.2019 11:59 17,6 °C 73 % 1017,8 hPa 0,0 mm 7,3 km/h (2 Bft) W-SW 257 ° 1 min 0,000 mm 6,0 UV-I 861 W/m² 12,7 °C 17,6 °C 12,9 km/h (3 Bft)
16.08.2019 12:00 17,8 °C 72 % 1017,7 hPa 0,0 mm 7,7 km/h (2 Bft) NW 325 ° 1 min 0,000 mm 6,0 UV-I 875 W/m² 12,7 °C 17,8 °C 12,9 km/h (3 Bft)
16.08.2019 12:01 17,8 °C 69 % 1017,7 hPa 0,0 mm 2,1 km/h (1 Bft) W-NW 302 ° 1 min 0,356 mm 3,0 UV-I 875 W/m² 12,0 °C 17,8 °C 4,8 km/h (1 Bft)
16.08.2019 12:02 17,8 °C 70 % 1017,7 hPa 0,0 mm 9,1 km/h (2 Bft) W-NW 303 ° 0 min 0,000 mm 3,6 UV-I 214 W/m² 12,3 °C 17,8 °C 17,7 km/h (3 Bft)
16.08.2019 12:03 17,7 °C 70 % 1017,7 hPa 0,0 mm 7,1 km/h (2 Bft) W-NW 302 ° 0 min 0,000 mm 6,1 UV-I 214 W/m² 12,2 °C 17,7 °C 14,5 km/h (3 Bft)
16.08.2019 12:04 17,7 °C 71 % 1017,7 hPa 0,0 mm 6,6 km/h (2 Bft) W 269 ° 0 min 0,000 mm 3,0 UV-I 142 W/m² 12,4 °C 17,7 °C 11,3 km/h (2 Bft)
16.08.2019 12:05 17,6 °C 70 % 1017,8 hPa 0,0 mm 4,4 km/h (1 Bft) N-NW 329 ° 0 min 0,000 mm 6,1 UV-I 142 W/m² 12,1 °C 17,6 °C 6,4 km/h (2 Bft)
16.08.2019 12:06 17,6 °C 72 % 1017,7 hPa 0,0 mm 4,8 km/h (1 Bft) NW 326 ° 1 min 0,000 mm 6,1 UV-I 849 W/m² 12,5 °C 17,6 °C 6,4 km/h (2 Bft)
16.08.2019 12:07 17,7 °C 72 % 1017,7 hPa 0,0 mm 3,4 km/h (1 Bft) W-SW 253 ° 1 min 0,000 mm 6,0 UV-I 849 W/m² 12,6 °C 17,7 °C 6,4 km/h (2 Bft)
16.08.2019 12:08 17,8 °C 75 % 1017,7 hPa 0,0 mm 7,4 km/h (2 Bft) W-SW 254 ° 1 min 0,000 mm 6,1 UV-I 840 W/m² 13,3 °C 17,8 °C 16,1 km/h (3 Bft)
16.08.2019 12:09 17,9 °C 73 % 1017,7 hPa 0,0 mm 8,9 km/h (2 Bft) W-SW 257 ° 1 min 0,000 mm 6,2 UV-I 849 W/m² 13,0 °C 17,9 °C 12,9 km/h (3 Bft)
16.08.2019 12:10 17,9 °C 70 % 1017,7 hPa 0,0 mm 7,2 km/h (2 Bft) W-SW 244 ° 1 min 0,000 mm 6,2 UV-I 854 W/m² 12,3 °C 17,9 °C 11,3 km/h (2 Bft)
16.08.2019 12:11 18,0 °C 74 % 1017,8 hPa 0,0 mm 9,4 km/h (2 Bft) W-SW 252 ° 1 min 0,000 mm 6,2 UV-I 817 W/m² 13,3 °C 18,0 °C 12,9 km/h (3 Bft)
16.08.2019 12:12 18,1 °C 75 % 1017,7 hPa 0,0 mm 2,7 km/h (1 Bft) W-NW 300 ° 1 min 0,000 mm 6,2 UV-I 851 W/m² 13,6 °C 18,1 °C 6,4 km/h (2 Bft)
16.08.2019 12:13 18,2 °C 73 % 1017,7 hPa 0,0 mm 6,1 km/h (2 Bft) W-SW 244 ° 1 min 0,000 mm 6,2 UV-I 844 W/m² 13,3 °C 18,2 °C 9,7 km/h (2 Bft)
16.08.2019 12:14 18,3 °C 72 % 1017,7 hPa 0,0 mm 3,9 km/h (1 Bft) NW 323 ° 1 min 0,000 mm 6,2 UV-I 842 W/m² 13,2 °C 18,3 °C 6,4 km/h (2 Bft)
16.08.2019 12:15 18,4 °C 69 % 1017,6 hPa 0,0 mm 6,2 km/h (2 Bft) N 355 ° 1 min 0,000 mm 6,3 UV-I 854 W/m² 12,6 °C 18,4 °C 11,3 km/h (2 Bft)
16.08.2019 12:16 18,3 °C 70 % 1017,6 hPa 0,0 mm 5,5 km/h (1 Bft) W 276 ° 1 min 0,000 mm 6,4 UV-I 863 W/m² 12,7 °C 18,3 °C 8,0 km/h (2 Bft)
16.08.2019 12:17 18,3 °C 70 % 1017,6 hPa 0,0 mm 3,7 km/h (1 Bft) NW 304 ° 1 min 0,000 mm 5,3 UV-I 870 W/m² 12,7 °C 18,3 °C 8,0 km/h (2 Bft)
16.08.2019 12:18 18,4 °C 72 % 1017,7 hPa 0,0 mm 6,2 km/h (2 Bft) W 263 ° 1 min 0,000 mm 5,7 UV-I 870 W/m² 13,3 °C 18,4 °C 9,7 km/h (2 Bft)
16.08.2019 12:19 18,3 °C 72 % 1017,6 hPa 0,0 mm 4,5 km/h (1 Bft) NW 311 ° 1 min 0,000 mm 6,1 UV-I 870 W/m² 13,2 °C 18,3 °C 8,0 km/h (2 Bft)
16.08.2019 12:20 18,4 °C 72 % 1017,6 hPa 0,0 mm 6,0 km/h (2 Bft) N-NW 344 ° 1 min 0,000 mm 6,1 UV-I 854 W/m² 13,3 °C 18,4 °C 8,0 km/h (2 Bft)
16.08.2019 12:21 18,3 °C 69 % 1017,6 hPa 0,0 mm 2,9 km/h (1 Bft) NW 304 ° 1 min 0,000 mm 6,3 UV-I 853 W/m² 12,5 °C 18,3 °C 6,4 km/h (2 Bft)
16.08.2019 12:22 18,4 °C 69 % 1017,6 hPa 0,0 mm 5,0 km/h (1 Bft) N-NW 330 ° 1 min 0,000 mm 6,4 UV-I 879 W/m² 12,6 °C 18,4 °C 6,4 km/h (2 Bft)
16.08.2019 12:23 18,4 °C 70 % 1017,5 hPa 0,0 mm 3,8 km/h (1 Bft) W-NW 285 ° 1 min 0,000 mm 6,5 UV-I 893 W/m² 12,8 °C 18,4 °C 11,3 km/h (2 Bft)
16.08.2019 12:24 18,4 °C 69 % 1017,6 hPa 0,0 mm 8,4 km/h (2 Bft) W 260 ° 1 min 0,000 mm 6,6 UV-I 907 W/m² 12,6 °C 18,4 °C 12,9 km/h (3 Bft)
16.08.2019 12:25 18,4 °C 69 % 1017,6 hPa 0,0 mm 11,1 km/h (2 Bft) W 259 ° 1 min 0,000 mm 6,6 UV-I 907 W/m² 12,6 °C 18,4 °C 14,5 km/h (3 Bft)
16.08.2019 12:26 18,5 °C 70 % 1017,6 hPa 0,0 mm 7,1 km/h (2 Bft) SW 229 ° 1 min 0,000 mm 6,6 UV-I 923 W/m² 12,9 °C 18,5 °C 12,9 km/h (3 Bft)
16.08.2019 12:27 18,6 °C 71 % 1017,6 hPa 0,0 mm 7,0 km/h (2 Bft) W-NW 288 ° 1 min 0,000 mm 6,6 UV-I 925 W/m² 13,2 °C 18,6 °C 9,7 km/h (2 Bft)
16.08.2019 12:28 18,8 °C 73 % 1017,5 hPa 0,0 mm 6,8 km/h (2 Bft) W-SW 249 ° 1 min 0,000 mm 6,6 UV-I 930 W/m² 13,9 °C 18,8 °C 11,3 km/h (2 Bft)
16.08.2019 12:29 18,8 °C 70 % 1017,5 hPa 0,0 mm 1,9 km/h (1 Bft) W-NW 283 ° 1 min 0,000 mm 6,7 UV-I 935 W/m² 13,2 °C 18,8 °C 4,8 km/h (1 Bft)
16.08.2019 12:30 18,6 °C 66 % 1017,5 hPa 0,0 mm 0,0 km/h (0 Bft) W 281 ° 1 min 0,000 mm 6,7 UV-I 954 W/m² 12,1 °C 18,6 °C 0,0 km/h (0 Bft)
16.08.2019 12:31 18,6 °C 70 % 1017,5 hPa 0,0 mm 3,9 km/h (1 Bft) W-NW 290 ° 1 min 0,000 mm 6,6 UV-I 932 W/m² 13,0 °C 18,6 °C 12,9 km/h (3 Bft)
16.08.2019 12:32 18,6 °C 65 % 1017,5 hPa 0,0 mm 3,0 km/h (1 Bft) W 281 ° 1 min 0,000 mm 6,7 UV-I 925 W/m² 11,9 °C 18,6 °C 4,8 km/h (1 Bft)
16.08.2019 12:33 18,6 °C 67 % 1017,5 hPa 0,0 mm 7,3 km/h (2 Bft) NW 315 ° 1 min 0,000 mm 6,6 UV-I 916 W/m² 12,3 °C 18,6 °C 14,5 km/h (3 Bft)
16.08.2019 12:34 18,7 °C 69 % 1017,5 hPa 0,0 mm 7,5 km/h (2 Bft) NW 323 ° 1 min 0,000 mm 6,3 UV-I 914 W/m² 12,9 °C 18,7 °C 12,9 km/h (3 Bft)
16.08.2019 12:35 18,7 °C 66 % 1017,5 hPa 0,0 mm 2,0 km/h (1 Bft) N-NW 328 ° 1 min 0,000 mm 6,4 UV-I 919 W/m² 12,2 °C 18,7 °C 4,8 km/h (1 Bft)
16.08.2019 12:36 18,7 °C 67 % 1017,5 hPa 0,0 mm 4,0 km/h (1 Bft) N-NW 338 ° 1 min 0,000 mm 2,9 UV-I 919 W/m² 12,4 °C 18,7 °C 9,7 km/h (2 Bft)
16.08.2019 12:37 18,5 °C 65 % 1017,5 hPa 0,0 mm 3,5 km/h (1 Bft) NW 311 ° 0 min 0,000 mm 4,0 UV-I 214 W/m² 11,8 °C 18,5 °C 6,4 km/h (2 Bft)
16.08.2019 12:38 18,4 °C 66 % 1017,4 hPa 0,0 mm 5,2 km/h (1 Bft) W-NW 288 ° 0 min 0,000 mm 4,4 UV-I 214 W/m² 11,9 °C 18,4 °C 9,7 km/h (2 Bft)
16.08.2019 12:39 18,2 °C 65 % 1017,4 hPa 0,0 mm 3,9 km/h (1 Bft) W-NW 288 ° 0 min 0,000 mm 4,9 UV-I 214 W/m² 11,5 °C 18,2 °C 4,8 km/h (1 Bft)
16.08.2019 12:40 18,1 °C 65 % 1017,4 hPa 0,0 mm 2,3 km/h (1 Bft) W-NW 300 ° 0 min 0,000 mm 6,7 UV-I 214 W/m² 11,4 °C 18,1 °C 6,4 km/h (2 Bft)
16.08.2019 12:41 18,1 °C 69 % 1017,5 hPa 0,0 mm 4,2 km/h (1 Bft) W 269 ° 0 min 0,000 mm 4,5 UV-I 214 W/m² 12,3 °C 18,1 °C 6,4 km/h (2 Bft)
16.08.2019 12:42 18,3 °C 71 % 1017,4 hPa 0,0 mm 5,4 km/h (1 Bft) NW 316 ° 0 min 0,000 mm 6,6 UV-I 214 W/m² 12,9 °C 18,3 °C 8,0 km/h (2 Bft)
16.08.2019 12:43 18,4 °C 68 % 1017,4 hPa 0,0 mm 4,2 km/h (1 Bft) NW 320 ° 1 min 0,000 mm 6,4 UV-I 954 W/m² 12,4 °C 18,4 °C 6,4 km/h (2 Bft)
16.08.2019 12:44 18,6 °C 71 % 1017,4 hPa 0,0 mm 3,2 km/h (1 Bft) W-SW 243 ° 1 min 0,000 mm 6,5 UV-I 972 W/m² 13,2 °C 18,6 °C 6,4 km/h (2 Bft)
16.08.2019 12:45 18,7 °C 66 % 1017,4 hPa 0,0 mm 6,6 km/h (2 Bft) W-SW 254 ° 1 min 0,000 mm 7,0 UV-I 990 W/m² 12,2 °C 18,7 °C 11,3 km/h (2 Bft)
16.08.2019 12:46 18,8 °C 70 % 1017,5 hPa 0,0 mm 4,4 km/h (1 Bft) W-NW 289 ° 1 min 0,000 mm 7,0 UV-I 1004 W/m² 13,2 °C 18,8 °C 9,7 km/h (2 Bft)
16.08.2019 12:47 18,8 °C 66 % 1017,5 hPa 0,0 mm 3,5 km/h (1 Bft) W-SW 254 ° 1 min 0,000 mm 5,2 UV-I 1004 W/m² 12,3 °C 18,8 °C 6,4 km/h (2 Bft)
16.08.2019 12:48 18,8 °C 65 % 1017,4 hPa 0,0 mm 5,6 km/h (1 Bft) S-SW 200 ° 1 min 0,000 mm 7,2 UV-I 1004 W/m² 12,1 °C 18,8 °C 8,0 km/h (2 Bft)
16.08.2019 12:49 18,8 °C 63 % 1017,4 hPa 0,0 mm 0,8 km/h (0 Bft) S 188 ° 1 min 0,000 mm 7,2 UV-I 1067 W/m² 11,6 °C 18,8 °C 3,2 km/h (1 Bft)
16.08.2019 12:50 18,8 °C 67 % 1017,4 hPa 0,0 mm 3,3 km/h (1 Bft) W-SW 241 ° 1 min 0,000 mm 7,3 UV-I 1086 W/m² 12,5 °C 18,8 °C 6,4 km/h (2 Bft)
16.08.2019 12:51 18,9 °C 68 % 1017,4 hPa 0,0 mm 4,3 km/h (1 Bft) W-SW 254 ° 1 min 0,000 mm 6,9 UV-I 1086 W/m² 12,9 °C 18,9 °C 6,4 km/h (2 Bft)
16.08.2019 12:52 18,9 °C 65 % 1017,4 hPa 0,0 mm 5,5 km/h (1 Bft) W 266 ° 1 min 0,000 mm 5,3 UV-I 1086 W/m² 12,2 °C 18,9 °C 9,7 km/h (2 Bft)
16.08.2019 12:53 18,8 °C 68 % 1017,4 hPa 0,0 mm 5,4 km/h (1 Bft) NW 318 ° 1 min 0,000 mm 7,2 UV-I 1086 W/m² 12,8 °C 18,8 °C 8,0 km/h (2 Bft)
16.08.2019 12:54 19,1 °C 69 % 1017,4 hPa 0,0 mm 4,9 km/h (1 Bft) W 276 ° 1 min 0,000 mm 6,7 UV-I 1086 W/m² 13,3 °C 19,1 °C 6,4 km/h (2 Bft)
16.08.2019 12:55 19,1 °C 66 % 1017,4 hPa 0,0 mm 8,7 km/h (2 Bft) W-NW 290 ° 0 min 0,000 mm 4,8 UV-I 438 W/m² 12,6 °C 19,1 °C 14,5 km/h (3 Bft)
16.08.2019 12:56 19,1 °C 65 % 1017,4 hPa 0,0 mm 7,4 km/h (2 Bft) W 271 ° 0 min 0,000 mm 3,9 UV-I 438 W/m² 12,4 °C 19,1 °C 14,5 km/h (3 Bft)
16.08.2019 12:57 18,9 °C 65 % 1017,4 hPa 0,0 mm 9,7 km/h (2 Bft) NW 323 ° 0 min 0,000 mm 3,6 UV-I 438 W/m² 12,2 °C 18,9 °C 16,1 km/h (3 Bft)
16.08.2019 12:58 18,8 °C 67 % 1017,4 hPa 0,0 mm 6,5 km/h (2 Bft) N-NW 348 ° 0 min 0,000 mm 3,5 UV-I 388 W/m² 12,5 °C 18,8 °C 9,7 km/h (2 Bft)
16.08.2019 12:59 18,6 °C 67 % 1017,4 hPa 0,0 mm 5,9 km/h (2 Bft) N 355 ° 0 min 0,000 mm 3,8 UV-I 425 W/m² 12,3 °C 18,6 °C 9,7 km/h (2 Bft)
16.08.2019 13:00 18,5 °C 67 % 1017,4 hPa 0,0 mm 6,1 km/h (2 Bft) W-NW 299 ° 0 min 0,000 mm 4,0 UV-I 425 W/m² 12,3 °C 18,5 °C 8,0 km/h (2 Bft)
16.08.2019 13:01 18,5 °C 67 % 1017,4 hPa 0,0 mm 6,2 km/h (2 Bft) W-NW 290 ° 0 min 0,457 mm 3,4 UV-I 360 W/m² 12,3 °C 18,5 °C 9,7 km/h (2 Bft)
16.08.2019 13:02 18,4 °C 67 % 1017,4 hPa 0,0 mm 3,9 km/h (1 Bft) W-NW 297 ° 0 min 0,000 mm 3,0 UV-I 350 W/m² 12,2 °C 18,4 °C 6,4 km/h (2 Bft)
16.08.2019 13:03 18,3 °C 68 % 1017,4 hPa 0,0 mm 5,6 km/h (1 Bft) N-NW 340 ° 0 min 0,000 mm 2,8 UV-I 308 W/m² 12,3 °C 18,3 °C 9,7 km/h (2 Bft)
16.08.2019 13:04 18,2 °C 67 % 1017,4 hPa 0,0 mm 8,7 km/h (2 Bft) N-NW 332 ° 0 min 0,000 mm 2,8 UV-I 309 W/m² 12,0 °C 18,2 °C 12,9 km/h (3 Bft)
16.08.2019 13:05 18,1 °C 67 % 1017,3 hPa 0,0 mm 8,2 km/h (2 Bft) NW 323 ° 0 min 0,000 mm 2,7 UV-I 308 W/m² 11,9 °C 18,1 °C 12,9 km/h (3 Bft)
16.08.2019 13:06 17,9 °C 68 % 1017,4 hPa 0,0 mm 9,3 km/h (2 Bft) W 263 ° 0 min 0,000 mm 2,7 UV-I 323 W/m² 11,9 °C 17,9 °C 16,1 km/h (3 Bft)
16.08.2019 13:07 17,8 °C 66 % 1017,4 hPa 0,0 mm 8,0 km/h (2 Bft) W-NW 290 ° 0 min 0,000 mm 2,6 UV-I 288 W/m² 11,4 °C 17,8 °C 12,9 km/h (3 Bft)
16.08.2019 13:08 17,6 °C 68 % 1017,4 hPa 0,0 mm 7,9 km/h (2 Bft) W-NW 302 ° 0 min 0,000 mm 2,6 UV-I 260 W/m² 11,6 °C 17,6 °C 11,3 km/h (2 Bft)
16.08.2019 13:09 17,5 °C 68 % 1017,4 hPa 0,0 mm 7,4 km/h (2 Bft) NW 323 ° 0 min 0,000 mm 2,7 UV-I 267 W/m² 11,5 °C 17,5 °C 12,9 km/h (3 Bft)
16.08.2019 13:10 17,4 °C 68 % 1017,4 hPa 0,0 mm 9,9 km/h (2 Bft) NW 321 ° 0 min 0,000 mm 3,0 UV-I 278 W/m² 11,4 °C 17,4 °C 16,1 km/h (3 Bft)
16.08.2019 13:11 17,3 °C 69 % 1017,4 hPa 0,0 mm 7,6 km/h (2 Bft) NW 322 ° 0 min 0,000 mm 2,9 UV-I 269 W/m² 11,6 °C 17,3 °C 14,5 km/h (3 Bft)
16.08.2019 13:12 17,2 °C 69 % 1017,4 hPa 0,0 mm 4,6 km/h (1 Bft) N-NW 337 ° 0 min 0,000 mm 3,0 UV-I 260 W/m² 11,5 °C 17,2 °C 8,0 km/h (2 Bft)
16.08.2019 13:13 17,2 °C 71 % 1017,4 hPa 0,0 mm 3,7 km/h (1 Bft) NW 304 ° 0 min 0,000 mm 3,1 UV-I 294 W/m² 11,9 °C 17,2 °C 4,8 km/h (1 Bft)
16.08.2019 13:14 17,2 °C 72 % 1017,4 hPa 0,0 mm 6,6 km/h (2 Bft) NW 312 ° 0 min 0,000 mm 3,6 UV-I 357 W/m² 12,1 °C 17,2 °C 12,9 km/h (3 Bft)
16.08.2019 13:15 17,3 °C 72 % 1017,4 hPa 0,0 mm 6,9 km/h (2 Bft) W 264 ° 0 min 0,000 mm 5,8 UV-I 353 W/m² 12,2 °C 17,3 °C 9,7 km/h (2 Bft)
16.08.2019 13:16 17,3 °C 71 % 1017,4 hPa 0,0 mm 5,1 km/h (1 Bft) W 275 ° 0 min 0,000 mm 6,1 UV-I 353 W/m² 12,0 °C 17,3 °C 9,7 km/h (2 Bft)
16.08.2019 13:17 17,4 °C 70 % 1017,4 hPa 0,0 mm 5,8 km/h (2 Bft) NW 309 ° 0 min 0,000 mm 6,8 UV-I 353 W/m² 11,9 °C 17,4 °C 8,0 km/h (2 Bft)
16.08.2019 13:18 17,6 °C 71 % 1017,4 hPa 0,0 mm 4,8 km/h (1 Bft) N-NW 337 ° 1 min 0,000 mm 6,8 UV-I 939 W/m² 12,3 °C 17,6 °C 11,3 km/h (2 Bft)
16.08.2019 13:19 17,8 °C 73 % 1017,3 hPa 0,0 mm 5,3 km/h (1 Bft) N 349 ° 1 min 0,000 mm 6,7 UV-I 919 W/m² 12,9 °C 17,8 °C 8,0 km/h (2 Bft)
16.08.2019 13:20 18,1 °C 71 % 1017,3 hPa 0,0 mm 4,4 km/h (1 Bft) NW 315 ° 1 min 0,000 mm 6,6 UV-I 904 W/m² 12,8 °C 18,1 °C 6,4 km/h (2 Bft)
16.08.2019 13:21 18,3 °C 71 % 1017,3 hPa 0,0 mm 6,1 km/h (2 Bft) N-NW 342 ° 1 min 0,000 mm 6,6 UV-I 900 W/m² 12,9 °C 18,3 °C 12,9 km/h (3 Bft)
16.08.2019 13:22 18,4 °C 69 % 1017,3 hPa 0,0 mm 6,2 km/h (2 Bft) N-NO 15 ° 1 min 0,000 mm 6,6 UV-I 886 W/m² 12,6 °C 18,4 °C 9,7 km/h (2 Bft)
16.08.2019 13:23 18,4 °C 68 % 1017,2 hPa 0,0 mm 4,0 km/h (1 Bft) N-NO 13 ° 1 min 0,000 mm 6,6 UV-I 879 W/m² 12,4 °C 18,4 °C 6,4 km/h (2 Bft)
16.08.2019 13:24 18,5 °C 69 % 1017,2 hPa 0,0 mm 3,5 km/h (1 Bft) N-NW 340 ° 1 min 0,000 mm 6,5 UV-I 868 W/m² 12,7 °C 18,5 °C 4,8 km/h (1 Bft)
16.08.2019 13:25 18,7 °C 70 % 1017,2 hPa 0,0 mm 3,2 km/h (1 Bft) N 5 ° 1 min 0,000 mm 6,4 UV-I 863 W/m² 13,1 °C 18,7 °C 8,0 km/h (2 Bft)
16.08.2019 13:26 18,8 °C 70 % 1017,2 hPa 0,0 mm 5,0 km/h (1 Bft) W 281 ° 1 min 0,000 mm 6,5 UV-I 870 W/m² 13,2 °C 18,8 °C 8,0 km/h (2 Bft)
16.08.2019 13:27 18,8 °C 68 % 1017,2 hPa 0,0 mm 5,0 km/h (1 Bft) N 355 ° 1 min 0,000 mm 6,5 UV-I 874 W/m² 12,8 °C 18,8 °C 9,7 km/h (2 Bft)
16.08.2019 13:28 18,9 °C 70 % 1017,2 hPa 0,0 mm 12,8 km/h (3 Bft) NW 311 ° 1 min 0,000 mm 6,5 UV-I 872 W/m² 13,3 °C 18,9 °C 16,1 km/h (3 Bft)
16.08.2019 13:29 19,0 °C 67 % 1017,2 hPa 0,0 mm 9,6 km/h (2 Bft) NW 310 ° 1 min 0,000 mm 6,5 UV-I 872 W/m² 12,7 °C 19,0 °C 12,9 km/h (3 Bft)
16.08.2019 13:30 19,1 °C 67 % 1017,1 hPa 0,0 mm 4,9 km/h (1 Bft) NW 306 ° 1 min 0,000 mm 6,5 UV-I 875 W/m² 12,8 °C 19,1 °C 8,0 km/h (2 Bft)
16.08.2019 13:31 18,9 °C 65 % 1017,1 hPa 0,0 mm 6,1 km/h (2 Bft) NW 315 ° 1 min 0,000 mm 6,5 UV-I 884 W/m² 12,2 °C 18,9 °C 14,5 km/h (3 Bft)
16.08.2019 13:32 18,9 °C 68 % 1017,1 hPa 0,0 mm 10,9 km/h (2 Bft) NW 313 ° 1 min 0,000 mm 6,5 UV-I 884 W/m² 12,9 °C 18,9 °C 12,9 km/h (3 Bft)
16.08.2019 13:33 19,1 °C 70 % 1017,1 hPa 0,0 mm 5,2 km/h (1 Bft) N 5 ° 1 min 0,000 mm 6,6 UV-I 884 W/m² 13,5 °C 19,1 °C 11,3 km/h (2 Bft)
16.08.2019 13:34 18,9 °C 66 % 1017,1 hPa 0,0 mm 5,7 km/h (1 Bft) NW 309 ° 1 min 0,000 mm 6,5 UV-I 882 W/m² 12,4 °C 18,9 °C 8,0 km/h (2 Bft)
16.08.2019 13:35 18,8 °C 65 % 1017,1 hPa 0,0 mm 4,2 km/h (1 Bft) W 269 ° 1 min 0,000 mm 6,5 UV-I 881 W/m² 12,1 °C 18,8 °C 6,4 km/h (2 Bft)
16.08.2019 13:36 18,8 °C 71 % 1017,1 hPa 0,0 mm 4,0 km/h (1 Bft) NW 325 ° 1 min 0,000 mm 6,6 UV-I 884 W/m² 13,4 °C 18,8 °C 6,4 km/h (2 Bft)
16.08.2019 13:37 18,9 °C 69 % 1017,1 hPa 0,0 mm 5,5 km/h (1 Bft) NW 321 ° 1 min 0,000 mm 6,6 UV-I 888 W/m² 13,1 °C 18,9 °C 8,0 km/h (2 Bft)
16.08.2019 13:38 18,9 °C 68 % 1017,1 hPa 0,0 mm 3,0 km/h (1 Bft) NW 307 ° 1 min 0,000 mm 6,6 UV-I 893 W/m² 12,9 °C 18,9 °C 4,8 km/h (1 Bft)
16.08.2019 13:39 18,9 °C 67 % 1017,1 hPa 0,0 mm 1,9 km/h (1 Bft) NW 304 ° 1 min 0,000 mm 6,6 UV-I 900 W/m² 12,6 °C 18,9 °C 4,8 km/h (1 Bft)
16.08.2019 13:40 18,9 °C 67 % 1017,1 hPa 0,0 mm 10,7 km/h (2 Bft) NW 313 ° 1 min 0,000 mm 6,6 UV-I 909 W/m² 12,6 °C 18,9 °C 17,7 km/h (3 Bft)
16.08.2019 13:41 18,9 °C 67 % 1017,0 hPa 0,0 mm 8,2 km/h (2 Bft) NW 325 ° 1 min 0,000 mm 6,7 UV-I 923 W/m² 12,6 °C 18,9 °C 14,5 km/h (3 Bft)
16.08.2019 13:42 19,1 °C 68 % 1017,1 hPa 0,0 mm 4,7 km/h (1 Bft) N-NW 342 ° 1 min 0,000 mm 6,7 UV-I 846 W/m² 13,1 °C 19,1 °C 6,4 km/h (2 Bft)
16.08.2019 13:43 19,1 °C 65 % 1017,1 hPa 0,0 mm 5,8 km/h (2 Bft) NW 325 ° 1 min 0,000 mm 6,7 UV-I 879 W/m² 12,4 °C 19,1 °C 8,0 km/h (2 Bft)
16.08.2019 13:44 19,2 °C 66 % 1017,0 hPa 0,0 mm 5,1 km/h (1 Bft) NW 313 ° 1 min 0,000 mm 6,5 UV-I 962 W/m² 12,7 °C 19,2 °C 8,0 km/h (2 Bft)
16.08.2019 13:45 19,3 °C 65 % 1017,0 hPa 0,0 mm 8,4 km/h (2 Bft) W-NW 286 ° 1 min 0,000 mm 5,9 UV-I 879 W/m² 12,6 °C 19,3 °C 12,9 km/h (3 Bft)
16.08.2019 13:46 19,3 °C 66 % 1017,0 hPa 0,0 mm 7,2 km/h (2 Bft) N-NW 331 ° 1 min 0,000 mm 5,9 UV-I 789 W/m² 12,8 °C 19,3 °C 17,7 km/h (3 Bft)
16.08.2019 13:47 19,4 °C 68 % 1017,0 hPa 0,0 mm 9,7 km/h (2 Bft) NW 315 ° 1 min 0,000 mm 6,6 UV-I 789 W/m² 13,3 °C 19,4 °C 12,9 km/h (3 Bft)
16.08.2019 13:48 19,3 °C 65 % 1017,1 hPa 0,0 mm 7,6 km/h (2 Bft) N 350 ° 1 min 0,000 mm 6,8 UV-I 1009 W/m² 12,6 °C 19,3 °C 12,9 km/h (3 Bft)
16.08.2019 13:49 19,3 °C 68 % 1017,0 hPa 0,0 mm 9,5 km/h (2 Bft) NW 321 ° 1 min 0,000 mm 3,2 UV-I 1009 W/m² 13,2 °C 19,3 °C 17,7 km/h (3 Bft)
16.08.2019 13:50 19,2 °C 66 % 1017,0 hPa 0,0 mm 8,1 km/h (2 Bft) N-NW 345 ° 0 min 0,000 mm 3,1 UV-I 214 W/m² 12,7 °C 19,2 °C 16,1 km/h (3 Bft)
16.08.2019 13:51 19,0 °C 65 % 1017,1 hPa 0,0 mm 7,4 km/h (2 Bft) W 268 ° 0 min 0,000 mm 3,0 UV-I 204 W/m² 12,3 °C 19,0 °C 11,3 km/h (2 Bft)
16.08.2019 13:52 18,7 °C 65 % 1017,0 hPa 0,0 mm 4,7 km/h (1 Bft) W-NW 295 ° 0 min 0,000 mm 3,1 UV-I 221 W/m² 12,0 °C 18,7 °C 14,5 km/h (3 Bft)
16.08.2019 13:53 18,5 °C 65 % 1017,0 hPa 0,0 mm 3,6 km/h (1 Bft) W 274 ° 0 min 0,000 mm 3,1 UV-I 236 W/m² 11,8 °C 18,5 °C 4,8 km/h (1 Bft)
16.08.2019 13:54 18,3 °C 66 % 1017,0 hPa 0,0 mm 6,9 km/h (2 Bft) NW 317 ° 0 min 0,000 mm 6,2 UV-I 236 W/m² 11,8 °C 18,3 °C 14,5 km/h (3 Bft)
16.08.2019 13:55 18,3 °C 69 % 1017,0 hPa 0,0 mm 7,2 km/h (2 Bft) W-NW 284 ° 0 min 0,000 mm 3,3 UV-I 236 W/m² 12,5 °C 18,3 °C 11,3 km/h (2 Bft)
16.08.2019 13:56 18,3 °C 66 % 1017,0 hPa 0,0 mm 6,8 km/h (2 Bft) W-NW 293 ° 0 min 0,000 mm 6,6 UV-I 236 W/m² 11,8 °C 18,3 °C 9,7 km/h (2 Bft)
16.08.2019 13:57 18,2 °C 67 % 1017,0 hPa 0,0 mm 3,5 km/h (1 Bft) N 360 ° 1 min 0,000 mm 6,5 UV-I 911 W/m² 12,0 °C 18,2 °C 6,4 km/h (2 Bft)
16.08.2019 13:58 18,4 °C 68 % 1017,0 hPa 0,0 mm 7,1 km/h (2 Bft) W-NW 297 ° 1 min 0,000 mm 6,4 UV-I 900 W/m² 12,4 °C 18,4 °C 14,5 km/h (3 Bft)
16.08.2019 13:59 18,6 °C 68 % 1017,0 hPa 0,0 mm 4,2 km/h (1 Bft) N 355 ° 1 min 0,000 mm 5,6 UV-I 912 W/m² 12,6 °C 18,6 °C 6,4 km/h (2 Bft)
16.08.2019 14:00 18,8 °C 70 % 1017,0 hPa 0,0 mm 4,6 km/h (1 Bft) W 274 ° 1 min 0,000 mm 6,3 UV-I 912 W/m² 13,2 °C 18,8 °C 9,7 km/h (2 Bft)
16.08.2019 14:01 18,8 °C 70 % 1017,0 hPa 0,0 mm 7,6 km/h (2 Bft) N-NW 340 ° 0 min 0,406 mm 2,8 UV-I 130 W/m² 13,2 °C 18,8 °C 14,5 km/h (3 Bft)
16.08.2019 14:02 18,8 °C 65 % 1017,0 hPa 0,0 mm 13,7 km/h (3 Bft) W 277 ° 0 min 0,000 mm 2,8 UV-I 127 W/m² 12,1 °C 18,8 °C 17,7 km/h (3 Bft)
16.08.2019 14:03 18,6 °C 66 % 1017,0 hPa 0,0 mm 8,8 km/h (2 Bft) W 279 ° 0 min 0,000 mm 2,8 UV-I 130 W/m² 12,1 °C 18,6 °C 12,9 km/h (3 Bft)
16.08.2019 14:04 18,4 °C 64 % 1017,0 hPa 0,0 mm 6,2 km/h (2 Bft) W-NW 292 ° 0 min 0,000 mm 3,0 UV-I 200 W/m² 11,5 °C 18,4 °C 11,3 km/h (2 Bft)
16.08.2019 14:05 18,3 °C 66 % 1016,9 hPa 0,0 mm 5,7 km/h (1 Bft) W-SW 258 ° 0 min 0,000 mm 6,6 UV-I 200 W/m² 11,8 °C 18,3 °C 11,3 km/h (2 Bft)
16.08.2019 14:06 18,2 °C 67 % 1016,9 hPa 0,0 mm 7,8 km/h (2 Bft) N-NW 330 ° 1 min 0,000 mm 6,4 UV-I 886 W/m² 12,0 °C 18,2 °C 14,5 km/h (3 Bft)
16.08.2019 14:07 18,2 °C 67 % 1016,9 hPa 0,0 mm 4,6 km/h (1 Bft) W 276 ° 1 min 0,000 mm 6,4 UV-I 879 W/m² 12,0 °C 18,2 °C 6,4 km/h (2 Bft)
16.08.2019 14:08 18,4 °C 67 % 1016,9 hPa 0,0 mm 5,3 km/h (1 Bft) W-NW 298 ° 1 min 0,000 mm 6,4 UV-I 870 W/m² 12,2 °C 18,4 °C 14,5 km/h (3 Bft)
16.08.2019 14:09 18,6 °C 69 % 1016,8 hPa 0,0 mm 7,1 km/h (2 Bft) SW 229 ° 1 min 0,000 mm 6,3 UV-I 865 W/m² 12,8 °C 18,6 °C 12,9 km/h (3 Bft)
16.08.2019 14:10 18,8 °C 69 % 1016,8 hPa 0,0 mm 6,9 km/h (2 Bft) W-SW 250 ° 1 min 0,000 mm 6,4 UV-I 868 W/m² 13,0 °C 18,8 °C 14,5 km/h (3 Bft)
16.08.2019 14:11 19,0 °C 68 % 1016,8 hPa 0,0 mm 11,5 km/h (2 Bft) W-NW 292 ° 1 min 0,000 mm 6,4 UV-I 865 W/m² 13,0 °C 19,0 °C 17,7 km/h (3 Bft)
16.08.2019 14:12 19,1 °C 66 % 1016,9 hPa 0,0 mm 9,7 km/h (2 Bft) N-NW 337 ° 1 min 0,000 mm 6,3 UV-I 854 W/m² 12,6 °C 19,1 °C 16,1 km/h (3 Bft)
16.08.2019 14:13 19,0 °C 64 % 1016,8 hPa 0,0 mm 12,9 km/h (3 Bft) NW 309 ° 1 min 0,000 mm 6,3 UV-I 846 W/m² 12,0 °C 19,0 °C 16,1 km/h (3 Bft)
16.08.2019 14:14 19,0 °C 66 % 1016,8 hPa 0,0 mm 5,1 km/h (1 Bft) W 280 ° 1 min 0,000 mm 6,3 UV-I 842 W/m² 12,5 °C 19,0 °C 9,7 km/h (2 Bft)
16.08.2019 14:15 18,9 °C 63 % 1016,8 hPa 0,0 mm 5,4 km/h (1 Bft) W-NW 287 ° 1 min 0,000 mm 6,2 UV-I 840 W/m² 11,7 °C 18,9 °C 9,7 km/h (2 Bft)
16.08.2019 14:16 18,8 °C 64 % 1016,8 hPa 0,0 mm 3,6 km/h (1 Bft) NW 313 ° 1 min 0,000 mm 5,3 UV-I 854 W/m² 11,8 °C 18,8 °C 6,4 km/h (2 Bft)
16.08.2019 14:17 18,9 °C 64 % 1016,8 hPa 0,0 mm 0,5 km/h (0 Bft) NW 311 ° 1 min 0,000 mm 6,2 UV-I 854 W/m² 11,9 °C 18,9 °C 3,2 km/h (1 Bft)
16.08.2019 14:18 18,9 °C 65 % 1016,8 hPa 0,0 mm 5,4 km/h (1 Bft) W-NW 286 ° 1 min 0,000 mm 5,5 UV-I 856 W/m² 12,2 °C 18,9 °C 9,7 km/h (2 Bft)
16.08.2019 14:19 19,0 °C 65 % 1016,7 hPa 0,0 mm 2,4 km/h (1 Bft) W-NW 293 ° 1 min 0,000 mm 3,2 UV-I 856 W/m² 12,3 °C 19,0 °C 8,0 km/h (2 Bft)
16.08.2019 14:20 18,9 °C 62 % 1016,7 hPa 0,0 mm 0,6 km/h (0 Bft) W-NW 294 ° 1 min 0,000 mm 5,0 UV-I 856 W/m² 11,5 °C 18,9 °C 3,2 km/h (1 Bft)
16.08.2019 14:21 18,8 °C 64 % 1016,7 hPa 0,0 mm 5,1 km/h (1 Bft) N-NW 329 ° 1 min 0,000 mm 6,3 UV-I 856 W/m² 11,8 °C 18,8 °C 9,7 km/h (2 Bft)
16.08.2019 14:22 18,9 °C 64 % 1016,7 hPa 0,0 mm 8,0 km/h (2 Bft) W-NW 300 ° 1 min 0,000 mm 6,2 UV-I 837 W/m² 11,9 °C 18,9 °C 16,1 km/h (3 Bft)
16.08.2019 14:23 19,1 °C 65 % 1016,7 hPa 0,0 mm 6,4 km/h (2 Bft) N-NW 327 ° 1 min 0,000 mm 6,2 UV-I 831 W/m² 12,4 °C 19,1 °C 9,7 km/h (2 Bft)
16.08.2019 14:24 19,1 °C 64 % 1016,7 hPa 0,0 mm 2,8 km/h (1 Bft) W-NW 286 ° 1 min 0,000 mm 6,2 UV-I 831 W/m² 12,1 °C 19,1 °C 4,8 km/h (1 Bft)
16.08.2019 14:25 19,2 °C 67 % 1016,7 hPa 0,0 mm 1,6 km/h (1 Bft) W-NW 286 ° 1 min 0,000 mm 6,2 UV-I 833 W/m² 12,9 °C 19,2 °C 3,2 km/h (1 Bft)
16.08.2019 14:26 19,3 °C 62 % 1016,6 hPa 0,0 mm 4,6 km/h (1 Bft) W-NW 296 ° 1 min 0,000 mm 6,2 UV-I 830 W/m² 11,8 °C 19,3 °C 6,4 km/h (2 Bft)
16.08.2019 14:27 19,2 °C 59 % 1016,6 hPa 0,0 mm 2,7 km/h (1 Bft) W-NW 290 ° 1 min 0,000 mm 4,6 UV-I 842 W/m² 11,0 °C 19,2 °C 4,8 km/h (1 Bft)
16.08.2019 14:28 19,1 °C 59 % 1016,6 hPa 0,0 mm 0,6 km/h (0 Bft) W-NW 291 ° 1 min 0,000 mm 5,2 UV-I 842 W/m² 10,9 °C 19,1 °C 1,6 km/h (1 Bft)
16.08.2019 14:29 18,9 °C 61 % 1016,7 hPa 0,0 mm 4,7 km/h (1 Bft) W 279 ° 1 min 0,000 mm 4,1 UV-I 842 W/m² 11,2 °C 18,9 °C 11,3 km/h (2 Bft)
16.08.2019 14:30 18,8 °C 61 % 1016,6 hPa 0,0 mm 2,5 km/h (1 Bft) W-NW 295 ° 1 min 0,000 mm 5,8 UV-I 842 W/m² 11,1 °C 18,8 °C 4,8 km/h (1 Bft)
16.08.2019 14:31 18,8 °C 62 % 1016,6 hPa 0,0 mm 3,2 km/h (1 Bft) W-NW 294 ° 1 min 0,000 mm 5,0 UV-I 842 W/m² 11,4 °C 18,8 °C 4,8 km/h (1 Bft)
16.08.2019 14:32 18,8 °C 62 % 1016,6 hPa 0,0 mm 6,7 km/h (2 Bft) NW 323 ° 1 min 0,000 mm 6,0 UV-I 844 W/m² 11,4 °C 18,8 °C 9,7 km/h (2 Bft)
16.08.2019 14:33 18,9 °C 62 % 1016,6 hPa 0,0 mm 3,6 km/h (1 Bft) W-NW 284 ° 1 min 0,000 mm 6,1 UV-I 842 W/m² 11,5 °C 18,9 °C 4,8 km/h (1 Bft)
16.08.2019 14:34 18,9 °C 61 % 1016,6 hPa 0,0 mm 3,2 km/h (1 Bft) W 269 ° 1 min 0,000 mm 6,1 UV-I 840 W/m² 11,2 °C 18,9 °C 9,7 km/h (2 Bft)
16.08.2019 14:35 18,9 °C 60 % 1016,6 hPa 0,0 mm 4,6 km/h (1 Bft) W 279 ° 1 min 0,000 mm 6,1 UV-I 842 W/m² 11,0 °C 18,9 °C 6,4 km/h (2 Bft)
16.08.2019 14:36 19,1 °C 63 % 1016,6 hPa 0,0 mm 9,1 km/h (2 Bft) W-SW 252 ° 1 min 0,000 mm 6,1 UV-I 856 W/m² 11,9 °C 19,1 °C 12,9 km/h (3 Bft)
16.08.2019 14:37 19,1 °C 62 % 1016,6 hPa 0,0 mm 8,4 km/h (2 Bft) W 271 ° 1 min 0,000 mm 6,1 UV-I 835 W/m² 11,6 °C 19,1 °C 12,9 km/h (3 Bft)
16.08.2019 14:38 19,1 °C 61 % 1016,6 hPa 0,0 mm 8,9 km/h (2 Bft) W-NW 286 ° 1 min 0,000 mm 6,1 UV-I 837 W/m² 11,4 °C 19,1 °C 16,1 km/h (3 Bft)
16.08.2019 14:39 19,1 °C 60 % 1016,6 hPa 0,0 mm 5,4 km/h (1 Bft) NW 308 ° 1 min 0,000 mm 6,0 UV-I 833 W/m² 11,1 °C 19,1 °C 11,3 km/h (2 Bft)
16.08.2019 14:40 19,0 °C 62 % 1016,6 hPa 0,0 mm 2,1 km/h (1 Bft) NW 308 ° 1 min 0,000 mm 5,9 UV-I 809 W/m² 11,6 °C 19,0 °C 3,2 km/h (1 Bft)
16.08.2019 14:41 19,1 °C 63 % 1016,5 hPa 0,0 mm 1,4 km/h (1 Bft) NW 308 ° 1 min 0,000 mm 5,9 UV-I 828 W/m² 11,9 °C 19,1 °C 3,2 km/h (1 Bft)
16.08.2019 14:42 19,2 °C 61 % 1016,5 hPa 0,0 mm 1,4 km/h (1 Bft) NW 308 ° 1 min 0,000 mm 5,3 UV-I 851 W/m² 11,5 °C 19,2 °C 3,2 km/h (1 Bft)
16.08.2019 14:43 19,4 °C 62 % 1016,5 hPa 0,0 mm 4,0 km/h (1 Bft) N 355 ° 1 min 0,000 mm 3,2 UV-I 851 W/m² 11,9 °C 19,4 °C 6,4 km/h (2 Bft)
16.08.2019 14:44 19,4 °C 61 % 1016,5 hPa 0,0 mm 3,0 km/h (1 Bft) NW 312 ° 1 min 0,000 mm 3,6 UV-I 851 W/m² 11,7 °C 19,4 °C 6,4 km/h (2 Bft)
16.08.2019 14:45 19,3 °C 62 % 1016,5 hPa 0,0 mm 5,1 km/h (1 Bft) N-NW 333 ° 0 min 0,000 mm 3,1 UV-I 211 W/m² 11,8 °C 19,3 °C 9,7 km/h (2 Bft)
16.08.2019 14:46 19,3 °C 63 % 1016,5 hPa 0,0 mm 1,3 km/h (1 Bft) N-NW 333 ° 0 min 0,000 mm 3,8 UV-I 211 W/m² 12,1 °C 19,3 °C 3,2 km/h (1 Bft)
16.08.2019 14:47 19,2 °C 61 % 1016,4 hPa 0,0 mm 1,0 km/h (0 Bft) NW 326 ° 0 min 0,000 mm 4,1 UV-I 211 W/m² 11,5 °C 19,2 °C 4,8 km/h (1 Bft)
16.08.2019 14:48 19,1 °C 59 % 1016,5 hPa 0,0 mm 7,0 km/h (2 Bft) W-NW 296 ° 0 min 0,000 mm 2,9 UV-I 200 W/m² 10,9 °C 19,1 °C 12,9 km/h (3 Bft)
16.08.2019 14:49 18,9 °C 62 % 1016,5 hPa 0,0 mm 4,7 km/h (1 Bft) W-NW 290 ° 0 min 0,000 mm 3,0 UV-I 202 W/m² 11,5 °C 18,9 °C 8,0 km/h (2 Bft)
16.08.2019 14:50 18,8 °C 65 % 1016,5 hPa 0,0 mm 2,9 km/h (1 Bft) W-SW 243 ° 0 min 0,000 mm 4,8 UV-I 202 W/m² 12,1 °C 18,8 °C 4,8 km/h (1 Bft)
16.08.2019 14:51 18,8 °C 63 % 1016,4 hPa 0,0 mm 2,7 km/h (1 Bft) W-SW 250 ° 0 min 0,000 mm 5,8 UV-I 202 W/m² 11,6 °C 18,8 °C 4,8 km/h (1 Bft)
16.08.2019 14:52 18,9 °C 61 % 1016,4 hPa 0,0 mm 3,3 km/h (1 Bft) W 269 ° 1 min 0,000 mm 5,9 UV-I 921 W/m² 11,2 °C 18,9 °C 9,7 km/h (2 Bft)
16.08.2019 14:53 19,1 °C 67 % 1016,4 hPa 0,0 mm 6,1 km/h (2 Bft) W-SW 250 ° 1 min 0,000 mm 5,9 UV-I 898 W/m² 12,8 °C 19,1 °C 9,7 km/h (2 Bft)
16.08.2019 14:54 19,4 °C 64 % 1016,4 hPa 0,0 mm 3,6 km/h (1 Bft) W-SW 246 ° 1 min 0,000 mm 6,0 UV-I 884 W/m² 12,4 °C 19,4 °C 4,8 km/h (1 Bft)
16.08.2019 14:55 19,6 °C 65 % 1016,4 hPa 0,0 mm 2,5 km/h (1 Bft) W-SW 246 ° 1 min 0,000 mm 5,8 UV-I 877 W/m² 12,8 °C 19,6 °C 4,8 km/h (1 Bft)
16.08.2019 14:56 19,7 °C 66 % 1016,4 hPa 0,0 mm 2,0 km/h (1 Bft) W-SW 246 ° 1 min 0,000 mm 5,8 UV-I 844 W/m² 13,2 °C 19,7 °C 4,8 km/h (1 Bft)
16.08.2019 14:57 19,6 °C 58 % 1016,3 hPa 0,0 mm 0,1 km/h (0 Bft) W-SW 246 ° 1 min 0,000 mm 5,7 UV-I 837 W/m² 11,1 °C 19,6 °C 1,6 km/h (1 Bft)
16.08.2019 14:58 19,7 °C 61 % 1016,3 hPa 0,0 mm 0,6 km/h (0 Bft) W-SW 252 ° 1 min 0,000 mm 5,8 UV-I 851 W/m² 12,0 °C 19,7 °C 3,2 km/h (1 Bft)
16.08.2019 14:59 19,7 °C 63 % 1016,3 hPa 0,0 mm 2,8 km/h (1 Bft) W-SW 251 ° 1 min 0,000 mm 5,8 UV-I 865 W/m² 12,5 °C 19,7 °C 4,8 km/h (1 Bft)
16.08.2019 15:00 19,7 °C 57 % 1016,3 hPa 0,0 mm 6,8 km/h (2 Bft) NW 319 ° 1 min 0,000 mm 5,8 UV-I 889 W/m² 10,9 °C 19,7 °C 12,9 km/h (3 Bft)
16.08.2019 15:01 19,7 °C 58 % 1016,3 hPa 0,0 mm 7,3 km/h (2 Bft) W-SW 249 ° 1 min 0,432 mm 3,9 UV-I 889 W/m² 11,2 °C 19,7 °C 12,9 km/h (3 Bft)
16.08.2019 15:02 19,7 °C 59 % 1016,3 hPa 0,0 mm 5,5 km/h (1 Bft) W-NW 294 ° 1 min 0,000 mm 3,0 UV-I 889 W/m² 11,5 °C 19,7 °C 8,0 km/h (2 Bft)
16.08.2019 15:03 19,6 °C 59 % 1016,3 hPa 0,0 mm 6,6 km/h (2 Bft) W 278 ° 0 min 0,000 mm 2,9 UV-I 220 W/m² 11,4 °C 19,6 °C 11,3 km/h (2 Bft)
16.08.2019 15:04 19,4 °C 60 % 1016,3 hPa 0,0 mm 5,1 km/h (1 Bft) NW 324 ° 0 min 0,000 mm 2,8 UV-I 199 W/m² 11,4 °C 19,4 °C 11,3 km/h (2 Bft)
16.08.2019 15:05 19,3 °C 61 % 1016,3 hPa 0,0 mm 4,7 km/h (1 Bft) NW 311 ° 0 min 0,000 mm 2,8 UV-I 209 W/m² 11,6 °C 19,3 °C 8,0 km/h (2 Bft)
16.08.2019 15:06 19,1 °C 62 % 1016,3 hPa 0,0 mm 4,4 km/h (1 Bft) NW 325 ° 0 min 0,000 mm 2,9 UV-I 230 W/m² 11,6 °C 19,1 °C 8,0 km/h (2 Bft)
16.08.2019 15:07 19,0 °C 62 % 1016,3 hPa 0,0 mm 4,6 km/h (1 Bft) NW 323 ° 0 min 0,000 mm 4,0 UV-I 230 W/m² 11,6 °C 19,0 °C 9,7 km/h (2 Bft)
16.08.2019 15:08 19,0 °C 61 % 1016,3 hPa 0,0 mm 4,5 km/h (1 Bft) NW 311 ° 0 min 0,000 mm 5,5 UV-I 230 W/m² 11,3 °C 19,0 °C 6,4 km/h (2 Bft)
16.08.2019 15:09 19,1 °C 64 % 1016,3 hPa 0,0 mm 4,0 km/h (1 Bft) N-NW 335 ° 1 min 0,000 mm 5,1 UV-I 838 W/m² 12,1 °C 19,1 °C 6,4 km/h (2 Bft)
16.08.2019 15:10 19,2 °C 60 % 1016,3 hPa 0,0 mm 1,4 km/h (1 Bft) N-NW 336 ° 1 min 0,000 mm 5,4 UV-I 823 W/m² 11,2 °C 19,2 °C 3,2 km/h (1 Bft)
16.08.2019 15:11 19,3 °C 61 % 1016,3 hPa 0,0 mm 4,3 km/h (1 Bft) N-NW 327 ° 1 min 0,000 mm 5,5 UV-I 819 W/m² 11,6 °C 19,3 °C 6,4 km/h (2 Bft)
16.08.2019 15:12 19,4 °C 61 % 1016,2 hPa 0,0 mm 2,2 km/h (1 Bft) N 360 ° 1 min 0,000 mm 5,4 UV-I 807 W/m² 11,7 °C 19,4 °C 4,8 km/h (1 Bft)
16.08.2019 15:13 19,4 °C 57 % 1016,2 hPa 0,0 mm 0,7 km/h (0 Bft) N 9 ° 1 min 0,000 mm 5,0 UV-I 807 W/m² 10,7 °C 19,4 °C 3,2 km/h (1 Bft)
16.08.2019 15:14 19,3 °C 58 % 1016,2 hPa 0,0 mm 2,1 km/h (1 Bft) N 5 ° 1 min 0,000 mm 5,1 UV-I 807 W/m² 10,8 °C 19,3 °C 4,8 km/h (1 Bft)
16.08.2019 15:15 19,2 °C 59 % 1016,2 hPa 0,0 mm 0,0 km/h (0 Bft) N 5 ° 1 min 0,000 mm 5,3 UV-I 765 W/m² 11,0 °C 19,2 °C 0,0 km/h (0 Bft)
16.08.2019 15:16 19,2 °C 58 % 1016,2 hPa 0,0 mm 0,0 km/h (0 Bft) N 5 ° 1 min 0,000 mm 5,2 UV-I 768 W/m² 10,7 °C 19,2 °C 0,0 km/h (0 Bft)
16.08.2019 15:17 19,2 °C 59 % 1016,2 hPa 0,0 mm 0,0 km/h (0 Bft) N 5 ° 1 min 0,000 mm 5,0 UV-I 754 W/m² 11,0 °C 19,2 °C 0,0 km/h (0 Bft)
16.08.2019 15:18 19,3 °C 58 % 1016,2 hPa 0,0 mm 1,3 km/h (1 Bft) N 360 ° 1 min 0,000 mm 2,8 UV-I 754 W/m² 10,8 °C 19,3 °C 3,2 km/h (1 Bft)
16.08.2019 15:19 19,4 °C 62 % 1016,2 hPa 0,0 mm 0,6 km/h (0 Bft) N 360 ° 1 min 0,000 mm 2,6 UV-I 754 W/m² 11,9 °C 19,4 °C 3,2 km/h (1 Bft)
16.08.2019 15:20 19,4 °C 60 % 1016,2 hPa 0,0 mm 0,0 km/h (0 Bft) N 360 ° 0 min 0,000 mm 2,6 UV-I 188 W/m² 11,4 °C 19,4 °C 0,0 km/h (0 Bft)
16.08.2019 15:21 19,4 °C 59 % 1016,2 hPa 0,0 mm 0,2 km/h (0 Bft) W-NW 293 ° 0 min 0,000 mm 2,5 UV-I 185 W/m² 11,2 °C 19,4 °C 3,2 km/h (1 Bft)
16.08.2019 15:22 19,3 °C 60 % 1016,2 hPa 0,0 mm 3,3 km/h (1 Bft) NW 314 ° 0 min 0,000 mm 2,6 UV-I 297 W/m² 11,3 °C 19,3 °C 4,8 km/h (1 Bft)
16.08.2019 15:23 19,2 °C 58 % 1016,2 hPa 0,0 mm 3,1 km/h (1 Bft) W 279 ° 0 min 0,000 mm 3,7 UV-I 297 W/m² 10,7 °C 19,2 °C 6,4 km/h (2 Bft)
16.08.2019 15:24 19,1 °C 59 % 1016,2 hPa 0,0 mm 4,1 km/h (1 Bft) W 279 ° 0 min 0,000 mm 3,1 UV-I 297 W/m² 10,9 °C 19,1 °C 6,4 km/h (2 Bft)
16.08.2019 15:25 19,1 °C 59 % 1016,2 hPa 0,0 mm 3,1 km/h (1 Bft) W 279 ° 0 min 0,000 mm 2,5 UV-I 202 W/m² 10,9 °C 19,1 °C 4,8 km/h (1 Bft)
16.08.2019 15:26 19,0 °C 59 % 1016,2 hPa 0,0 mm 1,7 km/h (1 Bft) W 279 ° 0 min 0,000 mm 2,4 UV-I 174 W/m² 10,8 °C 19,0 °C 3,2 km/h (1 Bft)
16.08.2019 15:27 18,9 °C 59 % 1016,2 hPa 0,0 mm 0,5 km/h (0 Bft) W 279 ° 0 min 0,000 mm 2,4 UV-I 158 W/m² 10,7 °C 18,9 °C 3,2 km/h (1 Bft)
16.08.2019 15:28 18,8 °C 60 % 1016,2 hPa 0,0 mm 2,8 km/h (1 Bft) W 279 ° 0 min 0,000 mm 2,4 UV-I 167 W/m² 10,9 °C 18,8 °C 3,2 km/h (1 Bft)
16.08.2019 15:29 18,8 °C 62 % 1016,2 hPa 0,0 mm 3,1 km/h (1 Bft) W 279 ° 0 min 0,000 mm 2,5 UV-I 179 W/m² 11,4 °C 18,8 °C 6,4 km/h (2 Bft)
16.08.2019 15:30 18,7 °C 63 % 1016,1 hPa 0,0 mm 3,5 km/h (1 Bft) W 279 ° 0 min 0,000 mm 3,4 UV-I 179 W/m² 11,5 °C 18,7 °C 6,4 km/h (2 Bft)
16.08.2019 15:31 18,7 °C 68 % 1016,2 hPa 0,0 mm 3,6 km/h (1 Bft) W-SW 257 ° 0 min 0,000 mm 4,7 UV-I 179 W/m² 12,7 °C 18,7 °C 6,4 km/h (2 Bft)
16.08.2019 15:32 18,8 °C 63 % 1016,2 hPa 0,0 mm 3,2 km/h (1 Bft) W 279 ° 0 min 0,000 mm 4,8 UV-I 179 W/m² 11,6 °C 18,8 °C 4,8 km/h (1 Bft)
16.08.2019 15:33 18,9 °C 64 % 1016,1 hPa 0,0 mm 3,3 km/h (1 Bft) W-NW 300 ° 1 min 0,000 mm 4,9 UV-I 733 W/m² 11,9 °C 18,9 °C 6,4 km/h (2 Bft)
16.08.2019 15:34 19,1 °C 62 % 1016,1 hPa 0,0 mm 5,1 km/h (1 Bft) W-NW 298 ° 1 min 0,000 mm 4,9 UV-I 700 W/m² 11,6 °C 19,1 °C 8,0 km/h (2 Bft)
16.08.2019 15:35 19,2 °C 62 % 1016,1 hPa 0,0 mm 4,2 km/h (1 Bft) W-NW 295 ° 1 min 0,000 mm 4,8 UV-I 686 W/m² 11,7 °C 19,2 °C 6,4 km/h (2 Bft)
16.08.2019 15:36 19,3 °C 61 % 1016,1 hPa 0,0 mm 4,2 km/h (1 Bft) W 271 ° 1 min 0,000 mm 4,6 UV-I 680 W/m² 11,6 °C 19,3 °C 4,8 km/h (1 Bft)
16.08.2019 15:37 19,3 °C 62 % 1016,0 hPa 0,0 mm 4,4 km/h (1 Bft) W 265 ° 1 min 0,000 mm 2,5 UV-I 680 W/m² 11,8 °C 19,3 °C 6,4 km/h (2 Bft)
16.08.2019 15:38 19,2 °C 62 % 1016,1 hPa 0,0 mm 3,4 km/h (1 Bft) W 267 ° 0 min 0,000 mm 2,4 UV-I 134 W/m² 11,7 °C 19,2 °C 4,8 km/h (1 Bft)
16.08.2019 15:39 19,2 °C 61 % 1016,1 hPa 0,0 mm 2,9 km/h (1 Bft) W 267 ° 0 min 0,000 mm 2,4 UV-I 142 W/m² 11,5 °C 19,2 °C 4,8 km/h (1 Bft)
16.08.2019 15:40 18,9 °C 61 % 1016,1 hPa 0,0 mm 3,9 km/h (1 Bft) W-SW 250 ° 0 min 0,000 mm 2,4 UV-I 153 W/m² 11,2 °C 18,9 °C 11,3 km/h (2 Bft)
16.08.2019 15:41 18,8 °C 64 % 1016,1 hPa 0,0 mm 4,7 km/h (1 Bft) W-SW 254 ° 0 min 0,000 mm 3,7 UV-I 153 W/m² 11,8 °C 18,8 °C 6,4 km/h (2 Bft)
16.08.2019 15:42 18,7 °C 68 % 1016,0 hPa 0,0 mm 0,6 km/h (0 Bft) W-SW 254 ° 0 min 0,000 mm 3,7 UV-I 482 W/m² 12,7 °C 18,7 °C 3,2 km/h (1 Bft)
16.08.2019 15:43 18,6 °C 68 % 1016,1 hPa 0,0 mm 4,7 km/h (1 Bft) W-NW 300 ° 0 min 0,000 mm 2,9 UV-I 482 W/m² 12,6 °C 18,6 °C 6,4 km/h (2 Bft)
16.08.2019 15:44 18,6 °C 61 % 1016,1 hPa 0,0 mm 3,6 km/h (1 Bft) SW 228 ° 0 min 0,000 mm 4,4 UV-I 482 W/m² 10,9 °C 18,6 °C 6,4 km/h (2 Bft)
16.08.2019 15:45 18,6 °C 60 % 1016,1 hPa 0,0 mm 2,7 km/h (1 Bft) W-NW 294 ° 0 min 0,000 mm 2,7 UV-I 482 W/m² 10,7 °C 18,6 °C 6,4 km/h (2 Bft)
16.08.2019 15:46 18,6 °C 60 % 1016,1 hPa 0,0 mm 4,6 km/h (1 Bft) W 271 ° 0 min 0,000 mm 2,5 UV-I 178 W/m² 10,7 °C 18,6 °C 6,4 km/h (2 Bft)
16.08.2019 15:47 18,7 °C 60 % 1016,1 hPa 0,0 mm 3,8 km/h (1 Bft) W 271 ° 0 min 0,000 mm 2,4 UV-I 171 W/m² 10,8 °C 18,7 °C 4,8 km/h (1 Bft)
16.08.2019 15:48 18,6 °C 62 % 1016,0 hPa 0,0 mm 0,3 km/h (0 Bft) W 271 ° 0 min 0,000 mm 2,4 UV-I 169 W/m² 11,2 °C 18,6 °C 1,6 km/h (1 Bft)
16.08.2019 15:49 18,6 °C 61 % 1016,0 hPa 0,0 mm 2,1 km/h (1 Bft) W 271 ° 0 min 0,000 mm 2,3 UV-I 162 W/m² 10,9 °C 18,6 °C 3,2 km/h (1 Bft)
16.08.2019 15:50 18,6 °C 62 % 1016,0 hPa 0,0 mm 0,6 km/h (0 Bft) W 271 ° 0 min 0,000 mm 2,3 UV-I 162 W/m² 11,2 °C 18,6 °C 1,6 km/h (1 Bft)
16.08.2019 15:51 18,6 °C 64 % 1016,0 hPa 0,0 mm 0,7 km/h (0 Bft) W 271 ° 0 min 0,000 mm 2,2 UV-I 158 W/m² 11,7 °C 18,6 °C 3,2 km/h (1 Bft)
16.08.2019 15:52 18,4 °C 64 % 1016,1 hPa 0,0 mm 0,0 km/h (0 Bft) W 271 ° 0 min 0,000 mm 2,2 UV-I 158 W/m² 11,5 °C 18,4 °C 0,0 km/h (0 Bft)
16.08.2019 15:53 18,4 °C 64 % 1016,0 hPa 0,0 mm 0,0 km/h (0 Bft) W 271 ° 0 min 0,000 mm 2,2 UV-I 163 W/m² 11,5 °C 18,4 °C 0,0 km/h (0 Bft)
16.08.2019 15:54 18,4 °C 67 % 1016,1 hPa 0,0 mm 0,7 km/h (0 Bft) W 261 ° 0 min 0,000 mm 2,2 UV-I 174 W/m² 12,2 °C 18,4 °C 6,4 km/h (2 Bft)
16.08.2019 15:55 18,3 °C 65 % 1016,1 hPa 0,0 mm 4,7 km/h (1 Bft) W 270 ° 0 min 0,000 mm 2,2 UV-I 183 W/m² 11,6 °C 18,3 °C 6,4 km/h (2 Bft)
16.08.2019 15:56 18,3 °C 67 % 1016,1 hPa 0,0 mm 1,5 km/h (1 Bft) W 270 ° 0 min 0,000 mm 2,3 UV-I 185 W/m² 12,1 °C 18,3 °C 4,8 km/h (1 Bft)
16.08.2019 15:57 18,2 °C 68 % 1016,0 hPa 0,0 mm 0,0 km/h (0 Bft) W 270 ° 0 min 0,000 mm 2,3 UV-I 192 W/m² 12,2 °C 18,2 °C 0,0 km/h (0 Bft)
16.08.2019 15:58 18,2 °C 69 % 1016,0 hPa 0,0 mm 0,0 km/h (0 Bft) W 270 ° 0 min 0,000 mm 2,5 UV-I 265 W/m² 12,4 °C 18,2 °C 0,0 km/h (0 Bft)
16.08.2019 15:59 18,2 °C 69 % 1016,1 hPa 0,0 mm 0,0 km/h (0 Bft) W 270 ° 0 min 0,000 mm 2,5 UV-I 206 W/m² 12,4 °C 18,2 °C 0,0 km/h (0 Bft)
16.08.2019 16:00 18,1 °C 69 % 1016,0 hPa 0,0 mm 0,0 km/h (0 Bft) W 270 ° 0 min 0,000 mm 2,6 UV-I 206 W/m² 12,3 °C 18,1 °C 0,0 km/h (0 Bft)
16.08.2019 16:01 18,1 °C 69 % 1016,0 hPa 0,0 mm 0,0 km/h (0 Bft) W 270 ° 0 min 0,229 mm 2,3 UV-I 206 W/m² 12,3 °C 18,1 °C 0,0 km/h (0 Bft)
16.08.2019 16:02 17,9 °C 70 % 1016,0 hPa 0,0 mm 0,0 km/h (0 Bft) W 270 ° 0 min 0,000 mm 2,3 UV-I 163 W/m² 12,3 °C 17,9 °C 0,0 km/h (0 Bft)
16.08.2019 16:03 17,9 °C 70 % 1015,9 hPa 0,0 mm 0,0 km/h (0 Bft) W 270 ° 0 min 0,000 mm 2,2 UV-I 178 W/m² 12,3 °C 17,9 °C 0,0 km/h (0 Bft)
16.08.2019 16:04 17,9 °C 70 % 1015,9 hPa 0,0 mm 0,0 km/h (0 Bft) W 270 ° 0 min 0,000 mm 2,3 UV-I 174 W/m² 12,3 °C 17,9 °C 0,0 km/h (0 Bft)
16.08.2019 16:05 17,9 °C 72 % 1016,0 hPa 0,0 mm 0,0 km/h (0 Bft) W 270 ° 0 min 0,000 mm 2,5 UV-I 223 W/m² 12,8 °C 17,9 °C 0,0 km/h (0 Bft)
16.08.2019 16:06 17,9 °C 74 % 1015,9 hPa 0,0 mm 0,0 km/h (0 Bft) W-NW 298 ° 0 min 0,000 mm 2,6 UV-I 315 W/m² 13,2 °C 17,9 °C 0,0 km/h (0 Bft)
16.08.2019 16:07 17,8 °C 72 % 1016,0 hPa 0,0 mm 1,0 km/h (0 Bft) W-NW 298 ° 0 min 0,000 mm 2,4 UV-I 216 W/m² 12,7 °C 17,8 °C 3,2 km/h (1 Bft)
16.08.2019 16:08 17,7 °C 73 % 1016,0 hPa 0,0 mm 3,6 km/h (1 Bft) N-NW 329 ° 0 min 0,000 mm 2,4 UV-I 207 W/m² 12,8 °C 17,7 °C 6,4 km/h (2 Bft)
16.08.2019 16:09 17,8 °C 68 % 1015,9 hPa 0,0 mm 1,2 km/h (1 Bft) N-NW 329 ° 0 min 0,000 mm 2,3 UV-I 211 W/m² 11,8 °C 17,8 °C 3,2 km/h (1 Bft)
16.08.2019 16:10 17,9 °C 67 % 1015,9 hPa 0,0 mm 0,4 km/h (0 Bft) N-NW 331 ° 0 min 0,000 mm 2,8 UV-I 299 W/m² 11,7 °C 17,9 °C 1,6 km/h (1 Bft)
16.08.2019 16:11 18,1 °C 69 % 1015,9 hPa 0,0 mm 0,1 km/h (0 Bft) N-NW 331 ° 0 min 0,000 mm 2,5 UV-I 383 W/m² 12,3 °C 18,1 °C 1,6 km/h (1 Bft)
16.08.2019 16:12 18,2 °C 66 % 1015,9 hPa 0,0 mm 0,0 km/h (0 Bft) N-NW 331 ° 0 min 0,000 mm 2,9 UV-I 397 W/m² 11,7 °C 18,2 °C 0,0 km/h (0 Bft)
16.08.2019 16:13 18,4 °C 63 % 1015,8 hPa 0,0 mm 0,0 km/h (0 Bft) N-NW 331 ° 0 min 0,000 mm 2,8 UV-I 408 W/m² 11,2 °C 18,4 °C 0,0 km/h (0 Bft)
16.08.2019 16:14 18,6 °C 62 % 1015,8 hPa 0,0 mm 1,8 km/h (1 Bft) N-NW 331 ° 0 min 0,000 mm 2,6 UV-I 338 W/m² 11,2 °C 18,6 °C 3,2 km/h (1 Bft)
16.08.2019 16:15 18,7 °C 61 % 1015,9 hPa 0,0 mm 1,7 km/h (1 Bft) N 5 ° 0 min 0,000 mm 2,5 UV-I 320 W/m² 11,0 °C 18,7 °C 6,4 km/h (2 Bft)
16.08.2019 16:16 18,9 °C 62 % 1015,8 hPa 0,0 mm 2,3 km/h (1 Bft) N-NO 21 ° 0 min 0,000 mm 2,4 UV-I 257 W/m² 11,5 °C 18,9 °C 6,4 km/h (2 Bft)
16.08.2019 16:17 19,1 °C 64 % 1015,8 hPa 0,0 mm 2,2 km/h (1 Bft) N-NW 336 ° 0 min 0,000 mm 2,3 UV-I 216 W/m² 12,1 °C 19,1 °C 4,8 km/h (1 Bft)
16.08.2019 16:18 19,2 °C 62 % 1015,8 hPa 0,0 mm 2,1 km/h (1 Bft) N-NW 336 ° 0 min 0,000 mm 2,3 UV-I 223 W/m² 11,7 °C 19,2 °C 4,8 km/h (1 Bft)
16.08.2019 16:19 19,2 °C 62 % 1015,8 hPa 0,0 mm 3,7 km/h (1 Bft) N-NW 331 ° 0 min 0,000 mm 2,3 UV-I 218 W/m² 11,7 °C 19,2 °C 8,0 km/h (2 Bft)
16.08.2019 16:20 19,3 °C 60 % 1015,8 hPa 0,0 mm 0,8 km/h (0 Bft) N-NW 331 ° 0 min 0,000 mm 2,3 UV-I 206 W/m² 11,3 °C 19,3 °C 4,8 km/h (1 Bft)
16.08.2019 16:21 19,3 °C 59 % 1015,8 hPa 0,0 mm 1,5 km/h (1 Bft) N-NW 329 ° 0 min 0,000 mm 2,2 UV-I 206 W/m² 11,1 °C 19,3 °C 3,2 km/h (1 Bft)
16.08.2019 16:22 19,3 °C 59 % 1015,8 hPa 0,0 mm 3,7 km/h (1 Bft) W-NW 301 ° 0 min 0,000 mm 2,2 UV-I 206 W/m² 11,1 °C 19,3 °C 4,8 km/h (1 Bft)
16.08.2019 16:23 19,2 °C 58 % 1015,8 hPa 0,0 mm 5,1 km/h (1 Bft) NW 309 ° 0 min 0,000 mm 2,2 UV-I 206 W/m² 10,7 °C 19,2 °C 8,0 km/h (2 Bft)
16.08.2019 16:24 19,3 °C 59 % 1015,8 hPa 0,0 mm 4,8 km/h (1 Bft) NW 319 ° 0 min 0,000 mm 2,2 UV-I 206 W/m² 11,1 °C 19,3 °C 6,4 km/h (2 Bft)
16.08.2019 16:25 19,2 °C 62 % 1015,8 hPa 0,0 mm 3,2 km/h (1 Bft) W-NW 297 ° 0 min 0,000 mm 2,2 UV-I 206 W/m² 11,7 °C 19,2 °C 6,4 km/h (2 Bft)
16.08.2019 16:26 19,2 °C 62 % 1015,8 hPa 0,0 mm 1,8 km/h (1 Bft) W-NW 297 ° 0 min 0,000 mm 2,2 UV-I 209 W/m² 11,7 °C 19,2 °C 4,8 km/h (1 Bft)
16.08.2019 16:27 19,2 °C 61 % 1015,8 hPa 0,0 mm 3,2 km/h (1 Bft) W-NW 292 ° 0 min 0,000 mm 2,2 UV-I 206 W/m² 11,5 °C 19,2 °C 4,8 km/h (1 Bft)
16.08.2019 16:28 19,1 °C 59 % 1015,9 hPa 0,0 mm 1,7 km/h (1 Bft) W-NW 292 ° 0 min 0,000 mm 2,2 UV-I 206 W/m² 10,9 °C 19,1 °C 3,2 km/h (1 Bft)
16.08.2019 16:29 19,0 °C 60 % 1015,8 hPa 0,0 mm 1,7 km/h (1 Bft) W-NW 292 ° 0 min 0,000 mm 2,2 UV-I 207 W/m² 11,1 °C 19,0 °C 4,8 km/h (1 Bft)
16.08.2019 16:30 18,9 °C 61 % 1015,8 hPa 0,0 mm 1,9 km/h (1 Bft) W-NW 292 ° 0 min 0,000 mm 2,2 UV-I 218 W/m² 11,2 °C 18,9 °C 4,8 km/h (1 Bft)
16.08.2019 16:31 18,9 °C 63 % 1015,8 hPa 0,0 mm 0,0 km/h (0 Bft) W-NW 293 ° 0 min 0,000 mm 2,2 UV-I 214 W/m² 11,7 °C 18,9 °C 0,0 km/h (0 Bft)
16.08.2019 16:32 18,8 °C 62 % 1015,8 hPa 0,0 mm 4,3 km/h (1 Bft) W-NW 296 ° 0 min 0,000 mm 2,2 UV-I 241 W/m² 11,4 °C 18,8 °C 6,4 km/h (2 Bft)
16.08.2019 16:33 18,8 °C 63 % 1015,8 hPa 0,0 mm 1,2 km/h (1 Bft) W-NW 296 ° 0 min 0,000 mm 2,2 UV-I 229 W/m² 11,6 °C 18,8 °C 3,2 km/h (1 Bft)
16.08.2019 16:34 18,9 °C 60 % 1015,8 hPa 0,0 mm 0,2 km/h (0 Bft) NW 319 ° 0 min 0,000 mm 2,2 UV-I 223 W/m² 11,0 °C 18,9 °C 3,2 km/h (1 Bft)
16.08.2019 16:35 18,9 °C 62 % 1015,8 hPa 0,0 mm 1,4 km/h (1 Bft) NW 319 ° 0 min 0,000 mm 2,2 UV-I 227 W/m² 11,5 °C 18,9 °C 3,2 km/h (1 Bft)
16.08.2019 16:36 18,9 °C 62 % 1015,8 hPa 0,0 mm 3,0 km/h (1 Bft) NW 318 ° 0 min 0,000 mm 2,2 UV-I 229 W/m² 11,5 °C 18,9 °C 4,8 km/h (1 Bft)
16.08.2019 16:37 19,1 °C 63 % 1015,8 hPa 0,0 mm 0,5 km/h (0 Bft) NW 318 ° 0 min 0,000 mm 2,2 UV-I 230 W/m² 11,9 °C 19,1 °C 1,6 km/h (1 Bft)
16.08.2019 16:38 19,1 °C 61 % 1015,8 hPa 0,0 mm 3,4 km/h (1 Bft) W-NW 291 ° 0 min 0,000 mm 2,2 UV-I 234 W/m² 11,4 °C 19,1 °C 6,4 km/h (2 Bft)
16.08.2019 16:39 19,1 °C 62 % 1015,7 hPa 0,0 mm 4,1 km/h (1 Bft) W-NW 294 ° 0 min 0,000 mm 2,2 UV-I 239 W/m² 11,6 °C 19,1 °C 6,4 km/h (2 Bft)
16.08.2019 16:40 19,2 °C 63 % 1015,7 hPa 0,0 mm 2,8 km/h (1 Bft) W-NW 294 ° 0 min 0,000 mm 2,2 UV-I 243 W/m² 12,0 °C 19,2 °C 4,8 km/h (1 Bft)
16.08.2019 16:41 19,2 °C 63 % 1015,8 hPa 0,0 mm 0,0 km/h (0 Bft) W-NW 294 ° 0 min 0,000 mm 2,2 UV-I 244 W/m² 12,0 °C 19,2 °C 0,0 km/h (0 Bft)
16.08.2019 16:42 19,2 °C 64 % 1015,7 hPa 0,0 mm 3,5 km/h (1 Bft) W 280 ° 0 min 0,000 mm 2,2 UV-I 248 W/m² 12,2 °C 19,2 °C 4,8 km/h (1 Bft)
16.08.2019 16:43 19,2 °C 63 % 1015,7 hPa 0,0 mm 4,3 km/h (1 Bft) W 278 ° 0 min 0,000 mm 2,3 UV-I 244 W/m² 12,0 °C 19,2 °C 6,4 km/h (2 Bft)
16.08.2019 16:44 19,2 °C 62 % 1015,7 hPa 0,0 mm 3,3 km/h (1 Bft) W-SW 240 ° 0 min 0,000 mm 2,2 UV-I 243 W/m² 11,7 °C 19,2 °C 9,7 km/h (2 Bft)
16.08.2019 16:45 19,1 °C 62 % 1015,7 hPa 0,0 mm 6,0 km/h (2 Bft) W-SW 257 ° 0 min 0,000 mm 2,2 UV-I 244 W/m² 11,6 °C 19,1 °C 12,9 km/h (3 Bft)
16.08.2019 16:46 19,1 °C 63 % 1015,7 hPa 0,0 mm 3,5 km/h (1 Bft) W 261 ° 0 min 0,000 mm 2,2 UV-I 241 W/m² 11,9 °C 19,1 °C 4,8 km/h (1 Bft)
16.08.2019 16:47 19,1 °C 63 % 1015,6 hPa 0,0 mm 4,0 km/h (1 Bft) W 261 ° 0 min 0,000 mm 2,2 UV-I 241 W/m² 11,9 °C 19,1 °C 6,4 km/h (2 Bft)
16.08.2019 16:48 19,0 °C 61 % 1015,6 hPa 0,0 mm 5,6 km/h (1 Bft) W-SW 250 ° 0 min 0,000 mm 2,2 UV-I 239 W/m² 11,3 °C 19,0 °C 6,4 km/h (2 Bft)
16.08.2019 16:49 19,0 °C 63 % 1015,6 hPa 0,0 mm 3,6 km/h (1 Bft) NW 310 ° 0 min 0,000 mm 2,2 UV-I 227 W/m² 11,8 °C 19,0 °C 6,4 km/h (2 Bft)
16.08.2019 16:50 19,1 °C 64 % 1015,6 hPa 0,0 mm 2,9 km/h (1 Bft) NW 309 ° 0 min 0,000 mm 2,2 UV-I 223 W/m² 12,1 °C 19,1 °C 4,8 km/h (1 Bft)
16.08.2019 16:51 19,1 °C 63 % 1015,6 hPa 0,0 mm 3,6 km/h (1 Bft) W-NW 302 ° 0 min 0,000 mm 2,2 UV-I 223 W/m² 11,9 °C 19,1 °C 4,8 km/h (1 Bft)
16.08.2019 16:52 19,2 °C 64 % 1015,6 hPa 0,0 mm 4,0 km/h (1 Bft) W-NW 286 ° 0 min 0,000 mm 2,2 UV-I 213 W/m² 12,2 °C 19,2 °C 6,4 km/h (2 Bft)
16.08.2019 16:53 19,2 °C 61 % 1015,7 hPa 0,0 mm 1,1 km/h (1 Bft) W-NW 296 ° 0 min 0,000 mm 2,1 UV-I 207 W/m² 11,5 °C 19,2 °C 3,2 km/h (1 Bft)
16.08.2019 16:54 19,3 °C 61 % 1015,6 hPa 0,0 mm 3,0 km/h (1 Bft) W 268 ° 0 min 0,000 mm 2,1 UV-I 202 W/m² 11,6 °C 19,3 °C 6,4 km/h (2 Bft)
16.08.2019 16:55 19,3 °C 60 % 1015,6 hPa 0,0 mm 5,2 km/h (1 Bft) W 280 ° 0 min 0,000 mm 2,1 UV-I 188 W/m² 11,3 °C 19,3 °C 8,0 km/h (2 Bft)
16.08.2019 16:56 19,2 °C 61 % 1015,6 hPa 0,0 mm 0,6 km/h (0 Bft) W 280 ° 0 min 0,000 mm 2,0 UV-I 183 W/m² 11,5 °C 19,2 °C 3,2 km/h (1 Bft)
16.08.2019 16:57 19,2 °C 59 % 1015,6 hPa 0,0 mm 1,0 km/h (0 Bft) W 279 ° 0 min 0,000 mm 2,0 UV-I 178 W/m² 11,0 °C 19,2 °C 3,2 km/h (1 Bft)
16.08.2019 16:58 19,2 °C 60 % 1015,6 hPa 0,0 mm 3,4 km/h (1 Bft) W 277 ° 0 min 0,000 mm 2,0 UV-I 172 W/m² 11,2 °C 19,2 °C 4,8 km/h (1 Bft)
16.08.2019 16:59 19,2 °C 62 % 1015,6 hPa 0,0 mm 3,1 km/h (1 Bft) W 269 ° 0 min 0,000 mm 2,0 UV-I 169 W/m² 11,7 °C 19,2 °C 4,8 km/h (1 Bft)
16.08.2019 17:00 19,3 °C 60 % 1015,6 hPa 0,0 mm 2,7 km/h (1 Bft) W 267 ° 0 min 0,000 mm 1,9 UV-I 163 W/m² 11,3 °C 19,3 °C 4,8 km/h (1 Bft)
16.08.2019 17:01 19,3 °C 62 % 1015,6 hPa 0,0 mm 0,1 km/h (0 Bft) W 267 ° 0 min 0,152 mm 1,9 UV-I 155 W/m² 11,8 °C 19,3 °C 1,6 km/h (1 Bft)
16.08.2019 17:02 19,3 °C 60 % 1015,6 hPa 0,0 mm 0,0 km/h (0 Bft) W 267 ° 0 min 0,000 mm 1,9 UV-I 151 W/m² 11,3 °C 19,3 °C 0,0 km/h (0 Bft)
16.08.2019 17:03 19,3 °C 60 % 1015,6 hPa 0,0 mm 2,2 km/h (1 Bft) W 279 ° 0 min 0,000 mm 1,9 UV-I 149 W/m² 11,3 °C 19,3 °C 6,4 km/h (2 Bft)
16.08.2019 17:04 19,3 °C 59 % 1015,6 hPa 0,0 mm 3,4 km/h (1 Bft) W 275 ° 0 min 0,000 mm 1,9 UV-I 146 W/m² 11,1 °C 19,3 °C 4,8 km/h (1 Bft)
16.08.2019 17:05 19,3 °C 57 % 1015,6 hPa 0,0 mm 4,0 km/h (1 Bft) W 275 ° 0 min 0,000 mm 1,9 UV-I 144 W/m² 10,6 °C 19,3 °C 4,8 km/h (1 Bft)
16.08.2019 17:06 19,2 °C 57 % 1015,6 hPa 0,0 mm 1,1 km/h (1 Bft) W 275 ° 0 min 0,000 mm 1,9 UV-I 142 W/m² 10,5 °C 19,2 °C 3,2 km/h (1 Bft)
16.08.2019 17:07 19,2 °C 58 % 1015,6 hPa 0,0 mm 0,0 km/h (0 Bft) W 275 ° 0 min 0,000 mm 1,9 UV-I 137 W/m² 10,7 °C 19,2 °C 0,0 km/h (0 Bft)
16.08.2019 17:08 19,2 °C 60 % 1015,6 hPa 0,0 mm 2,0 km/h (1 Bft) W-NW 284 ° 0 min 0,000 mm 1,8 UV-I 137 W/m² 11,2 °C 19,2 °C 4,8 km/h (1 Bft)
16.08.2019 17:09 19,3 °C 59 % 1015,5 hPa 0,0 mm 5,0 km/h (1 Bft) W-NW 297 ° 0 min 0,000 mm 1,9 UV-I 153 W/m² 11,1 °C 19,3 °C 8,0 km/h (2 Bft)
16.08.2019 17:10 19,3 °C 60 % 1015,6 hPa 0,0 mm 4,8 km/h (1 Bft) W-NW 303 ° 0 min 0,000 mm 1,9 UV-I 163 W/m² 11,3 °C 19,3 °C 6,4 km/h (2 Bft)
16.08.2019 17:11 19,4 °C 59 % 1015,6 hPa 0,0 mm 3,8 km/h (1 Bft) W-NW 302 ° 0 min 0,000 mm 2,0 UV-I 155 W/m² 11,2 °C 19,4 °C 4,8 km/h (1 Bft)
16.08.2019 17:12 19,4 °C 57 % 1015,6 hPa 0,0 mm 1,3 km/h (1 Bft) W-NW 302 ° 0 min 0,000 mm 2,0 UV-I 178 W/m² 10,7 °C 19,4 °C 1,6 km/h (1 Bft)
16.08.2019 17:13 19,4 °C 56 % 1015,6 hPa 0,0 mm 0,3 km/h (0 Bft) W-NW 302 ° 0 min 0,000 mm 1,9 UV-I 130 W/m² 10,4 °C 19,4 °C 1,6 km/h (1 Bft)
16.08.2019 17:14 19,3 °C 56 % 1015,6 hPa 0,0 mm 0,0 km/h (0 Bft) W-NW 302 ° 0 min 0,000 mm 1,7 UV-I 100 W/m² 10,3 °C 19,3 °C 0,0 km/h (0 Bft)
16.08.2019 17:15 19,3 °C 58 % 1015,6 hPa 0,0 mm 0,0 km/h (0 Bft) W-NW 302 ° 0 min 0,000 mm 1,7 UV-I 98 W/m² 10,8 °C 19,3 °C 0,0 km/h (0 Bft)
16.08.2019 17:16 19,2 °C 56 % 1015,6 hPa 0,0 mm 2,1 km/h (1 Bft) S-SW 194 ° 0 min 0,000 mm 1,6 UV-I 95 W/m² 10,2 °C 19,2 °C 4,8 km/h (1 Bft)
16.08.2019 17:17 19,2 °C 56 % 1015,6 hPa 0,0 mm 0,9 km/h (0 Bft) S-SW 194 ° 0 min 0,000 mm 1,6 UV-I 93 W/m² 10,2 °C 19,2 °C 1,6 km/h (1 Bft)
16.08.2019 17:18 18,9 °C 63 % 1015,6 hPa 0,0 mm 3,1 km/h (1 Bft) S-SO 162 ° 0 min 0,000 mm 1,6 UV-I 97 W/m² 11,7 °C 18,9 °C 6,4 km/h (2 Bft)
16.08.2019 17:19 18,7 °C 66 % 1015,6 hPa 0,0 mm 1,6 km/h (1 Bft) S-SO 162 ° 0 min 0,000 mm 1,6 UV-I 105 W/m² 12,2 °C 18,7 °C 3,2 km/h (1 Bft)
16.08.2019 17:20 18,6 °C 61 % 1015,6 hPa 0,0 mm 0,1 km/h (0 Bft) S-SO 162 ° 0 min 0,000 mm 1,6 UV-I 104 W/m² 10,9 °C 18,6 °C 1,6 km/h (1 Bft)
16.08.2019 17:21 18,6 °C 62 % 1015,6 hPa 0,0 mm 0,1 km/h (0 Bft) W-SW 248 ° 0 min 0,000 mm 1,7 UV-I 139 W/m² 11,2 °C 18,6 °C 1,6 km/h (1 Bft)
16.08.2019 17:22 18,7 °C 66 % 1015,6 hPa 0,0 mm 3,5 km/h (1 Bft) W 270 ° 0 min 0,000 mm 1,6 UV-I 130 W/m² 12,2 °C 18,7 °C 4,8 km/h (1 Bft)
16.08.2019 17:23 18,7 °C 65 % 1015,5 hPa 0,0 mm 1,6 km/h (1 Bft) W 270 ° 0 min 0,000 mm 1,5 UV-I 114 W/m² 12,0 °C 18,7 °C 4,8 km/h (1 Bft)
16.08.2019 17:24 18,8 °C 63 % 1015,6 hPa 0,0 mm 2,6 km/h (1 Bft) W 270 ° 0 min 0,000 mm 1,5 UV-I 81 W/m² 11,6 °C 18,8 °C 4,8 km/h (1 Bft)
16.08.2019 17:25 18,9 °C 65 % 1015,6 hPa 0,0 mm 2,9 km/h (1 Bft) SW 232 ° 0 min 0,000 mm 1,5 UV-I 81 W/m² 12,2 °C 18,9 °C 4,8 km/h (1 Bft)
16.08.2019 17:26 18,9 °C 63 % 1015,6 hPa 0,0 mm 1,8 km/h (1 Bft) SW 236 ° 0 min 0,000 mm 1,5 UV-I 79 W/m² 11,7 °C 18,9 °C 3,2 km/h (1 Bft)
16.08.2019 17:27 18,9 °C 58 % 1015,6 hPa 0,0 mm 0,3 km/h (0 Bft) SW 236 ° 0 min 0,000 mm 1,4 UV-I 79 W/m² 10,5 °C 18,9 °C 1,6 km/h (1 Bft)
16.08.2019 17:28 18,9 °C 59 % 1015,5 hPa 0,0 mm 0,7 km/h (0 Bft) SW 236 ° 0 min 0,000 mm 1,4 UV-I 76 W/m² 10,7 °C 18,9 °C 3,2 km/h (1 Bft)
16.08.2019 17:29 19,0 °C 60 % 1015,5 hPa 0,0 mm 0,8 km/h (0 Bft) SW 236 ° 0 min 0,000 mm 1,4 UV-I 72 W/m² 11,1 °C 19,0 °C 1,6 km/h (1 Bft)
16.08.2019 17:30 19,1 °C 58 % 1015,5 hPa 0,0 mm 2,0 km/h (1 Bft) SW 236 ° 0 min 0,000 mm 1,4 UV-I 70 W/m² 10,6 °C 19,1 °C 3,2 km/h (1 Bft)
16.08.2019 17:31 19,2 °C 60 % 1015,5 hPa 0,0 mm 2,9 km/h (1 Bft) N 5 ° 0 min 0,000 mm 1,4 UV-I 79 W/m² 11,2 °C 19,2 °C 4,8 km/h (1 Bft)
16.08.2019 17:32 19,1 °C 60 % 1015,5 hPa 0,0 mm 3,4 km/h (1 Bft) N 5 ° 0 min 0,000 mm 1,4 UV-I 77 W/m² 11,1 °C 19,1 °C 6,4 km/h (2 Bft)
16.08.2019 17:33 19,2 °C 58 % 1015,5 hPa 0,0 mm 3,1 km/h (1 Bft) N 5 ° 0 min 0,000 mm 1,3 UV-I 69 W/m² 10,7 °C 19,2 °C 4,8 km/h (1 Bft)
16.08.2019 17:34 19,2 °C 57 % 1015,5 hPa 0,0 mm 3,0 km/h (1 Bft) N 5 ° 0 min 0,000 mm 1,3 UV-I 72 W/m² 10,5 °C 19,2 °C 3,2 km/h (1 Bft)
16.08.2019 17:35 19,3 °C 58 % 1015,4 hPa 0,0 mm 2,5 km/h (1 Bft) N 5 ° 0 min 0,000 mm 1,3 UV-I 97 W/m² 10,8 °C 19,3 °C 4,8 km/h (1 Bft)
16.08.2019 17:36 19,3 °C 57 % 1015,5 hPa 0,0 mm 0,6 km/h (0 Bft) N 5 ° 0 min 0,000 mm 1,3 UV-I 65 W/m² 10,6 °C 19,3 °C 1,6 km/h (1 Bft)
16.08.2019 17:37 19,2 °C 59 % 1015,4 hPa 0,0 mm 0,0 km/h (0 Bft) N 5 ° 0 min 0,000 mm 1,3 UV-I 63 W/m² 11,0 °C 19,2 °C 0,0 km/h (0 Bft)
16.08.2019 17:38 19,2 °C 57 % 1015,4 hPa 0,0 mm 0,0 km/h (0 Bft) N 5 ° 0 min 0,000 mm 1,3 UV-I 62 W/m² 10,5 °C 19,2 °C 0,0 km/h (0 Bft)
16.08.2019 17:39 19,2 °C 57 % 1015,4 hPa 0,0 mm 0,7 km/h (0 Bft) N-NO 23 ° 0 min 0,000 mm 1,3 UV-I 60 W/m² 10,5 °C 19,2 °C 3,2 km/h (1 Bft)
16.08.2019 17:40 19,1 °C 64 % 1015,3 hPa 0,0 mm 2,9 km/h (1 Bft) N-NO 24 ° 0 min 0,000 mm 1,3 UV-I 60 W/m² 12,1 °C 19,1 °C 4,8 km/h (1 Bft)
16.08.2019 17:41 19,0 °C 65 % 1015,3 hPa 0,0 mm 2,1 km/h (1 Bft) N-NO 24 ° 0 min 0,000 mm 1,3 UV-I 58 W/m² 12,3 °C 19,0 °C 3,2 km/h (1 Bft)
16.08.2019 17:42 18,9 °C 66 % 1015,3 hPa 0,0 mm 0,0 km/h (0 Bft) N-NO 24 ° 0 min 0,000 mm 1,3 UV-I 56 W/m² 12,4 °C 18,9 °C 0,0 km/h (0 Bft)
16.08.2019 17:43 18,9 °C 64 % 1015,2 hPa 0,0 mm 0,0 km/h (0 Bft) N-NO 24 ° 0 min 0,000 mm 1,3 UV-I 58 W/m² 11,9 °C 18,9 °C 0,0 km/h (0 Bft)
16.08.2019 17:44 18,9 °C 61 % 1015,3 hPa 0,0 mm 0,0 km/h (0 Bft) N-NO 24 ° 0 min 0,000 mm 1,3 UV-I 56 W/m² 11,2 °C 18,9 °C 0,0 km/h (0 Bft)
16.08.2019 17:45 18,8 °C 62 % 1015,2 hPa 0,0 mm 0,0 km/h (0 Bft) N-NO 24 ° 0 min 0,000 mm 1,3 UV-I 56 W/m² 11,4 °C 18,8 °C 0,0 km/h (0 Bft)
16.08.2019 17:46 18,8 °C 60 % 1015,2 hPa 0,0 mm 0,1 km/h (0 Bft) N-NO 24 ° 0 min 0,000 mm 1,2 UV-I 56 W/m² 10,9 °C 18,8 °C 1,6 km/h (1 Bft)
16.08.2019 17:47 18,8 °C 59 % 1015,2 hPa 0,0 mm 0,0 km/h (0 Bft) N-NO 24 ° 0 min 0,000 mm 1,2 UV-I 62 W/m² 10,6 °C 18,8 °C 0,0 km/h (0 Bft)
16.08.2019 17:48 18,8 °C 61 % 1015,2 hPa 0,0 mm 0,0 km/h (0 Bft) N-NO 24 ° 0 min 0,000 mm 1,2 UV-I 56 W/m² 11,1 °C 18,8 °C 0,0 km/h (0 Bft)
16.08.2019 17:49 18,9 °C 62 % 1015,2 hPa 0,0 mm 0,0 km/h (0 Bft) N-NO 24 ° 0 min 0,000 mm 1,2 UV-I 56 W/m² 11,5 °C 18,9 °C 0,0 km/h (0 Bft)
16.08.2019 17:50 18,8 °C 65 % 1015,2 hPa 0,0 mm 0,0 km/h (0 Bft) N-NO 24 ° 0 min 0,000 mm 1,2 UV-I 56 W/m² 12,1 °C 18,8 °C 0,0 km/h (0 Bft)
16.08.2019 17:51 18,8 °C 61 % 1015,2 hPa 0,0 mm 0,0 km/h (0 Bft) N-NO 24 ° 0 min 0,000 mm 1,2 UV-I 56 W/m² 11,1 °C 18,8 °C 0,0 km/h (0 Bft)
16.08.2019 17:52 18,8 °C 65 % 1015,2 hPa 0,0 mm 0,0 km/h (0 Bft) N-NO 24 ° 0 min 0,000 mm 1,2 UV-I 63 W/m² 12,1 °C 18,8 °C 0,0 km/h (0 Bft)
16.08.2019 17:53 18,7 °C 68 % 1015,2 hPa 0,0 mm 1,1 km/h (1 Bft) N-NO 24 ° 0 min 0,000 mm 1,2 UV-I 63 W/m² 12,7 °C 18,7 °C 3,2 km/h (1 Bft)
16.08.2019 17:54 18,6 °C 67 % 1015,1 hPa 0,0 mm 1,6 km/h (1 Bft) N-NO 24 ° 0 min 0,000 mm 1,2 UV-I 58 W/m² 12,3 °C 18,6 °C 3,2 km/h (1 Bft)
16.08.2019 17:55 18,5 °C 66 % 1015,1 hPa 0,0 mm 0,1 km/h (0 Bft) N-NO 24 ° 0 min 0,000 mm 1,2 UV-I 62 W/m² 12,0 °C 18,5 °C 1,6 km/h (1 Bft)
16.08.2019 17:56 18,5 °C 65 % 1015,1 hPa 0,0 mm 0,0 km/h (0 Bft) N-NO 24 ° 0 min 0,000 mm 1,1 UV-I 76 W/m² 11,8 °C 18,5 °C 0,0 km/h (0 Bft)
16.08.2019 17:57 18,4 °C 69 % 1015,1 hPa 0,0 mm 0,7 km/h (0 Bft) N-NO 24 ° 0 min 0,000 mm 1,1 UV-I 77 W/m² 12,6 °C 18,4 °C 3,2 km/h (1 Bft)
16.08.2019 17:58 18,3 °C 66 % 1015,1 hPa 0,0 mm 2,1 km/h (1 Bft) N-NO 24 ° 0 min 0,000 mm 1,1 UV-I 63 W/m² 11,8 °C 18,3 °C 3,2 km/h (1 Bft)
16.08.2019 17:59 18,3 °C 65 % 1015,2 hPa 0,0 mm 3,5 km/h (1 Bft) O-NO 78 ° 0 min 0,000 mm 0,0 UV-I 53 W/m² 11,6 °C 18,3 °C 4,8 km/h (1 Bft)
16.08.2019 18:00 18,2 °C 65 % 1015,1 hPa 0,0 mm 1,1 km/h (1 Bft) O-NO 78 ° 0 min 0,076 mm 0,0 UV-I 53 W/m² 11,5 °C 18,2 °C 3,2 km/h (1 Bft)
16.08.2019 18:01 18,2 °C 66 % 1015,1 hPa 0,0 mm 0,0 km/h (0 Bft) O-NO 78 ° 0 min 0,000 mm 1,1 UV-I 56 W/m² 11,7 °C 18,2 °C 0,0 km/h (0 Bft)
16.08.2019 18:02 18,2 °C 67 % 1015,1 hPa 0,0 mm 0,0 km/h (0 Bft) O-NO 78 ° 0 min 0,000 mm 0,0 UV-I 54 W/m² 12,0 °C 18,2 °C 0,0 km/h (0 Bft)
16.08.2019 18:03 18,3 °C 67 % 1015,1 hPa 0,0 mm 0,0 km/h (0 Bft) O-NO 78 ° 0 min 0,000 mm 0,0 UV-I 54 W/m² 12,1 °C 18,3 °C 0,0 km/h (0 Bft)
16.08.2019 18:04 18,3 °C 65 % 1015,1 hPa 0,0 mm 0,0 km/h (0 Bft) O-NO 78 ° 0 min 0,000 mm 0,0 UV-I 53 W/m² 11,6 °C 18,3 °C 0,0 km/h (0 Bft)
16.08.2019 18:05 18,3 °C 63 % 1015,1 hPa 0,0 mm 0,0 km/h (0 Bft) O-NO 78 ° 0 min 0,000 mm 0,0 UV-I 51 W/m² 11,1 °C 18,3 °C 0,0 km/h (0 Bft)
16.08.2019 18:06 18,4 °C 66 % 1015,0 hPa 0,0 mm 0,0 km/h (0 Bft) O-NO 78 ° 0 min 0,000 mm 0,0 UV-I 51 W/m² 11,9 °C 18,4 °C 0,0 km/h (0 Bft)
16.08.2019 18:07 18,4 °C 67 % 1015,0 hPa 0,0 mm 0,0 km/h (0 Bft) O-NO 78 ° 0 min 0,000 mm 1,0 UV-I 58 W/m² 12,2 °C 18,4 °C 0,0 km/h (0 Bft)
16.08.2019 18:08 18,3 °C 67 % 1015,0 hPa 0,0 mm 0,0 km/h (0 Bft) O-NO 78 ° 0 min 0,000 mm 0,0 UV-I 54 W/m² 12,1 °C 18,3 °C 0,0 km/h (0 Bft)
16.08.2019 18:09 18,3 °C 66 % 1015,0 hPa 0,0 mm 0,0 km/h (0 Bft) O-NO 78 ° 0 min 0,000 mm 1,0 UV-I 62 W/m² 11,8 °C 18,3 °C 0,0 km/h (0 Bft)
16.08.2019 18:10 18,3 °C 68 % 1014,9 hPa 0,0 mm 0,0 km/h (0 Bft) O-NO 78 ° 0 min 0,000 mm 1,0 UV-I 60 W/m² 12,3 °C 18,3 °C 0,0 km/h (0 Bft)
16.08.2019 18:11 18,2 °C 66 % 1014,9 hPa 0,0 mm 3,1 km/h (1 Bft) O 79 ° 0 min 0,000 mm 0,9 UV-I 62 W/m² 11,7 °C 18,2 °C 4,8 km/h (1 Bft)
16.08.2019 18:12 18,2 °C 64 % 1014,9 hPa 0,0 mm 3,6 km/h (1 Bft) O 79 ° 0 min 0,000 mm 1,0 UV-I 90 W/m² 11,3 °C 18,2 °C 4,8 km/h (1 Bft)
16.08.2019 18:13 18,2 °C 63 % 1014,9 hPa 0,0 mm 0,6 km/h (0 Bft) O 79 ° 0 min 0,000 mm 1,0 UV-I 93 W/m² 11,0 °C 18,2 °C 1,6 km/h (1 Bft)
16.08.2019 18:14 18,2 °C 65 % 1014,9 hPa 0,0 mm 0,0 km/h (0 Bft) O 79 ° 0 min 0,000 mm 1,0 UV-I 95 W/m² 11,5 °C 18,2 °C 0,0 km/h (0 Bft)
16.08.2019 18:15 18,3 °C 63 % 1014,9 hPa 0,0 mm 0,0 km/h (0 Bft) O 79 ° 0 min 0,000 mm 1,0 UV-I 79 W/m² 11,1 °C 18,3 °C 0,0 km/h (0 Bft)
16.08.2019 18:16 18,3 °C 67 % 1014,9 hPa 0,0 mm 0,0 km/h (0 Bft) O 79 ° 0 min 0,000 mm 1,0 UV-I 76 W/m² 12,1 °C 18,3 °C 0,0 km/h (0 Bft)
16.08.2019 18:17 18,4 °C 65 % 1014,9 hPa 0,0 mm 0,0 km/h (0 Bft) O 79 ° 0 min 0,000 mm 1,0 UV-I 91 W/m² 11,7 °C 18,4 °C 0,0 km/h (0 Bft)
16.08.2019 18:18 18,4 °C 64 % 1014,9 hPa 0,0 mm 0,0 km/h (0 Bft) O 79 ° 0 min 0,000 mm 0,9 UV-I 70 W/m² 11,5 °C 18,4 °C 0,0 km/h (0 Bft)
16.08.2019 18:19 18,4 °C 66 % 1014,9 hPa 0,0 mm 0,0 km/h (0 Bft) O 79 ° 0 min 0,000 mm 0,9 UV-I 67 W/m² 11,9 °C 18,4 °C 0,0 km/h (0 Bft)
16.08.2019 18:20 18,4 °C 67 % 1015,0 hPa 0,0 mm 0,0 km/h (0 Bft) O 79 ° 0 min 0,000 mm 0,9 UV-I 70 W/m² 12,2 °C 18,4 °C 0,0 km/h (0 Bft)
16.08.2019 18:21 18,4 °C 66 % 1014,9 hPa 0,0 mm 0,5 km/h (0 Bft) O 79 ° 0 min 0,000 mm 0,9 UV-I 77 W/m² 11,9 °C 18,4 °C 3,2 km/h (1 Bft)
16.08.2019 18:22 18,4 °C 64 % 1015,0 hPa 0,0 mm 0,9 km/h (0 Bft) O 79 ° 0 min 0,000 mm 0,9 UV-I 88 W/m² 11,5 °C 18,4 °C 3,2 km/h (1 Bft)
16.08.2019 18:23 18,4 °C 64 % 1015,0 hPa 0,0 mm 0,0 km/h (0 Bft) O 79 ° 0 min 0,000 mm 1,0 UV-I 98 W/m² 11,5 °C 18,4 °C 0,0 km/h (0 Bft)
16.08.2019 18:24 18,5 °C 63 % 1015,0 hPa 0,0 mm 0,0 km/h (0 Bft) O 79 ° 0 min 0,000 mm 1,0 UV-I 97 W/m² 11,3 °C 18,5 °C 0,0 km/h (0 Bft)
16.08.2019 18:25 18,6 °C 64 % 1014,9 hPa 0,0 mm 0,1 km/h (0 Bft) O 79 ° 0 min 0,000 mm 0,9 UV-I 76 W/m² 11,7 °C 18,6 °C 1,6 km/h (1 Bft)
16.08.2019 18:26 18,6 °C 64 % 1015,0 hPa 0,0 mm 0,2 km/h (0 Bft) O 79 ° 0 min 0,000 mm 0,9 UV-I 90 W/m² 11,7 °C 18,6 °C 3,2 km/h (1 Bft)
16.08.2019 18:27 18,6 °C 64 % 1015,0 hPa 0,0 mm 0,0 km/h (0 Bft) O 79 ° 0 min 0,000 mm 0,9 UV-I 98 W/m² 11,7 °C 18,6 °C 0,0 km/h (0 Bft)
16.08.2019 18:28 18,6 °C 67 % 1014,9 hPa 0,0 mm 0,0 km/h (0 Bft) O 79 ° 0 min 0,000 mm 0,9 UV-I 84 W/m² 12,3 °C 18,6 °C 0,0 km/h (0 Bft)
16.08.2019 18:29 18,6 °C 68 % 1014,9 hPa 0,0 mm 0,1 km/h (0 Bft) O 79 ° 0 min 0,000 mm 0,9 UV-I 60 W/m² 12,6 °C 18,6 °C 3,2 km/h (1 Bft)
16.08.2019 18:30 18,4 °C 68 % 1014,9 hPa 0,0 mm 2,5 km/h (1 Bft) O 79 ° 0 min 0,000 mm 0,8 UV-I 56 W/m² 12,4 °C 18,4 °C 3,2 km/h (1 Bft)
16.08.2019 18:31 18,3 °C 71 % 1014,9 hPa 0,0 mm 1,2 km/h (1 Bft) O 79 ° 0 min 0,000 mm 0,8 UV-I 56 W/m² 12,9 °C 18,3 °C 3,2 km/h (1 Bft)
16.08.2019 18:32 18,2 °C 71 % 1014,9 hPa 0,0 mm 1,1 km/h (1 Bft) O 79 ° 0 min 0,000 mm 0,8 UV-I 60 W/m² 12,9 °C 18,2 °C 3,2 km/h (1 Bft)
16.08.2019 18:33 18,1 °C 66 % 1014,8 hPa 0,0 mm 0,1 km/h (0 Bft) O 79 ° 0 min 0,000 mm 0,8 UV-I 58 W/m² 11,6 °C 18,1 °C 1,6 km/h (1 Bft)
16.08.2019 18:34 18,2 °C 67 % 1014,8 hPa 0,0 mm 1,5 km/h (1 Bft) O 79 ° 0 min 0,000 mm 0,8 UV-I 62 W/m² 12,0 °C 18,2 °C 3,2 km/h (1 Bft)
16.08.2019 18:35 18,1 °C 69 % 1014,8 hPa 0,0 mm 1,8 km/h (1 Bft) O 79 ° 0 min 0,000 mm 0,8 UV-I 86 W/m² 12,3 °C 18,1 °C 3,2 km/h (1 Bft)
16.08.2019 18:36 18,1 °C 68 % 1014,8 hPa 0,0 mm 1,6 km/h (1 Bft) O 79 ° 0 min 0,000 mm 0,8 UV-I 74 W/m² 12,1 °C 18,1 °C 3,2 km/h (1 Bft)
16.08.2019 18:37 18,1 °C 68 % 1014,8 hPa 0,0 mm 0,0 km/h (0 Bft) O 79 ° 0 min 0,000 mm 0,8 UV-I 70 W/m² 12,1 °C 18,1 °C 0,0 km/h (0 Bft)
16.08.2019 18:38 18,2 °C 67 % 1014,8 hPa 0,0 mm 0,0 km/h (0 Bft) O 79 ° 0 min 0,000 mm 0,8 UV-I 69 W/m² 12,0 °C 18,2 °C 0,0 km/h (0 Bft)
16.08.2019 18:39 18,2 °C 67 % 1014,8 hPa 0,0 mm 0,0 km/h (0 Bft) O 79 ° 0 min 0,000 mm 0,8 UV-I 69 W/m² 12,0 °C 18,2 °C 0,0 km/h (0 Bft)
16.08.2019 18:40 18,3 °C 70 % 1014,8 hPa 0,0 mm 0,0 km/h (0 Bft) O 79 ° 0 min 0,000 mm 0,8 UV-I 62 W/m² 12,7 °C 18,3 °C 0,0 km/h (0 Bft)
16.08.2019 18:41 18,2 °C 68 % 1014,9 hPa 0,0 mm 0,0 km/h (0 Bft) O 79 ° 0 min 0,000 mm 0,8 UV-I 53 W/m² 12,2 °C 18,2 °C 0,0 km/h (0 Bft)
16.08.2019 18:42 18,3 °C 66 % 1014,8 hPa 0,0 mm 0,0 km/h (0 Bft) O 79 ° 0 min 0,000 mm 0,0 UV-I 51 W/m² 11,8 °C 18,3 °C 0,0 km/h (0 Bft)
16.08.2019 18:43 18,3 °C 66 % 1014,7 hPa 0,0 mm 0,0 km/h (0 Bft) O 79 ° 0 min 0,000 mm 0,0 UV-I 49 W/m² 11,8 °C 18,3 °C 0,0 km/h (0 Bft)
16.08.2019 18:44 18,3 °C 69 % 1014,7 hPa 0,0 mm 0,0 km/h (0 Bft) O 79 ° 0 min 0,000 mm 0,0 UV-I 49 W/m² 12,5 °C 18,3 °C 0,0 km/h (0 Bft)
16.08.2019 18:45 18,3 °C 66 % 1014,7 hPa 0,0 mm 0,0 km/h (0 Bft) O 79 ° 0 min 0,000 mm 0,0 UV-I 49 W/m² 11,8 °C 18,3 °C 0,0 km/h (0 Bft)
16.08.2019 18:46 18,3 °C 68 % 1014,7 hPa 0,0 mm 0,0 km/h (0 Bft) O 79 ° 0 min 0,000 mm 0,8 UV-I 65 W/m² 12,3 °C 18,3 °C 0,0 km/h (0 Bft)
16.08.2019 18:47 18,3 °C 67 % 1014,7 hPa 0,0 mm 0,0 km/h (0 Bft) O 79 ° 0 min 0,000 mm 0,7 UV-I 76 W/m² 12,1 °C 18,3 °C 0,0 km/h (0 Bft)
16.08.2019 18:48 18,3 °C 68 % 1014,7 hPa 0,0 mm 0,0 km/h (0 Bft) O 79 ° 0 min 0,000 mm 0,8 UV-I 84 W/m² 12,3 °C 18,3 °C 0,0 km/h (0 Bft)
16.08.2019 18:49 18,3 °C 68 % 1014,7 hPa 0,0 mm 0,0 km/h (0 Bft) O 79 ° 0 min 0,000 mm 0,8 UV-I 72 W/m² 12,3 °C 18,3 °C 0,0 km/h (0 Bft)
16.08.2019 18:50 18,3 °C 69 % 1014,7 hPa 0,0 mm 0,0 km/h (0 Bft) O 79 ° 0 min 0,000 mm 0,7 UV-I 63 W/m² 12,5 °C 18,3 °C 0,0 km/h (0 Bft)
16.08.2019 18:51 18,3 °C 68 % 1014,7 hPa 0,0 mm 0,0 km/h (0 Bft) O 79 ° 0 min 0,000 mm 0,0 UV-I 53 W/m² 12,3 °C 18,3 °C 0,0 km/h (0 Bft)
16.08.2019 18:52 18,2 °C 70 % 1014,6 hPa 0,0 mm 0,0 km/h (0 Bft) O 79 ° 0 min 0,000 mm 0,7 UV-I 63 W/m² 12,6 °C 18,2 °C 0,0 km/h (0 Bft)
16.08.2019 18:53 18,2 °C 70 % 1014,7 hPa 0,0 mm 3,0 km/h (1 Bft) O 79 ° 0 min 0,000 mm 0,7 UV-I 86 W/m² 12,6 °C 18,2 °C 4,8 km/h (1 Bft)
16.08.2019 18:54 18,1 °C 71 % 1014,7 hPa 0,0 mm 0,7 km/h (0 Bft) O 79 ° 0 min 0,000 mm 0,7 UV-I 77 W/m² 12,8 °C 18,1 °C 3,2 km/h (1 Bft)
16.08.2019 18:55 18,1 °C 70 % 1014,7 hPa 0,0 mm 0,5 km/h (0 Bft) O 79 ° 0 min 0,000 mm 0,6 UV-I 67 W/m² 12,5 °C 18,1 °C 1,6 km/h (1 Bft)
16.08.2019 18:56 18,0 °C 70 % 1014,7 hPa 0,0 mm 1,0 km/h (0 Bft) O 79 ° 0 min 0,000 mm 0,6 UV-I 60 W/m² 12,4 °C 18,0 °C 4,8 km/h (1 Bft)
16.08.2019 18:57 18,1 °C 68 % 1014,7 hPa 0,0 mm 0,7 km/h (0 Bft) O 79 ° 0 min 0,000 mm 0,0 UV-I 54 W/m² 12,1 °C 18,1 °C 3,2 km/h (1 Bft)
16.08.2019 18:58 18,1 °C 69 % 1014,7 hPa 0,0 mm 0,0 km/h (0 Bft) O 79 ° 0 min 0,000 mm 0,6 UV-I 63 W/m² 12,3 °C 18,1 °C 0,0 km/h (0 Bft)
16.08.2019 18:59 18,1 °C 68 % 1014,7 hPa 0,0 mm 0,0 km/h (0 Bft) O 79 ° 0 min 0,000 mm 0,0 UV-I 51 W/m² 12,1 °C 18,1 °C 0,0 km/h (0 Bft)
16.08.2019 19:00 18,1 °C 69 % 1014,7 hPa 0,0 mm 0,0 km/h (0 Bft) O 79 ° 0 min 0,000 mm 0,0 UV-I 49 W/m² 12,3 °C 18,1 °C 0,0 km/h (0 Bft)
16.08.2019 19:01 18,0 °C 70 % 1014,7 hPa 0,0 mm 0,0 km/h (0 Bft) O 79 ° 0 min 0,051 mm 0,0 UV-I 49 W/m² 12,4 °C 18,0 °C 0,0 km/h (0 Bft)
16.08.2019 19:02 18,0 °C 70 % 1014,7 hPa 0,0 mm 0,0 km/h (0 Bft) O 79 ° 0 min 0,000 mm 0,0 UV-I 44 W/m² 12,4 °C 18,0 °C 0,0 km/h (0 Bft)
16.08.2019 19:03 18,0 °C 69 % 1014,7 hPa 0,0 mm 0,0 km/h (0 Bft) O 79 ° 0 min 0,000 mm 0,0 UV-I 40 W/m² 12,2 °C 18,0 °C 0,0 km/h (0 Bft)
16.08.2019 19:04 17,9 °C 70 % 1014,7 hPa 0,0 mm 0,7 km/h (0 Bft) O 79 ° 0 min 0,000 mm 0,0 UV-I 39 W/m² 12,3 °C 17,9 °C 1,6 km/h (1 Bft)
16.08.2019 19:05 18,1 °C 68 % 1014,7 hPa 0,0 mm 1,2 km/h (1 Bft) O 79 ° 0 min 0,000 mm 0,0 UV-I 40 W/m² 12,1 °C 18,1 °C 3,2 km/h (1 Bft)
16.08.2019 19:06 18,0 °C 70 % 1014,6 hPa 0,0 mm 0,3 km/h (0 Bft) O 79 ° 0 min 0,000 mm 0,0 UV-I 54 W/m² 12,4 °C 18,0 °C 1,6 km/h (1 Bft)
16.08.2019 19:07 18,0 °C 69 % 1014,6 hPa 0,0 mm 0,3 km/h (0 Bft) O 79 ° 0 min 0,000 mm 0,5 UV-I 60 W/m² 12,2 °C 18,0 °C 1,6 km/h (1 Bft)
16.08.2019 19:08 18,0 °C 70 % 1014,6 hPa 0,0 mm 0,1 km/h (0 Bft) O 79 ° 0 min 0,000 mm 0,0 UV-I 54 W/m² 12,4 °C 18,0 °C 1,6 km/h (1 Bft)
16.08.2019 19:09 17,9 °C 71 % 1014,6 hPa 0,0 mm 0,0 km/h (0 Bft) O 79 ° 0 min 0,000 mm 0,5 UV-I 67 W/m² 12,6 °C 17,9 °C 0,0 km/h (0 Bft)
16.08.2019 19:10 17,8 °C 71 % 1014,7 hPa 0,0 mm 1,9 km/h (1 Bft) O 79 ° 0 min 0,000 mm 0,5 UV-I 128 W/m² 12,5 °C 17,8 °C 4,8 km/h (1 Bft)
16.08.2019 19:11 17,7 °C 71 % 1014,6 hPa 0,0 mm 0,0 km/h (0 Bft) O 79 ° 0 min 0,000 mm 0,5 UV-I 132 W/m² 12,4 °C 17,7 °C 0,0 km/h (0 Bft)
16.08.2019 19:12 17,7 °C 70 % 1014,7 hPa 0,0 mm 0,0 km/h (0 Bft) O 79 ° 0 min 0,000 mm 0,5 UV-I 130 W/m² 12,2 °C 17,7 °C 0,0 km/h (0 Bft)
16.08.2019 19:13 17,7 °C 72 % 1014,7 hPa 0,0 mm 1,3 km/h (1 Bft) O 80 ° 0 min 0,000 mm 0,5 UV-I 125 W/m² 12,6 °C 17,7 °C 4,8 km/h (1 Bft)
16.08.2019 19:14 17,6 °C 72 % 1014,6 hPa 0,0 mm 0,5 km/h (0 Bft) O 80 ° 0 min 0,000 mm 0,5 UV-I 120 W/m² 12,5 °C 17,6 °C 3,2 km/h (1 Bft)
16.08.2019 19:15 17,6 °C 72 % 1014,6 hPa 0,0 mm 0,0 km/h (0 Bft) O 80 ° 0 min 0,000 mm 0,5 UV-I 90 W/m² 12,5 °C 17,6 °C 0,0 km/h (0 Bft)
16.08.2019 19:16 17,5 °C 72 % 1014,6 hPa 0,0 mm 0,0 km/h (0 Bft) O 80 ° 0 min 0,000 mm 0,5 UV-I 81 W/m² 12,4 °C 17,5 °C 0,0 km/h (0 Bft)
16.08.2019 19:17 17,4 °C 72 % 1014,6 hPa 0,0 mm 0,0 km/h (0 Bft) O 80 ° 0 min 0,000 mm 0,5 UV-I 93 W/m² 12,3 °C 17,4 °C 0,0 km/h (0 Bft)
16.08.2019 19:18 17,3 °C 72 % 1014,5 hPa 0,0 mm 0,0 km/h (0 Bft) O 80 ° 0 min 0,000 mm 0,0 UV-I 98 W/m² 12,2 °C 17,3 °C 0,0 km/h (0 Bft)
16.08.2019 19:19 17,3 °C 72 % 1014,5 hPa 0,0 mm 1,1 km/h (1 Bft) O 80 ° 0 min 0,000 mm 0,0 UV-I 90 W/m² 12,2 °C 17,3 °C 3,2 km/h (1 Bft)
16.08.2019 19:20 17,3 °C 72 % 1014,5 hPa 0,0 mm 0,1 km/h (0 Bft) O 80 ° 0 min 0,000 mm 0,0 UV-I 79 W/m² 12,2 °C 17,3 °C 1,6 km/h (1 Bft)
16.08.2019 19:21 17,3 °C 73 % 1014,5 hPa 0,0 mm 0,1 km/h (0 Bft) O 80 ° 0 min 0,000 mm 0,0 UV-I 91 W/m² 12,4 °C 17,3 °C 1,6 km/h (1 Bft)
16.08.2019 19:22 17,3 °C 72 % 1014,5 hPa 0,0 mm 0,0 km/h (0 Bft) O 80 ° 0 min 0,000 mm 0,0 UV-I 97 W/m² 12,2 °C 17,3 °C 0,0 km/h (0 Bft)
16.08.2019 19:23 17,3 °C 72 % 1014,5 hPa 0,0 mm 0,0 km/h (0 Bft) O 80 ° 0 min 0,000 mm 0,0 UV-I 97 W/m² 12,2 °C 17,3 °C 0,0 km/h (0 Bft)
16.08.2019 19:24 17,3 °C 73 % 1014,5 hPa 0,0 mm 0,0 km/h (0 Bft) O 80 ° 0 min 0,000 mm 0,0 UV-I 95 W/m² 12,4 °C 17,3 °C 0,0 km/h (0 Bft)
16.08.2019 19:25 17,2 °C 73 % 1014,5 hPa 0,0 mm 0,0 km/h (0 Bft) O 80 ° 0 min 0,000 mm 0,0 UV-I 93 W/m² 12,3 °C 17,2 °C 0,0 km/h (0 Bft)
16.08.2019 19:26 17,3 °C 73 % 1014,5 hPa 0,0 mm 0,0 km/h (0 Bft) O 80 ° 0 min 0,000 mm 0,0 UV-I 86 W/m² 12,4 °C 17,3 °C 0,0 km/h (0 Bft)
16.08.2019 19:27 17,2 °C 74 % 1014,5 hPa 0,0 mm 0,0 km/h (0 Bft) O 80 ° 0 min 0,000 mm 0,0 UV-I 70 W/m² 12,5 °C 17,2 °C 0,0 km/h (0 Bft)
16.08.2019 19:28 17,2 °C 74 % 1014,5 hPa 0,0 mm 0,0 km/h (0 Bft) O 80 ° 0 min 0,000 mm 0,0 UV-I 62 W/m² 12,5 °C 17,2 °C 0,0 km/h (0 Bft)
16.08.2019 19:29 17,1 °C 75 % 1014,4 hPa 0,0 mm 0,0 km/h (0 Bft) O 80 ° 0 min 0,000 mm 0,0 UV-I 62 W/m² 12,6 °C 17,1 °C 0,0 km/h (0 Bft)
16.08.2019 19:30 17,1 °C 74 % 1014,4 hPa 0,0 mm 0,0 km/h (0 Bft) O 80 ° 0 min 0,000 mm 0,0 UV-I 60 W/m² 12,4 °C 17,1 °C 0,0 km/h (0 Bft)
16.08.2019 19:31 17,1 °C 73 % 1014,4 hPa 0,0 mm 0,0 km/h (0 Bft) O 80 ° 0 min 0,000 mm 0,0 UV-I 70 W/m² 12,2 °C 17,1 °C 0,0 km/h (0 Bft)
16.08.2019 19:32 17,1 °C 73 % 1014,5 hPa 0,0 mm 0,0 km/h (0 Bft) O 80 ° 0 min 0,000 mm 0,0 UV-I 76 W/m² 12,2 °C 17,1 °C 0,0 km/h (0 Bft)
16.08.2019 19:33 17,1 °C 73 % 1014,4 hPa 0,0 mm 0,0 km/h (0 Bft) O 80 ° 0 min 0,000 mm 0,0 UV-I 70 W/m² 12,2 °C 17,1 °C 0,0 km/h (0 Bft)
16.08.2019 19:34 17,1 °C 73 % 1014,4 hPa 0,0 mm 0,0 km/h (0 Bft) O 80 ° 0 min 0,000 mm 0,0 UV-I 67 W/m² 12,2 °C 17,1 °C 0,0 km/h (0 Bft)
16.08.2019 19:35 17,2 °C 72 % 1014,5 hPa 0,0 mm 0,0 km/h (0 Bft) O 80 ° 0 min 0,000 mm 0,0 UV-I 60 W/m² 12,1 °C 17,2 °C 0,0 km/h (0 Bft)
16.08.2019 19:36 17,1 °C 73 % 1014,5 hPa 0,0 mm 0,0 km/h (0 Bft) O 80 ° 0 min 0,000 mm 0,0 UV-I 58 W/m² 12,2 °C 17,1 °C 0,0 km/h (0 Bft)
16.08.2019 19:37 17,1 °C 74 % 1014,5 hPa 0,0 mm 0,0 km/h (0 Bft) O 80 ° 0 min 0,000 mm 0,0 UV-I 47 W/m² 12,4 °C 17,1 °C 0,0 km/h (0 Bft)
16.08.2019 19:38 17,0 °C 74 % 1014,5 hPa 0,0 mm 0,0 km/h (0 Bft) O 80 ° 0 min 0,000 mm 0,0 UV-I 46 W/m² 12,3 °C 17,0 °C 0,0 km/h (0 Bft)
16.08.2019 19:39 16,9 °C 74 % 1014,5 hPa 0,0 mm 0,0 km/h (0 Bft) O 80 ° 0 min 0,000 mm 0,0 UV-I 40 W/m² 12,2 °C 16,9 °C 0,0 km/h (0 Bft)
16.08.2019 19:40 16,9 °C 74 % 1014,5 hPa 0,0 mm 0,0 km/h (0 Bft) O 80 ° 0 min 0,000 mm 0,0 UV-I 33 W/m² 12,2 °C 16,9 °C 0,0 km/h (0 Bft)
16.08.2019 19:41 16,8 °C 74 % 1014,5 hPa 0,0 mm 0,0 km/h (0 Bft) O 80 ° 0 min 0,000 mm 0,0 UV-I 37 W/m² 12,1 °C 16,8 °C 0,0 km/h (0 Bft)
16.08.2019 19:42 16,8 °C 74 % 1014,5 hPa 0,0 mm 0,0 km/h (0 Bft) O 80 ° 0 min 0,000 mm 0,0 UV-I 39 W/m² 12,1 °C 16,8 °C 0,0 km/h (0 Bft)
16.08.2019 19:43 16,8 °C 74 % 1014,5 hPa 0,0 mm 0,0 km/h (0 Bft) O 80 ° 0 min 0,000 mm 0,0 UV-I 33 W/m² 12,1 °C 16,8 °C 0,0 km/h (0 Bft)
16.08.2019 19:44 16,7 °C 74 % 1014,5 hPa 0,0 mm 0,0 km/h (0 Bft) O 80 ° 0 min 0,000 mm 0,0 UV-I 37 W/m² 12,0 °C 16,7 °C 0,0 km/h (0 Bft)
16.08.2019 19:45 16,7 °C 74 % 1014,5 hPa 0,0 mm 0,0 km/h (0 Bft) O 80 ° 0 min 0,000 mm 0,0 UV-I 28 W/m² 12,0 °C 16,7 °C 0,0 km/h (0 Bft)
16.08.2019 19:46 16,7 °C 74 % 1014,5 hPa 0,0 mm 0,0 km/h (0 Bft) O 80 ° 0 min 0,000 mm 0,0 UV-I 25 W/m² 12,0 °C 16,7 °C 0,0 km/h (0 Bft)
16.08.2019 19:47 16,7 °C 74 % 1014,5 hPa 0,0 mm 0,3 km/h (0 Bft) O 80 ° 0 min 0,000 mm 0,0 UV-I 26 W/m² 12,0 °C 16,7 °C 1,6 km/h (1 Bft)
16.08.2019 19:48 16,6 °C 74 % 1014,4 hPa 0,0 mm 0,2 km/h (0 Bft) O 80 ° 0 min 0,000 mm 0,0 UV-I 26 W/m² 11,9 °C 16,6 °C 1,6 km/h (1 Bft)
16.08.2019 19:49 16,6 °C 76 % 1014,4 hPa 0,0 mm 0,5 km/h (0 Bft) O 80 ° 0 min 0,000 mm 0,0 UV-I 25 W/m² 12,3 °C 16,6 °C 1,6 km/h (1 Bft)
16.08.2019 19:50 16,6 °C 76 % 1014,5 hPa 0,0 mm 0,0 km/h (0 Bft) O 80 ° 0 min 0,000 mm 0,0 UV-I 23 W/m² 12,3 °C 16,6 °C 0,0 km/h (0 Bft)
16.08.2019 19:51 16,4 °C 77 % 1014,5 hPa 0,0 mm 0,0 km/h (0 Bft) O 80 ° 0 min 0,000 mm 0,0 UV-I 21 W/m² 12,4 °C 16,4 °C 0,0 km/h (0 Bft)
16.08.2019 19:52 16,3 °C 78 % 1014,5 hPa 0,0 mm 0,0 km/h (0 Bft) O 80 ° 0 min 0,000 mm 0,0 UV-I 21 W/m² 12,5 °C 16,3 °C 0,0 km/h (0 Bft)
16.08.2019 19:53 16,3 °C 77 % 1014,5 hPa 0,0 mm 0,0 km/h (0 Bft) O 80 ° 0 min 0,000 mm 0,0 UV-I 21 W/m² 12,3 °C 16,3 °C 0,0 km/h (0 Bft)
16.08.2019 19:54 16,2 °C 77 % 1014,4 hPa 0,0 mm 0,0 km/h (0 Bft) O 80 ° 0 min 0,000 mm 0,0 UV-I 19 W/m² 12,2 °C 16,2 °C 0,0 km/h (0 Bft)
16.08.2019 19:55 16,2 °C 78 % 1014,5 hPa 0,0 mm 0,0 km/h (0 Bft) O 80 ° 0 min 0,000 mm 0,0 UV-I 18 W/m² 12,4 °C 16,2 °C 0,0 km/h (0 Bft)
16.08.2019 19:56 16,2 °C 78 % 1014,4 hPa 0,0 mm 0,0 km/h (0 Bft) O 80 ° 0 min 0,000 mm 0,0 UV-I 16 W/m² 12,4 °C 16,2 °C 0,0 km/h (0 Bft)
16.08.2019 19:57 16,1 °C 78 % 1014,4 hPa 0,0 mm 0,0 km/h (0 Bft) O 80 ° 0 min 0,000 mm 0,0 UV-I 14 W/m² 12,3 °C 16,1 °C 0,0 km/h (0 Bft)
16.08.2019 19:58 16,1 °C 78 % 1014,5 hPa 0,0 mm 0,0 km/h (0 Bft) O 80 ° 0 min 0,000 mm 0,0 UV-I 14 W/m² 12,3 °C 16,1 °C 0,0 km/h (0 Bft)
16.08.2019 19:59 16,0 °C 78 % 1014,5 hPa 0,0 mm 0,0 km/h (0 Bft) O 80 ° 0 min 0,000 mm 0,0 UV-I 14 W/m² 12,2 °C 16,0 °C 0,0 km/h (0 Bft)
16.08.2019 20:00 15,9 °C 79 % 1014,5 hPa 0,0 mm 0,0 km/h (0 Bft) O 80 ° 0 min 0,000 mm 0,0 UV-I 12 W/m² 12,3 °C 15,9 °C 0,0 km/h (0 Bft)
16.08.2019 20:01 15,9 °C 79 % 1014,5 hPa 0,0 mm 0,0 km/h (0 Bft) O 80 ° 0 min 0,026 mm 0,0 UV-I 12 W/m² 12,3 °C 15,9 °C 0,0 km/h (0 Bft)
16.08.2019 20:02 15,8 °C 79 % 1014,5 hPa 0,0 mm 0,0 km/h (0 Bft) O 80 ° 0 min 0,000 mm 0,0 UV-I 12 W/m² 12,2 °C 15,8 °C 0,0 km/h (0 Bft)
16.08.2019 20:03 15,7 °C 80 % 1014,6 hPa 0,0 mm 0,0 km/h (0 Bft) O 80 ° 0 min 0,000 mm 0,0 UV-I 12 W/m² 12,3 °C 15,7 °C 0,0 km/h (0 Bft)
16.08.2019 20:04 15,7 °C 79 % 1014,6 hPa 0,0 mm 0,0 km/h (0 Bft) O 80 ° 0 min 0,000 mm 0,0 UV-I 12 W/m² 12,1 °C 15,7 °C 0,0 km/h (0 Bft)
16.08.2019 20:05 15,6 °C 80 % 1014,6 hPa 0,0 mm 0,0 km/h (0 Bft) O 80 ° 0 min 0,000 mm 0,0 UV-I 12 W/m² 12,2 °C 15,6 °C 0,0 km/h (0 Bft)
16.08.2019 20:06 15,6 °C 80 % 1014,6 hPa 0,0 mm 0,0 km/h (0 Bft) O 80 ° 0 min 0,000 mm 0,0 UV-I 12 W/m² 12,2 °C 15,6 °C 0,0 km/h (0 Bft)
16.08.2019 20:07 15,4 °C 80 % 1014,6 hPa 0,0 mm 0,0 km/h (0 Bft) O 80 ° 0 min 0,000 mm 0,0 UV-I 11 W/m² 12,0 °C 15,4 °C 0,0 km/h (0 Bft)
16.08.2019 20:08 15,4 °C 80 % 1014,6 hPa 0,0 mm 0,0 km/h (0 Bft) O 80 ° 0 min 0,000 mm 0,0 UV-I 11 W/m² 12,0 °C 15,4 °C 0,0 km/h (0 Bft)
16.08.2019 20:09 15,4 °C 80 % 1014,6 hPa 0,0 mm 0,0 km/h (0 Bft) O 80 ° 0 min 0,000 mm 0,0 UV-I 11 W/m² 12,0 °C 15,4 °C 0,0 km/h (0 Bft)
16.08.2019 20:10 15,3 °C 80 % 1014,6 hPa 0,0 mm 0,0 km/h (0 Bft) O 80 ° 0 min 0,000 mm 0,0 UV-I 11 W/m² 11,9 °C 15,3 °C 0,0 km/h (0 Bft)
16.08.2019 20:11 15,2 °C 80 % 1014,6 hPa 0,0 mm 0,0 km/h (0 Bft) O 80 ° 0 min 0,000 mm 0,0 UV-I 11 W/m² 11,8 °C 15,2 °C 0,0 km/h (0 Bft)
16.08.2019 20:12 15,0 °C 81 % 1014,6 hPa 0,0 mm 0,0 km/h (0 Bft) O 80 ° 0 min 0,000 mm 0,0 UV-I 11 W/m² 11,8 °C 15,0 °C 0,0 km/h (0 Bft)
16.08.2019 20:13 14,9 °C 82 % 1014,6 hPa 0,0 mm 0,0 km/h (0 Bft) O 80 ° 0 min 0,000 mm 0,0 UV-I 11 W/m² 11,9 °C 14,9 °C 0,0 km/h (0 Bft)
16.08.2019 20:14 14,8 °C 82 % 1014,6 hPa 0,0 mm 0,0 km/h (0 Bft) O 80 ° 0 min 0,000 mm 0,0 UV-I 9 W/m² 11,8 °C 14,8 °C 0,0 km/h (0 Bft)
16.08.2019 20:15 14,8 °C 82 % 1014,6 hPa 0,0 mm 0,0 km/h (0 Bft) O 80 ° 0 min 0,000 mm 0,0 UV-I 9 W/m² 11,8 °C 14,8 °C 0,0 km/h (0 Bft)
16.08.2019 20:16 14,8 °C 82 % 1014,6 hPa 0,0 mm 0,0 km/h (0 Bft) O 80 ° 0 min 0,000 mm 0,0 UV-I 9 W/m² 11,8 °C 14,8 °C 0,0 km/h (0 Bft)
16.08.2019 20:17 14,8 °C 82 % 1014,6 hPa 0,0 mm 0,0 km/h (0 Bft) O 80 ° 0 min 0,000 mm 0,0 UV-I 9 W/m² 11,8 °C 14,8 °C 0,0 km/h (0 Bft)
16.08.2019 20:18 14,8 °C 82 % 1014,6 hPa 0,0 mm 0,0 km/h (0 Bft) O 80 ° 0 min 0,000 mm 0,0 UV-I 7 W/m² 11,8 °C 14,8 °C 0,0 km/h (0 Bft)
16.08.2019 20:19 14,9 °C 81 % 1014,6 hPa 0,0 mm 1,8 km/h (1 Bft) O 99 ° 0 min 0,000 mm 0,0 UV-I 7 W/m² 11,7 °C 14,9 °C 4,8 km/h (1 Bft)
16.08.2019 20:20 14,9 °C 80 % 1014,6 hPa 0,0 mm 5,0 km/h (1 Bft) O-SO 115 ° 0 min 0,000 mm 0,0 UV-I 7 W/m² 11,5 °C 14,9 °C 6,4 km/h (2 Bft)
16.08.2019 20:21 15,0 °C 80 % 1014,6 hPa 0,0 mm 4,9 km/h (1 Bft) O-SO 115 ° 0 min 0,000 mm 0,0 UV-I 5 W/m² 11,6 °C 15,0 °C 6,4 km/h (2 Bft)
16.08.2019 20:22 15,1 °C 80 % 1014,6 hPa 0,0 mm 4,3 km/h (1 Bft) O-SO 115 ° 0 min 0,000 mm 0,0 UV-I 5 W/m² 11,7 °C 15,1 °C 6,4 km/h (2 Bft)
16.08.2019 20:23 15,1 °C 80 % 1014,6 hPa 0,0 mm 3,9 km/h (1 Bft) O-SO 115 ° 0 min 0,000 mm 0,0 UV-I 5 W/m² 11,7 °C 15,1 °C 4,8 km/h (1 Bft)
16.08.2019 20:24 15,1 °C 79 % 1014,6 hPa 0,0 mm 3,2 km/h (1 Bft) O-SO 115 ° 0 min 0,000 mm 0,0 UV-I 5 W/m² 11,5 °C 15,1 °C 4,8 km/h (1 Bft)
16.08.2019 20:25 15,1 °C 79 % 1014,7 hPa 0,0 mm 2,3 km/h (1 Bft) O-SO 115 ° 0 min 0,000 mm 0,0 UV-I 5 W/m² 11,5 °C 15,1 °C 3,2 km/h (1 Bft)
16.08.2019 20:26 15,0 °C 79 % 1014,7 hPa 0,0 mm 0,1 km/h (0 Bft) O-SO 115 ° 0 min 0,000 mm 0,0 UV-I 0 W/m² 11,4 °C 15,0 °C 1,6 km/h (1 Bft)
16.08.2019 20:27 14,9 °C 79 % 1014,7 hPa 0,0 mm 0,0 km/h (0 Bft) O-SO 115 ° 0 min 0,000 mm 0,0 UV-I 0 W/m² 11,3 °C 14,9 °C 0,0 km/h (0 Bft)
16.08.2019 20:28 14,7 °C 79 % 1014,7 hPa 0,0 mm 0,0 km/h (0 Bft) O-SO 115 ° 0 min 0,000 mm 0,0 UV-I 0 W/m² 11,1 °C 14,7 °C 0,0 km/h (0 Bft)
16.08.2019 20:29 14,4 °C 81 % 1014,6 hPa 0,0 mm 0,0 km/h (0 Bft) O-SO 115 ° 0 min 0,000 mm 0,0 UV-I 0 W/m² 11,2 °C 14,4 °C 0,0 km/h (0 Bft)
16.08.2019 20:30 14,3 °C 82 % 1014,7 hPa 0,0 mm 0,0 km/h (0 Bft) O-SO 115 ° 0 min 0,000 mm 0,0 UV-I 0 W/m² 11,3 °C 14,3 °C 0,0 km/h (0 Bft)
16.08.2019 20:31 14,2 °C 82 % 1014,8 hPa 0,0 mm 0,0 km/h (0 Bft) O-SO 115 ° 0 min 0,000 mm 0,0 UV-I 0 W/m² 11,2 °C 14,2 °C 0,0 km/h (0 Bft)
16.08.2019 20:32 14,1 °C 83 % 1014,8 hPa 0,0 mm 0,0 km/h (0 Bft) O-SO 115 ° 0 min 0,000 mm 0,0 UV-I 0 W/m² 11,3 °C 14,1 °C 0,0 km/h (0 Bft)
16.08.2019 20:33 13,9 °C 83 % 1014,8 hPa 0,0 mm 0,0 km/h (0 Bft) O-SO 115 ° 0 min 0,000 mm 0,0 UV-I 0 W/m² 11,1 °C 13,9 °C 0,0 km/h (0 Bft)
16.08.2019 20:34 13,8 °C 83 % 1014,8 hPa 0,0 mm 0,0 km/h (0 Bft) O-SO 115 ° 0 min 0,000 mm 0,0 UV-I 0 W/m² 11,0 °C 13,8 °C 0,0 km/h (0 Bft)
16.08.2019 20:35 13,7 °C 84 % 1014,8 hPa 0,0 mm 0,0 km/h (0 Bft) O-SO 115 ° 0 min 0,000 mm 0,0 UV-I 0 W/m² 11,0 °C 13,7 °C 0,0 km/h (0 Bft)
16.08.2019 20:36 13,6 °C 85 % 1014,8 hPa 0,0 mm 0,0 km/h (0 Bft) O-SO 115 ° 0 min 0,000 mm 0,0 UV-I 0 W/m² 11,1 °C 13,6 °C 0,0 km/h (0 Bft)
16.08.2019 20:37 13,4 °C 85 % 1014,8 hPa 0,0 mm 0,0 km/h (0 Bft) O-SO 115 ° 0 min 0,000 mm 0,0 UV-I 0 W/m² 10,9 °C 13,4 °C 0,0 km/h (0 Bft)
16.08.2019 20:38 13,3 °C 86 % 1014,8 hPa 0,0 mm 0,0 km/h (0 Bft) O-SO 115 ° 0 min 0,000 mm 0,0 UV-I 0 W/m² 11,0 °C 13,3 °C 0,0 km/h (0 Bft)
16.08.2019 20:39 13,2 °C 86 % 1014,8 hPa 0,0 mm 0,1 km/h (0 Bft) O-SO 115 ° 0 min 0,000 mm 0,0 UV-I 0 W/m² 10,9 °C 13,2 °C 1,6 km/h (1 Bft)
16.08.2019 20:40 13,1 °C 86 % 1014,8 hPa 0,0 mm 0,0 km/h (0 Bft) O-SO 115 ° 0 min 0,000 mm 0,0 UV-I 0 W/m² 10,8 °C 13,1 °C 0,0 km/h (0 Bft)
16.08.2019 20:41 13,1 °C 87 % 1014,9 hPa 0,0 mm 0,0 km/h (0 Bft) O-SO 115 ° 0 min 0,000 mm 0,0 UV-I 0 W/m² 11,0 °C 13,1 °C 0,0 km/h (0 Bft)
16.08.2019 20:42 12,9 °C 87 % 1014,8 hPa 0,0 mm 0,0 km/h (0 Bft) O-SO 115 ° 0 min 0,000 mm 0,0 UV-I 0 W/m² 10,8 °C 12,9 °C 0,0 km/h (0 Bft)
16.08.2019 20:43 12,9 °C 87 % 1014,8 hPa 0,0 mm 0,0 km/h (0 Bft) O-SO 115 ° 0 min 0,000 mm 0,0 UV-I 0 W/m² 10,8 °C 12,9 °C 0,0 km/h (0 Bft)
16.08.2019 20:44 12,9 °C 87 % 1014,8 hPa 0,0 mm 0,0 km/h (0 Bft) O-SO 115 ° 0 min 0,000 mm 0,0 UV-I 0 W/m² 10,8 °C 12,9 °C 0,0 km/h (0 Bft)
16.08.2019 20:45 12,8 °C 87 % 1014,7 hPa 0,0 mm 0,0 km/h (0 Bft) O-SO 115 ° 0 min 0,000 mm 0,0 UV-I 0 W/m² 10,7 °C 12,8 °C 0,0 km/h (0 Bft)
16.08.2019 20:46 12,8 °C 87 % 1014,8 hPa 0,0 mm 0,0 km/h (0 Bft) O-SO 115 ° 0 min 0,000 mm 0,0 UV-I 0 W/m² 10,7 °C 12,8 °C 0,0 km/h (0 Bft)
16.08.2019 20:47 12,8 °C 87 % 1014,8 hPa 0,0 mm 0,0 km/h (0 Bft) O-SO 115 ° 0 min 0,000 mm 0,0 UV-I 0 W/m² 10,7 °C 12,8 °C 0,0 km/h (0 Bft)
16.08.2019 20:48 12,8 °C 88 % 1014,8 hPa 0,0 mm 0,0 km/h (0 Bft) O-SO 115 ° 0 min 0,000 mm 0,0 UV-I 0 W/m² 10,9 °C 12,8 °C 0,0 km/h (0 Bft)
16.08.2019 20:49 12,7 °C 88 % 1014,8 hPa 0,0 mm 0,7 km/h (0 Bft) O-SO 115 ° 0 min 0,000 mm 0,0 UV-I 0 W/m² 10,8 °C 12,7 °C 3,2 km/h (1 Bft)
16.08.2019 20:50 12,7 °C 88 % 1014,9 hPa 0,0 mm 1,5 km/h (1 Bft) O-SO 115 ° 0 min 0,000 mm 0,0 UV-I 0 W/m² 10,8 °C 12,7 °C 3,2 km/h (1 Bft)
16.08.2019 20:51 12,7 °C 88 % 1014,8 hPa 0,0 mm 3,1 km/h (1 Bft) O-SO 115 ° 0 min 0,000 mm 0,0 UV-I 0 W/m² 10,8 °C 12,7 °C 4,8 km/h (1 Bft)
16.08.2019 20:52 12,7 °C 88 % 1014,8 hPa 0,0 mm 1,4 km/h (1 Bft) O-SO 115 ° 0 min 0,000 mm 0,0 UV-I 0 W/m² 10,8 °C 12,7 °C 3,2 km/h (1 Bft)
16.08.2019 20:53 12,7 °C 88 % 1014,8 hPa 0,0 mm 0,0 km/h (0 Bft) O-SO 115 ° 0 min 0,000 mm 0,0 UV-I 0 W/m² 10,8 °C 12,7 °C 0,0 km/h (0 Bft)
16.08.2019 20:54 12,7 °C 88 % 1014,8 hPa 0,0 mm 0,0 km/h (0 Bft) O-SO 115 ° 0 min 0,000 mm 0,0 UV-I 0 W/m² 10,8 °C 12,7 °C 0,0 km/h (0 Bft)
16.08.2019 20:55 12,8 °C 88 % 1014,8 hPa 0,0 mm 0,0 km/h (0 Bft) O-SO 115 ° 0 min 0,000 mm 0,0 UV-I 0 W/m² 10,9 °C 12,8 °C 0,0 km/h (0 Bft)
16.08.2019 20:56 12,7 °C 88 % 1014,8 hPa 0,0 mm 0,0 km/h (0 Bft) O-SO 115 ° 0 min 0,000 mm 0,0 UV-I 0 W/m² 10,8 °C 12,7 °C 0,0 km/h (0 Bft)
16.08.2019 20:57 12,7 °C 88 % 1014,9 hPa 0,0 mm 0,0 km/h (0 Bft) O-SO 115 ° 0 min 0,000 mm 0,0 UV-I 0 W/m² 10,8 °C 12,7 °C 0,0 km/h (0 Bft)
16.08.2019 20:58 12,6 °C 88 % 1014,8 hPa 0,0 mm 0,0 km/h (0 Bft) O-SO 115 ° 0 min 0,000 mm 0,0 UV-I 0 W/m² 10,7 °C 12,6 °C 0,0 km/h (0 Bft)
16.08.2019 20:59 12,5 °C 88 % 1014,9 hPa 0,0 mm 0,0 km/h (0 Bft) O-SO 115 ° 0 min 0,000 mm 0,0 UV-I 0 W/m² 10,6 °C 12,5 °C 0,0 km/h (0 Bft)
16.08.2019 21:00 12,4 °C 88 % 1014,8 hPa 0,0 mm 0,0 km/h (0 Bft) O-SO 115 ° 0 min 0,000 mm 0,0 UV-I 0 W/m² 10,5 °C 12,4 °C 0,0 km/h (0 Bft)
16.08.2019 21:01 12,4 °C 88 % 1014,8 hPa 0,0 mm 0,0 km/h (0 Bft) O-SO 115 ° 0 min 0,000 mm 0,0 UV-I 0 W/m² 10,5 °C 12,4 °C 0,0 km/h (0 Bft)
16.08.2019 21:02 12,4 °C 89 % 1014,8 hPa 0,0 mm 0,0 km/h (0 Bft) O-SO 115 ° 0 min 0,000 mm 0,0 UV-I 0 W/m² 10,6 °C 12,4 °C 0,0 km/h (0 Bft)
16.08.2019 21:03 12,4 °C 89 % 1014,8 hPa 0,0 mm 0,0 km/h (0 Bft) O-SO 115 ° 0 min 0,000 mm 0,0 UV-I 0 W/m² 10,6 °C 12,4 °C 0,0 km/h (0 Bft)
16.08.2019 21:04 12,4 °C 89 % 1014,9 hPa 0,0 mm 0,0 km/h (0 Bft) O-SO 115 ° 0 min 0,000 mm 0,0 UV-I 0 W/m² 10,6 °C 12,4 °C 0,0 km/h (0 Bft)
16.08.2019 21:05 12,4 °C 89 % 1014,9 hPa 0,0 mm 0,0 km/h (0 Bft) O-SO 115 ° 0 min 0,000 mm 0,0 UV-I 0 W/m² 10,6 °C 12,4 °C 0,0 km/h (0 Bft)
16.08.2019 21:06 12,4 °C 88 % 1014,9 hPa 0,0 mm 1,3 km/h (1 Bft) O-SO 115 ° 0 min 0,000 mm 0,0 UV-I 0 W/m² 10,5 °C 12,4 °C 3,2 km/h (1 Bft)
16.08.2019 21:07 12,4 °C 88 % 1014,9 hPa 0,0 mm 0,4 km/h (0 Bft) O-SO 115 ° 0 min 0,000 mm 0,0 UV-I 0 W/m² 10,5 °C 12,4 °C 3,2 km/h (1 Bft)
16.08.2019 21:08 12,3 °C 88 % 1014,9 hPa 0,0 mm 0,0 km/h (0 Bft) O-SO 115 ° 0 min 0,000 mm 0,0 UV-I 0 W/m² 10,4 °C 12,3 °C 0,0 km/h (0 Bft)
16.08.2019 21:09 12,2 °C 88 % 1014,9 hPa 0,0 mm 0,0 km/h (0 Bft) O-SO 115 ° 0 min 0,000 mm 0,0 UV-I 0 W/m² 10,3 °C 12,2 °C 0,0 km/h (0 Bft)
16.08.2019 21:10 12,2 °C 89 % 1014,9 hPa 0,0 mm 0,0 km/h (0 Bft) O-SO 115 ° 0 min 0,000 mm 0,0 UV-I 0 W/m² 10,4 °C 12,2 °C 0,0 km/h (0 Bft)
16.08.2019 21:11 12,1 °C 89 % 1014,9 hPa 0,0 mm 0,0 km/h (0 Bft) O-SO 115 ° 0 min 0,000 mm 0,0 UV-I 0 W/m² 10,3 °C 12,1 °C 0,0 km/h (0 Bft)
16.08.2019 21:12 12,1 °C 89 % 1014,9 hPa 0,0 mm 0,0 km/h (0 Bft) O-SO 115 ° 0 min 0,000 mm 0,0 UV-I 0 W/m² 10,3 °C 12,1 °C 0,0 km/h (0 Bft)
16.08.2019 21:13 12,1 °C 89 % 1014,9 hPa 0,0 mm 0,0 km/h (0 Bft) O-SO 115 ° 0 min 0,000 mm 0,0 UV-I 0 W/m² 10,3 °C 12,1 °C 0,0 km/h (0 Bft)
16.08.2019 21:14 12,1 °C 89 % 1015,0 hPa 0,0 mm 0,0 km/h (0 Bft) O-SO 115 ° 0 min 0,000 mm 0,0 UV-I 0 W/m² 10,3 °C 12,1 °C 0,0 km/h (0 Bft)
16.08.2019 21:15 12,0 °C 89 % 1014,9 hPa 0,0 mm 0,0 km/h (0 Bft) O-SO 115 ° 0 min 0,000 mm 0,0 UV-I 0 W/m² 10,2 °C 12,0 °C 0,0 km/h (0 Bft)
16.08.2019 21:16 12,0 °C 90 % 1014,9 hPa 0,0 mm 0,0 km/h (0 Bft) O-SO 115 ° 0 min 0,000 mm 0,0 UV-I 0 W/m² 10,4 °C 12,0 °C 0,0 km/h (0 Bft)
16.08.2019 21:17 12,0 °C 90 % 1015,0 hPa 0,0 mm 0,0 km/h (0 Bft) O-SO 115 ° 0 min 0,000 mm 0,0 UV-I 0 W/m² 10,4 °C 12,0 °C 0,0 km/h (0 Bft)
16.08.2019 21:18 12,0 °C 90 % 1015,0 hPa 0,0 mm 0,0 km/h (0 Bft) O-SO 115 ° 0 min 0,000 mm 0,0 UV-I 0 W/m² 10,4 °C 12,0 °C 0,0 km/h (0 Bft)
16.08.2019 21:19 11,9 °C 90 % 1014,9 hPa 0,0 mm 0,0 km/h (0 Bft) O-SO 115 ° 0 min 0,000 mm 0,0 UV-I 0 W/m² 10,3 °C 11,9 °C 0,0 km/h (0 Bft)
16.08.2019 21:20 11,9 °C 90 % 1014,9 hPa 0,0 mm 0,0 km/h (0 Bft) O-SO 115 ° 0 min 0,000 mm 0,0 UV-I 0 W/m² 10,3 °C 11,9 °C 0,0 km/h (0 Bft)
16.08.2019 21:21 11,9 °C 90 % 1014,9 hPa 0,0 mm 0,0 km/h (0 Bft) O-SO 115 ° 0 min 0,000 mm 0,0 UV-I 0 W/m² 10,3 °C 11,9 °C 0,0 km/h (0 Bft)
16.08.2019 21:22 11,9 °C 90 % 1014,8 hPa 0,0 mm 0,0 km/h (0 Bft) O-SO 115 ° 0 min 0,000 mm 0,0 UV-I 0 W/m² 10,3 °C 11,9 °C 0,0 km/h (0 Bft)
16.08.2019 21:23 11,9 °C 90 % 1014,9 hPa 0,0 mm 0,0 km/h (0 Bft) O-SO 115 ° 0 min 0,000 mm 0,0 UV-I 0 W/m² 10,3 °C 11,9 °C 0,0 km/h (0 Bft)
16.08.2019 21:24 12,0 °C 90 % 1014,8 hPa 0,0 mm 0,0 km/h (0 Bft) O-SO 115 ° 0 min 0,000 mm 0,0 UV-I 0 W/m² 10,4 °C 12,0 °C 0,0 km/h (0 Bft)
16.08.2019 21:25 12,0 °C 90 % 1014,9 hPa 0,0 mm 0,0 km/h (0 Bft) O-SO 115 ° 0 min 0,000 mm 0,0 UV-I 0 W/m² 10,4 °C 12,0 °C 0,0 km/h (0 Bft)
16.08.2019 21:26 12,0 °C 90 % 1014,9 hPa 0,0 mm 0,0 km/h (0 Bft) O-SO 115 ° 0 min 0,000 mm 0,0 UV-I 0 W/m² 10,4 °C 12,0 °C 0,0 km/h (0 Bft)
16.08.2019 21:27 11,9 °C 90 % 1014,9 hPa 0,0 mm 0,0 km/h (0 Bft) O-SO 115 ° 0 min 0,000 mm 0,0 UV-I 0 W/m² 10,3 °C 11,9 °C 0,0 km/h (0 Bft)
16.08.2019 21:28 11,9 °C 90 % 1014,9 hPa 0,0 mm 0,0 km/h (0 Bft) O-SO 115 ° 0 min 0,000 mm 0,0 UV-I 0 W/m² 10,3 °C 11,9 °C 0,0 km/h (0 Bft)
16.08.2019 21:29 12,0 °C 90 % 1014,8 hPa 0,0 mm 0,0 km/h (0 Bft) O-SO 115 ° 0 min 0,000 mm 0,0 UV-I 0 W/m² 10,4 °C 12,0 °C 0,0 km/h (0 Bft)
16.08.2019 21:30 12,0 °C 90 % 1014,9 hPa 0,0 mm 0,0 km/h (0 Bft) O-SO 115 ° 0 min 0,000 mm 0,0 UV-I 0 W/m² 10,4 °C 12,0 °C 0,0 km/h (0 Bft)
16.08.2019 21:31 12,1 °C 90 % 1014,9 hPa 0,0 mm 0,0 km/h (0 Bft) O-SO 115 ° 0 min 0,000 mm 0,0 UV-I 0 W/m² 10,5 °C 12,1 °C 0,0 km/h (0 Bft)
16.08.2019 21:32 12,1 °C 90 % 1014,8 hPa 0,0 mm 0,0 km/h (0 Bft) O-SO 115 ° 0 min 0,000 mm 0,0 UV-I 0 W/m² 10,5 °C 12,1 °C 0,0 km/h (0 Bft)
16.08.2019 21:33 12,1 °C 90 % 1014,9 hPa 0,0 mm 0,0 km/h (0 Bft) O-SO 115 ° 0 min 0,000 mm 0,0 UV-I 0 W/m² 10,5 °C 12,1 °C 0,0 km/h (0 Bft)
16.08.2019 21:34 12,1 °C 90 % 1014,9 hPa 0,0 mm 0,0 km/h (0 Bft) O-SO 115 ° 0 min 0,000 mm 0,0 UV-I 0 W/m² 10,5 °C 12,1 °C 0,0 km/h (0 Bft)
16.08.2019 21:35 12,2 °C 90 % 1014,9 hPa 0,0 mm 0,0 km/h (0 Bft) O-SO 115 ° 0 min 0,000 mm 0,0 UV-I 0 W/m² 10,6 °C 12,2 °C 0,0 km/h (0 Bft)
16.08.2019 21:36 12,2 °C 90 % 1014,9 hPa 0,0 mm 0,0 km/h (0 Bft) O-SO 115 ° 0 min 0,000 mm 0,0 UV-I 0 W/m² 10,6 °C 12,2 °C 0,0 km/h (0 Bft)
16.08.2019 21:37 12,2 °C 90 % 1014,9 hPa 0,0 mm 0,0 km/h (0 Bft) O-SO 115 ° 0 min 0,000 mm 0,0 UV-I 0 W/m² 10,6 °C 12,2 °C 0,0 km/h (0 Bft)
16.08.2019 21:38 12,1 °C 90 % 1014,9 hPa 0,0 mm 0,0 km/h (0 Bft) O-SO 115 ° 0 min 0,000 mm 0,0 UV-I 0 W/m² 10,5 °C 12,1 °C 0,0 km/h (0 Bft)
16.08.2019 21:39 12,1 °C 89 % 1014,9 hPa 0,0 mm 0,0 km/h (0 Bft) O-SO 115 ° 0 min 0,000 mm 0,0 UV-I 0 W/m² 10,3 °C 12,1 °C 0,0 km/h (0 Bft)
16.08.2019 21:40 12,1 °C 90 % 1014,9 hPa 0,0 mm 0,0 km/h (0 Bft) O-SO 115 ° 0 min 0,000 mm 0,0 UV-I 0 W/m² 10,5 °C 12,1 °C 0,0 km/h (0 Bft)
16.08.2019 21:41 12,0 °C 90 % 1014,9 hPa 0,0 mm 0,0 km/h (0 Bft) O-SO 115 ° 0 min 0,000 mm 0,0 UV-I 0 W/m² 10,4 °C 12,0 °C 0,0 km/h (0 Bft)
16.08.2019 21:42 11,9 °C 90 % 1015,0 hPa 0,0 mm 0,0 km/h (0 Bft) O-SO 115 ° 0 min 0,000 mm 0,0 UV-I 0 W/m² 10,3 °C 11,9 °C 0,0 km/h (0 Bft)
16.08.2019 21:43 11,9 °C 90 % 1015,0 hPa 0,0 mm 0,0 km/h (0 Bft) O-SO 115 ° 0 min 0,000 mm 0,0 UV-I 0 W/m² 10,3 °C 11,9 °C 0,0 km/h (0 Bft)
16.08.2019 21:44 11,9 °C 90 % 1015,0 hPa 0,0 mm 0,0 km/h (0 Bft) O-SO 115 ° 0 min 0,000 mm 0,0 UV-I 0 W/m² 10,3 °C 11,9 °C 0,0 km/h (0 Bft)
16.08.2019 21:45 11,8 °C 90 % 1015,0 hPa 0,0 mm 0,0 km/h (0 Bft) O-SO 115 ° 0 min 0,000 mm 0,0 UV-I 0 W/m² 10,2 °C 11,8 °C 0,0 km/h (0 Bft)
16.08.2019 21:46 11,8 °C 90 % 1015,0 hPa 0,0 mm 0,0 km/h (0 Bft) O-SO 115 ° 0 min 0,000 mm 0,0 UV-I 0 W/m² 10,2 °C 11,8 °C 0,0 km/h (0 Bft)
16.08.2019 21:47 11,8 °C 90 % 1015,0 hPa 0,0 mm 0,0 km/h (0 Bft) O-SO 115 ° 0 min 0,000 mm 0,0 UV-I 0 W/m² 10,2 °C 11,8 °C 0,0 km/h (0 Bft)
16.08.2019 21:48 11,7 °C 90 % 1015,0 hPa 0,0 mm 0,0 km/h (0 Bft) O-SO 115 ° 0 min 0,000 mm 0,0 UV-I 0 W/m² 10,1 °C 11,7 °C 0,0 km/h (0 Bft)
16.08.2019 21:49 11,7 °C 90 % 1015,0 hPa 0,0 mm 0,0 km/h (0 Bft) O-SO 115 ° 0 min 0,000 mm 0,0 UV-I 0 W/m² 10,1 °C 11,7 °C 0,0 km/h (0 Bft)
16.08.2019 21:50 11,7 °C 90 % 1015,0 hPa 0,0 mm 0,0 km/h (0 Bft) O-SO 115 ° 0 min 0,000 mm 0,0 UV-I 0 W/m² 10,1 °C 11,7 °C 0,0 km/h (0 Bft)
16.08.2019 21:51 11,7 °C 91 % 1014,9 hPa 0,0 mm 0,0 km/h (0 Bft) O-SO 115 ° 0 min 0,000 mm 0,0 UV-I 0 W/m² 10,3 °C 11,7 °C 0,0 km/h (0 Bft)
16.08.2019 21:52 11,7 °C 91 % 1014,9 hPa 0,0 mm 0,0 km/h (0 Bft) O-SO 115 ° 0 min 0,000 mm 0,0 UV-I 0 W/m² 10,3 °C 11,7 °C 0,0 km/h (0 Bft)
16.08.2019 21:53 11,7 °C 91 % 1014,9 hPa 0,0 mm 0,0 km/h (0 Bft) O-SO 115 ° 0 min 0,000 mm 0,0 UV-I 0 W/m² 10,3 °C 11,7 °C 0,0 km/h (0 Bft)
16.08.2019 21:54 11,7 °C 91 % 1015,0 hPa 0,0 mm 0,0 km/h (0 Bft) O-SO 115 ° 0 min 0,000 mm 0,0 UV-I 0 W/m² 10,3 °C 11,7 °C 0,0 km/h (0 Bft)
16.08.2019 21:55 11,7 °C 91 % 1014,9 hPa 0,0 mm 0,0 km/h (0 Bft) O-SO 115 ° 0 min 0,000 mm 0,0 UV-I 0 W/m² 10,3 °C 11,7 °C 0,0 km/h (0 Bft)
16.08.2019 21:56 11,7 °C 91 % 1014,9 hPa 0,0 mm 0,0 km/h (0 Bft) O-SO 115 ° 0 min 0,000 mm 0,0 UV-I 0 W/m² 10,3 °C 11,7 °C 0,0 km/h (0 Bft)
16.08.2019 21:57 11,7 °C 91 % 1014,9 hPa 0,0 mm 0,0 km/h (0 Bft) O-SO 115 ° 0 min 0,000 mm 0,0 UV-I 0 W/m² 10,3 °C 11,7 °C 0,0 km/h (0 Bft)
16.08.2019 21:58 11,7 °C 91 % 1014,9 hPa 0,0 mm 0,0 km/h (0 Bft) O-SO 115 ° 0 min 0,000 mm 0,0 UV-I 0 W/m² 10,3 °C 11,7 °C 0,0 km/h (0 Bft)
16.08.2019 21:59 11,7 °C 91 % 1014,9 hPa 0,0 mm 0,0 km/h (0 Bft) O-SO 115 ° 0 min 0,000 mm 0,0 UV-I 0 W/m² 10,3 °C 11,7 °C 0,0 km/h (0 Bft)
16.08.2019 22:00 11,7 °C 91 % 1014,9 hPa 0,0 mm 0,0 km/h (0 Bft) O-SO 115 ° 0 min 0,000 mm 0,0 UV-I 0 W/m² 10,3 °C 11,7 °C 0,0 km/h (0 Bft)
16.08.2019 22:01 11,7 °C 91 % 1014,9 hPa 0,0 mm 0,0 km/h (0 Bft) O-SO 115 ° 0 min 0,000 mm 0,0 UV-I 0 W/m² 10,3 °C 11,7 °C 0,0 km/h (0 Bft)
16.08.2019 22:02 11,7 °C 91 % 1014,9 hPa 0,0 mm 0,0 km/h (0 Bft) O-SO 115 ° 0 min 0,000 mm 0,0 UV-I 0 W/m² 10,3 °C 11,7 °C 0,0 km/h (0 Bft)
16.08.2019 22:03 11,7 °C 91 % 1014,9 hPa 0,0 mm 0,0 km/h (0 Bft) O-SO 115 ° 0 min 0,000 mm 0,0 UV-I 0 W/m² 10,3 °C 11,7 °C 0,0 km/h (0 Bft)
16.08.2019 22:04 11,6 °C 91 % 1014,9 hPa 0,0 mm 0,0 km/h (0 Bft) O-SO 115 ° 0 min 0,000 mm 0,0 UV-I 0 W/m² 10,2 °C 11,6 °C 0,0 km/h (0 Bft)
16.08.2019 22:05 11,7 °C 91 % 1014,9 hPa 0,0 mm 0,0 km/h (0 Bft) O-SO 115 ° 0 min 0,000 mm 0,0 UV-I 0 W/m² 10,3 °C 11,7 °C 0,0 km/h (0 Bft)
16.08.2019 22:06 11,7 °C 91 % 1014,9 hPa 0,0 mm 0,0 km/h (0 Bft) O-SO 115 ° 0 min 0,000 mm 0,0 UV-I 0 W/m² 10,3 °C 11,7 °C 0,0 km/h (0 Bft)
16.08.2019 22:07 11,7 °C 91 % 1014,9 hPa 0,0 mm 0,0 km/h (0 Bft) O-SO 115 ° 0 min 0,000 mm 0,0 UV-I 0 W/m² 10,3 °C 11,7 °C 0,0 km/h (0 Bft)
16.08.2019 22:08 11,7 °C 91 % 1014,9 hPa 0,0 mm 0,0 km/h (0 Bft) O-SO 115 ° 0 min 0,000 mm 0,0 UV-I 0 W/m² 10,3 °C 11,7 °C 0,0 km/h (0 Bft)
16.08.2019 22:09 11,8 °C 91 % 1014,9 hPa 0,0 mm 0,0 km/h (0 Bft) O-SO 115 ° 0 min 0,000 mm 0,0 UV-I 0 W/m² 10,4 °C 11,8 °C 0,0 km/h (0 Bft)
16.08.2019 22:10 11,7 °C 91 % 1014,9 hPa 0,0 mm 0,0 km/h (0 Bft) O-SO 115 ° 0 min 0,000 mm 0,0 UV-I 0 W/m² 10,3 °C 11,7 °C 0,0 km/h (0 Bft)
16.08.2019 22:11 11,7 °C 91 % 1014,9 hPa 0,0 mm 0,0 km/h (0 Bft) O-SO 115 ° 0 min 0,000 mm 0,0 UV-I 0 W/m² 10,3 °C 11,7 °C 0,0 km/h (0 Bft)
16.08.2019 22:12 11,7 °C 91 % 1014,8 hPa 0,0 mm 0,0 km/h (0 Bft) O-SO 115 ° 0 min 0,000 mm 0,0 UV-I 0 W/m² 10,3 °C 11,7 °C 0,0 km/h (0 Bft)
16.08.2019 22:13 11,7 °C 91 % 1014,9 hPa 0,0 mm 0,0 km/h (0 Bft) O-SO 115 ° 0 min 0,000 mm 0,0 UV-I 0 W/m² 10,3 °C 11,7 °C 0,0 km/h (0 Bft)
16.08.2019 22:14 11,7 °C 91 % 1014,8 hPa 0,0 mm 0,0 km/h (0 Bft) O-SO 115 ° 0 min 0,000 mm 0,0 UV-I 0 W/m² 10,3 °C 11,7 °C 0,0 km/h (0 Bft)
16.08.2019 22:15 11,7 °C 91 % 1014,8 hPa 0,0 mm 0,0 km/h (0 Bft) O-SO 115 ° 0 min 0,000 mm 0,0 UV-I 0 W/m² 10,3 °C 11,7 °C 0,0 km/h (0 Bft)
16.08.2019 22:16 11,7 °C 91 % 1014,9 hPa 0,0 mm 0,0 km/h (0 Bft) O-SO 115 ° 0 min 0,000 mm 0,0 UV-I 0 W/m² 10,3 °C 11,7 °C 0,0 km/h (0 Bft)
16.08.2019 22:17 11,7 °C 91 % 1014,9 hPa 0,0 mm 0,0 km/h (0 Bft) O-SO 115 ° 0 min 0,000 mm 0,0 UV-I 0 W/m² 10,3 °C 11,7 °C 0,0 km/h (0 Bft)
16.08.2019 22:18 11,7 °C 92 % 1014,9 hPa 0,0 mm 0,0 km/h (0 Bft) O-SO 115 ° 0 min 0,000 mm 0,0 UV-I 0 W/m² 10,4 °C 11,7 °C 0,0 km/h (0 Bft)
16.08.2019 22:19 11,7 °C 91 % 1014,9 hPa 0,0 mm 0,0 km/h (0 Bft) O-SO 115 ° 0 min 0,000 mm 0,0 UV-I 0 W/m² 10,3 °C 11,7 °C 0,0 km/h (0 Bft)
16.08.2019 22:20 11,7 °C 91 % 1014,8 hPa 0,0 mm 0,0 km/h (0 Bft) O-SO 115 ° 0 min 0,000 mm 0,0 UV-I 0 W/m² 10,3 °C 11,7 °C 0,0 km/h (0 Bft)
16.08.2019 22:21 11,7 °C 91 % 1014,8 hPa 0,0 mm 0,0 km/h (0 Bft) O-SO 115 ° 0 min 0,000 mm 0,0 UV-I 0 W/m² 10,3 °C 11,7 °C 0,0 km/h (0 Bft)
16.08.2019 22:22 11,7 °C 92 % 1014,8 hPa 0,0 mm 0,0 km/h (0 Bft) O-SO 115 ° 0 min 0,000 mm 0,0 UV-I 0 W/m² 10,4 °C 11,7 °C 0,0 km/h (0 Bft)
16.08.2019 22:23 11,7 °C 92 % 1014,8 hPa 0,0 mm 0,0 km/h (0 Bft) O-SO 115 ° 0 min 0,000 mm 0,0 UV-I 0 W/m² 10,4 °C 11,7 °C 0,0 km/h (0 Bft)
16.08.2019 22:24 11,7 °C 92 % 1014,8 hPa 0,0 mm 0,0 km/h (0 Bft) O-SO 115 ° 0 min 0,000 mm 0,0 UV-I 0 W/m² 10,4 °C 11,7 °C 0,0 km/h (0 Bft)
16.08.2019 22:25 11,7 °C 92 % 1014,8 hPa 0,0 mm 0,0 km/h (0 Bft) O-SO 115 ° 0 min 0,000 mm 0,0 UV-I 0 W/m² 10,4 °C 11,7 °C 0,0 km/h (0 Bft)
16.08.2019 22:26 11,7 °C 92 % 1014,8 hPa 0,0 mm 0,0 km/h (0 Bft) O-SO 115 ° 0 min 0,000 mm 0,0 UV-I 0 W/m² 10,4 °C 11,7 °C 0,0 km/h (0 Bft)
16.08.2019 22:28 11,7 °C 92 % 1014,8 hPa 0,0 mm 0,0 km/h (0 Bft) O-SO 115 ° 0 min 0,000 mm 0,0 UV-I 0 W/m² 10,4 °C 11,7 °C 0,0 km/h (0 Bft)
16.08.2019 22:29 11,7 °C 92 % 1014,8 hPa 0,0 mm 0,0 km/h (0 Bft) O-SO 115 ° 0 min 0,000 mm 0,0 UV-I 0 W/m² 10,4 °C 11,7 °C 0,0 km/h (0 Bft)
16.08.2019 22:30 11,7 °C 92 % 1014,8 hPa 0,0 mm 0,0 km/h (0 Bft) O-SO 115 ° 0 min 0,000 mm 0,0 UV-I 0 W/m² 10,4 °C 11,7 °C 0,0 km/h (0 Bft)
16.08.2019 22:31 11,7 °C 92 % 1014,7 hPa 0,0 mm 0,0 km/h (0 Bft) O-SO 115 ° 0 min 0,000 mm 0,0 UV-I 0 W/m² 10,4 °C 11,7 °C 0,0 km/h (0 Bft)
16.08.2019 22:32 11,6 °C 92 % 1014,7 hPa 0,0 mm 0,0 km/h (0 Bft) O-SO 115 ° 0 min 0,000 mm 0,0 UV-I 0 W/m² 10,3 °C 11,6 °C 0,0 km/h (0 Bft)
16.08.2019 22:33 11,6 °C 92 % 1014,7 hPa 0,0 mm 0,0 km/h (0 Bft) O-SO 115 ° 0 min 0,000 mm 0,0 UV-I 0 W/m² 10,3 °C 11,6 °C 0,0 km/h (0 Bft)
16.08.2019 22:34 11,6 °C 92 % 1014,7 hPa 0,0 mm 0,0 km/h (0 Bft) O-SO 115 ° 0 min 0,000 mm 0,0 UV-I 0 W/m² 10,3 °C 11,6 °C 0,0 km/h (0 Bft)
16.08.2019 22:35 11,6 °C 92 % 1014,7 hPa 0,0 mm 0,0 km/h (0 Bft) O-SO 115 ° 0 min 0,000 mm 0,0 UV-I 0 W/m² 10,3 °C 11,6 °C 0,0 km/h (0 Bft)
16.08.2019 22:36 11,6 °C 92 % 1014,7 hPa 0,0 mm 0,0 km/h (0 Bft) O-SO 115 ° 0 min 0,000 mm 0,0 UV-I 0 W/m² 10,3 °C 11,6 °C 0,0 km/h (0 Bft)
16.08.2019 22:37 11,6 °C 92 % 1014,7 hPa 0,0 mm 0,0 km/h (0 Bft) O-SO 115 ° 0 min 0,000 mm 0,0 UV-I 0 W/m² 10,3 °C 11,6 °C 0,0 km/h (0 Bft)
16.08.2019 22:38 11,6 °C 92 % 1014,7 hPa 0,0 mm 0,0 km/h (0 Bft) O-SO 115 ° 0 min 0,000 mm 0,0 UV-I 0 W/m² 10,3 °C 11,6 °C 0,0 km/h (0 Bft)
16.08.2019 22:39 11,6 °C 92 % 1014,7 hPa 0,0 mm 0,0 km/h (0 Bft) O-SO 115 ° 0 min 0,000 mm 0,0 UV-I 0 W/m² 10,3 °C 11,6 °C 0,0 km/h (0 Bft)
16.08.2019 22:40 11,6 °C 92 % 1014,7 hPa 0,0 mm 0,0 km/h (0 Bft) O-SO 115 ° 0 min 0,000 mm 0,0 UV-I 0 W/m² 10,3 °C 11,6 °C 0,0 km/h (0 Bft)
16.08.2019 22:41 11,6 °C 92 % 1014,7 hPa 0,0 mm 0,0 km/h (0 Bft) O-SO 115 ° 0 min 0,000 mm 0,0 UV-I 0 W/m² 10,3 °C 11,6 °C 0,0 km/h (0 Bft)
16.08.2019 22:42 11,6 °C 92 % 1014,6 hPa 0,0 mm 0,0 km/h (0 Bft) O-SO 115 ° 0 min 0,000 mm 0,0 UV-I 0 W/m² 10,3 °C 11,6 °C 0,0 km/h (0 Bft)
16.08.2019 22:43 11,5 °C 92 % 1014,6 hPa 0,0 mm 0,0 km/h (0 Bft) O-SO 115 ° 0 min 0,000 mm 0,0 UV-I 0 W/m² 10,2 °C 11,5 °C 0,0 km/h (0 Bft)
16.08.2019 22:44 11,5 °C 92 % 1014,6 hPa 0,0 mm 0,0 km/h (0 Bft) O-SO 115 ° 0 min 0,000 mm 0,0 UV-I 0 W/m² 10,2 °C 11,5 °C 0,0 km/h (0 Bft)
16.08.2019 22:45 11,5 °C 92 % 1014,6 hPa 0,0 mm 0,0 km/h (0 Bft) O-SO 115 ° 0 min 0,000 mm 0,0 UV-I 0 W/m² 10,2 °C 11,5 °C 0,0 km/h (0 Bft)
16.08.2019 22:46 11,5 °C 92 % 1014,7 hPa 0,0 mm 0,0 km/h (0 Bft) O-SO 115 ° 0 min 0,000 mm 0,0 UV-I 0 W/m² 10,2 °C 11,5 °C 0,0 km/h (0 Bft)
16.08.2019 22:47 11,5 °C 92 % 1014,7 hPa 0,0 mm 0,0 km/h (0 Bft) O-SO 115 ° 0 min 0,000 mm 0,0 UV-I 0 W/m² 10,2 °C 11,5 °C 0,0 km/h (0 Bft)
16.08.2019 22:48 11,5 °C 92 % 1014,6 hPa 0,0 mm 0,0 km/h (0 Bft) O-SO 115 ° 0 min 0,000 mm 0,0 UV-I 0 W/m² 10,2 °C 11,5 °C 0,0 km/h (0 Bft)
16.08.2019 22:49 11,5 °C 92 % 1014,7 hPa 0,0 mm 0,0 km/h (0 Bft) O-SO 115 ° 0 min 0,000 mm 0,0 UV-I 0 W/m² 10,2 °C 11,5 °C 0,0 km/h (0 Bft)
16.08.2019 22:50 11,5 °C 92 % 1014,6 hPa 0,0 mm 0,0 km/h (0 Bft) O-SO 115 ° 0 min 0,000 mm 0,0 UV-I 0 W/m² 10,2 °C 11,5 °C 0,0 km/h (0 Bft)
16.08.2019 22:51 11,5 °C 92 % 1014,6 hPa 0,0 mm 0,0 km/h (0 Bft) O-SO 115 ° 0 min 0,000 mm 0,0 UV-I 0 W/m² 10,2 °C 11,5 °C 0,0 km/h (0 Bft)
16.08.2019 22:52 11,6 °C 92 % 1014,7 hPa 0,0 mm 0,0 km/h (0 Bft) O-SO 115 ° 0 min 0,000 mm 0,0 UV-I 0 W/m² 10,3 °C 11,6 °C 0,0 km/h (0 Bft)
16.08.2019 22:53 11,6 °C 92 % 1014,6 hPa 0,0 mm 0,0 km/h (0 Bft) O-SO 115 ° 0 min 0,000 mm 0,0 UV-I 0 W/m² 10,3 °C 11,6 °C 0,0 km/h (0 Bft)
16.08.2019 22:54 11,6 °C 92 % 1014,6 hPa 0,0 mm 0,0 km/h (0 Bft) O-SO 115 ° 0 min 0,000 mm 0,0 UV-I 0 W/m² 10,3 °C 11,6 °C 0,0 km/h (0 Bft)
16.08.2019 22:55 11,6 °C 92 % 1014,6 hPa 0,0 mm 0,0 km/h (0 Bft) O-SO 115 ° 0 min 0,000 mm 0,0 UV-I 0 W/m² 10,3 °C 11,6 °C 0,0 km/h (0 Bft)
16.08.2019 22:56 11,6 °C 92 % 1014,6 hPa 0,0 mm 0,0 km/h (0 Bft) O-SO 115 ° 0 min 0,000 mm 0,0 UV-I 0 W/m² 10,3 °C 11,6 °C 0,0 km/h (0 Bft)
16.08.2019 22:57 11,5 °C 92 % 1014,6 hPa 0,0 mm 0,0 km/h (0 Bft) O-SO 115 ° 0 min 0,000 mm 0,0 UV-I 0 W/m² 10,2 °C 11,5 °C 0,0 km/h (0 Bft)
16.08.2019 22:58 11,5 °C 92 % 1014,6 hPa 0,0 mm 0,0 km/h (0 Bft) O-SO 115 ° 0 min 0,000 mm 0,0 UV-I 0 W/m² 10,2 °C 11,5 °C 0,0 km/h (0 Bft)
16.08.2019 22:59 11,5 °C 92 % 1014,6 hPa 0,0 mm 0,0 km/h (0 Bft) O-SO 115 ° 0 min 0,000 mm 0,0 UV-I 0 W/m² 10,2 °C 11,5 °C 0,0 km/h (0 Bft)
16.08.2019 23:00 11,4 °C 92 % 1014,6 hPa 0,0 mm 0,0 km/h (0 Bft) O-SO 115 ° 0 min 0,000 mm 0,0 UV-I 0 W/m² 10,1 °C 11,4 °C 0,0 km/h (0 Bft)
16.08.2019 23:01 11,4 °C 92 % 1014,6 hPa 0,0 mm 0,0 km/h (0 Bft) O-SO 115 ° 0 min 0,000 mm 0,0 UV-I 0 W/m² 10,1 °C 11,4 °C 0,0 km/h (0 Bft)
16.08.2019 23:02 11,4 °C 92 % 1014,6 hPa 0,0 mm 0,0 km/h (0 Bft) O-SO 115 ° 0 min 0,000 mm 0,0 UV-I 0 W/m² 10,1 °C 11,4 °C 0,0 km/h (0 Bft)
16.08.2019 23:03 11,4 °C 92 % 1014,6 hPa 0,0 mm 0,0 km/h (0 Bft) O-SO 115 ° 0 min 0,000 mm 0,0 UV-I 0 W/m² 10,1 °C 11,4 °C 0,0 km/h (0 Bft)
16.08.2019 23:04 11,4 °C 92 % 1014,6 hPa 0,0 mm 0,0 km/h (0 Bft) O-SO 115 ° 0 min 0,000 mm 0,0 UV-I 0 W/m² 10,1 °C 11,4 °C 0,0 km/h (0 Bft)
16.08.2019 23:05 11,4 °C 92 % 1014,6 hPa 0,0 mm 0,0 km/h (0 Bft) O-SO 115 ° 0 min 0,000 mm 0,0 UV-I 0 W/m² 10,1 °C 11,4 °C 0,0 km/h (0 Bft)
16.08.2019 23:06 11,4 °C 92 % 1014,6 hPa 0,0 mm 0,0 km/h (0 Bft) O-SO 115 ° 0 min 0,000 mm 0,0 UV-I 0 W/m² 10,1 °C 11,4 °C 0,0 km/h (0 Bft)
16.08.2019 23:07 11,4 °C 92 % 1014,6 hPa 0,0 mm 0,0 km/h (0 Bft) O-SO 115 ° 0 min 0,000 mm 0,0 UV-I 0 W/m² 10,1 °C 11,4 °C 0,0 km/h (0 Bft)
16.08.2019 23:08 11,3 °C 92 % 1014,6 hPa 0,0 mm 0,0 km/h (0 Bft) O-SO 115 ° 0 min 0,000 mm 0,0 UV-I 0 W/m² 10,0 °C 11,3 °C 0,0 km/h (0 Bft)
16.08.2019 23:09 11,3 °C 92 % 1014,6 hPa 0,0 mm 0,0 km/h (0 Bft) O-SO 115 ° 0 min 0,000 mm 0,0 UV-I 0 W/m² 10,0 °C 11,3 °C 0,0 km/h (0 Bft)
16.08.2019 23:10 11,3 °C 92 % 1014,6 hPa 0,0 mm 0,0 km/h (0 Bft) O-SO 115 ° 0 min 0,000 mm 0,0 UV-I 0 W/m² 10,0 °C 11,3 °C 0,0 km/h (0 Bft)
16.08.2019 23:11 11,3 °C 92 % 1014,6 hPa 0,0 mm 0,0 km/h (0 Bft) O-SO 115 ° 0 min 0,000 mm 0,0 UV-I 0 W/m² 10,0 °C 11,3 °C 0,0 km/h (0 Bft)
16.08.2019 23:12 11,3 °C 92 % 1014,6 hPa 0,0 mm 0,0 km/h (0 Bft) O-SO 115 ° 0 min 0,000 mm 0,0 UV-I 0 W/m² 10,0 °C 11,3 °C 0,0 km/h (0 Bft)
16.08.2019 23:13 11,2 °C 92 % 1014,7 hPa 0,0 mm 0,0 km/h (0 Bft) O-SO 115 ° 0 min 0,000 mm 0,0 UV-I 0 W/m² 9,9 °C 11,2 °C 0,0 km/h (0 Bft)
16.08.2019 23:14 11,1 °C 92 % 1014,6 hPa 0,0 mm 0,0 km/h (0 Bft) O-SO 115 ° 0 min 0,000 mm 0,0 UV-I 0 W/m² 9,8 °C 11,1 °C 0,0 km/h (0 Bft)
16.08.2019 23:15 11,1 °C 92 % 1014,6 hPa 0,0 mm 0,0 km/h (0 Bft) O-SO 115 ° 0 min 0,000 mm 0,0 UV-I 0 W/m² 9,8 °C 11,1 °C 0,0 km/h (0 Bft)
16.08.2019 23:16 11,0 °C 92 % 1014,6 hPa 0,0 mm 0,0 km/h (0 Bft) O-SO 115 ° 0 min 0,000 mm 0,0 UV-I 0 W/m² 9,8 °C 11,0 °C 0,0 km/h (0 Bft)
16.08.2019 23:17 10,9 °C 92 % 1014,6 hPa 0,0 mm 0,0 km/h (0 Bft) O-SO 115 ° 0 min 0,000 mm 0,0 UV-I 0 W/m² 9,7 °C 10,9 °C 0,0 km/h (0 Bft)
16.08.2019 23:18 10,9 °C 92 % 1014,6 hPa 0,0 mm 0,0 km/h (0 Bft) O-SO 115 ° 0 min 0,000 mm 0,0 UV-I 0 W/m² 9,7 °C 10,9 °C 0,0 km/h (0 Bft)
16.08.2019 23:19 10,8 °C 92 % 1014,6 hPa 0,0 mm 0,0 km/h (0 Bft) O-SO 115 ° 0 min 0,000 mm 0,0 UV-I 0 W/m² 9,6 °C 10,8 °C 0,0 km/h (0 Bft)
16.08.2019 23:20 10,9 °C 92 % 1014,6 hPa 0,0 mm 0,0 km/h (0 Bft) O-SO 115 ° 0 min 0,000 mm 0,0 UV-I 0 W/m² 9,7 °C 10,9 °C 0,0 km/h (0 Bft)
16.08.2019 23:21 10,9 °C 92 % 1014,5 hPa 0,0 mm 0,0 km/h (0 Bft) O-SO 115 ° 0 min 0,000 mm 0,0 UV-I 0 W/m² 9,7 °C 10,9 °C 0,0 km/h (0 Bft)
16.08.2019 23:22 10,9 °C 92 % 1014,5 hPa 0,0 mm 0,0 km/h (0 Bft) O-SO 115 ° 0 min 0,000 mm 0,0 UV-I 0 W/m² 9,7 °C 10,9 °C 0,0 km/h (0 Bft)
16.08.2019 23:23 10,9 °C 92 % 1014,5 hPa 0,0 mm 0,0 km/h (0 Bft) O-SO 115 ° 0 min 0,000 mm 0,0 UV-I 0 W/m² 9,7 °C 10,9 °C 0,0 km/h (0 Bft)
16.08.2019 23:24 10,9 °C 92 % 1014,5 hPa 0,0 mm 0,0 km/h (0 Bft) O-SO 115 ° 0 min 0,000 mm 0,0 UV-I 0 W/m² 9,7 °C 10,9 °C 0,0 km/h (0 Bft)
16.08.2019 23:25 10,9 °C 92 % 1014,5 hPa 0,0 mm 0,0 km/h (0 Bft) O-SO 115 ° 0 min 0,000 mm 0,0 UV-I 0 W/m² 9,7 °C 10,9 °C 0,0 km/h (0 Bft)
16.08.2019 23:26 10,9 °C 92 % 1014,5 hPa 0,0 mm 0,0 km/h (0 Bft) O-SO 115 ° 0 min 0,000 mm 0,0 UV-I 0 W/m² 9,7 °C 10,9 °C 0,0 km/h (0 Bft)
16.08.2019 23:27 10,9 °C 92 % 1014,5 hPa 0,0 mm 0,0 km/h (0 Bft) O-SO 115 ° 0 min 0,000 mm 0,0 UV-I 0 W/m² 9,7 °C 10,9 °C 0,0 km/h (0 Bft)
16.08.2019 23:28 10,9 °C 92 % 1014,5 hPa 0,0 mm 0,0 km/h (0 Bft) O-SO 115 ° 0 min 0,000 mm 0,0 UV-I 0 W/m² 9,7 °C 10,9 °C 0,0 km/h (0 Bft)
16.08.2019 23:29 10,9 °C 92 % 1014,5 hPa 0,0 mm 0,0 km/h (0 Bft) O-SO 115 ° 0 min 0,000 mm 0,0 UV-I 0 W/m² 9,7 °C 10,9 °C 0,0 km/h (0 Bft)
16.08.2019 23:30 10,9 °C 92 % 1014,4 hPa 0,0 mm 0,0 km/h (0 Bft) O-SO 115 ° 0 min 0,000 mm 0,0 UV-I 0 W/m² 9,7 °C 10,9 °C 0,0 km/h (0 Bft)
16.08.2019 23:31 10,9 °C 93 % 1014,5 hPa 0,0 mm 0,0 km/h (0 Bft) O-SO 115 ° 0 min 0,000 mm 0,0 UV-I 0 W/m² 9,8 °C 10,9 °C 0,0 km/h (0 Bft)
16.08.2019 23:32 10,9 °C 93 % 1014,4 hPa 0,0 mm 0,0 km/h (0 Bft) O-SO 115 ° 0 min 0,000 mm 0,0 UV-I 0 W/m² 9,8 °C 10,9 °C 0,0 km/h (0 Bft)
16.08.2019 23:33 10,9 °C 93 % 1014,4 hPa 0,0 mm 0,0 km/h (0 Bft) O-SO 115 ° 0 min 0,000 mm 0,0 UV-I 0 W/m² 9,8 °C 10,9 °C 0,0 km/h (0 Bft)
16.08.2019 23:34 10,9 °C 93 % 1014,4 hPa 0,0 mm 0,0 km/h (0 Bft) O-SO 115 ° 0 min 0,000 mm 0,0 UV-I 0 W/m² 9,8 °C 10,9 °C 0,0 km/h (0 Bft)
16.08.2019 23:35 10,9 °C 93 % 1014,4 hPa 0,0 mm 0,0 km/h (0 Bft) O-SO 115 ° 0 min 0,000 mm 0,0 UV-I 0 W/m² 9,8 °C 10,9 °C 0,0 km/h (0 Bft)
16.08.2019 23:36 10,9 °C 93 % 1014,4 hPa 0,0 mm 0,0 km/h (0 Bft) O-SO 115 ° 0 min 0,000 mm 0,0 UV-I 0 W/m² 9,8 °C 10,9 °C 0,0 km/h (0 Bft)
16.08.2019 23:37 10,9 °C 93 % 1014,4 hPa 0,0 mm 0,0 km/h (0 Bft) O-SO 115 ° 0 min 0,000 mm 0,0 UV-I 0 W/m² 9,8 °C 10,9 °C 0,0 km/h (0 Bft)
16.08.2019 23:38 10,9 °C 93 % 1014,4 hPa 0,0 mm 0,3 km/h (0 Bft) O-SO 114 ° 0 min 0,000 mm 0,0 UV-I 0 W/m² 9,8 °C 10,9 °C 1,6 km/h (1 Bft)
16.08.2019 23:39 10,9 °C 93 % 1014,4 hPa 0,0 mm 1,2 km/h (1 Bft) O-SO 113 ° 0 min 0,000 mm 0,0 UV-I 0 W/m² 9,8 °C 10,9 °C 3,2 km/h (1 Bft)
16.08.2019 23:40 11,0 °C 93 % 1014,4 hPa 0,0 mm 0,2 km/h (0 Bft) O-SO 113 ° 0 min 0,000 mm 0,0 UV-I 0 W/m² 9,9 °C 11,0 °C 1,6 km/h (1 Bft)
16.08.2019 23:41 11,0 °C 93 % 1014,5 hPa 0,0 mm 0,0 km/h (0 Bft) O-SO 113 ° 0 min 0,000 mm 0,0 UV-I 0 W/m² 9,9 °C 11,0 °C 0,0 km/h (0 Bft)
16.08.2019 23:42 11,1 °C 93 % 1014,4 hPa 0,0 mm 0,0 km/h (0 Bft) O-SO 113 ° 0 min 0,000 mm 0,0 UV-I 0 W/m² 10,0 °C 11,1 °C 0,0 km/h (0 Bft)
16.08.2019 23:43 11,1 °C 93 % 1014,4 hPa 0,0 mm 0,0 km/h (0 Bft) O-SO 113 ° 0 min 0,000 mm 0,0 UV-I 0 W/m² 10,0 °C 11,1 °C 0,0 km/h (0 Bft)
16.08.2019 23:44 11,1 °C 93 % 1014,4 hPa 0,0 mm 0,0 km/h (0 Bft) O-SO 113 ° 0 min 0,000 mm 0,0 UV-I 0 W/m² 10,0 °C 11,1 °C 0,0 km/h (0 Bft)
16.08.2019 23:45 11,1 °C 93 % 1014,4 hPa 0,0 mm 0,0 km/h (0 Bft) O-SO 113 ° 0 min 0,000 mm 0,0 UV-I 0 W/m² 10,0 °C 11,1 °C 0,0 km/h (0 Bft)
16.08.2019 23:46 11,1 °C 93 % 1014,4 hPa 0,0 mm 0,0 km/h (0 Bft) O-SO 113 ° 0 min 0,000 mm 0,0 UV-I 0 W/m² 10,0 °C 11,1 °C 0,0 km/h (0 Bft)
16.08.2019 23:47 11,2 °C 93 % 1014,5 hPa 0,0 mm 0,0 km/h (0 Bft) O-SO 113 ° 0 min 0,000 mm 0,0 UV-I 0 W/m² 10,1 °C 11,2 °C 0,0 km/h (0 Bft)
16.08.2019 23:48 11,2 °C 93 % 1014,4 hPa 0,0 mm 0,0 km/h (0 Bft) O-SO 113 ° 0 min 0,000 mm 0,0 UV-I 0 W/m² 10,1 °C 11,2 °C 0,0 km/h (0 Bft)
16.08.2019 23:49 11,2 °C 93 % 1014,4 hPa 0,0 mm 0,0 km/h (0 Bft) O-SO 113 ° 0 min 0,000 mm 0,0 UV-I 0 W/m² 10,1 °C 11,2 °C 0,0 km/h (0 Bft)
16.08.2019 23:50 11,2 °C 93 % 1014,4 hPa 0,0 mm 0,0 km/h (0 Bft) O-SO 113 ° 0 min 0,000 mm 0,0 UV-I 0 W/m² 10,1 °C 11,2 °C 0,0 km/h (0 Bft)
16.08.2019 23:51 11,2 °C 93 % 1014,4 hPa 0,0 mm 0,0 km/h (0 Bft) O-SO 113 ° 0 min 0,000 mm 0,0 UV-I 0 W/m² 10,1 °C 11,2 °C 0,0 km/h (0 Bft)
16.08.2019 23:52 11,2 °C 93 % 1014,5 hPa 0,0 mm 0,0 km/h (0 Bft) O-SO 113 ° 0 min 0,000 mm 0,0 UV-I 0 W/m² 10,1 °C 11,2 °C 0,0 km/h (0 Bft)
16.08.2019 23:53 11,2 °C 93 % 1014,4 hPa 0,0 mm 0,0 km/h (0 Bft) O-SO 113 ° 0 min 0,000 mm 0,0 UV-I 0 W/m² 10,1 °C 11,2 °C 0,0 km/h (0 Bft)
16.08.2019 23:54 11,2 °C 93 % 1014,5 hPa 0,0 mm 0,0 km/h (0 Bft) O-SO 113 ° 0 min 0,000 mm 0,0 UV-I 0 W/m² 10,1 °C 11,2 °C 0,0 km/h (0 Bft)
16.08.2019 23:55 11,2 °C 93 % 1014,5 hPa 0,0 mm 0,0 km/h (0 Bft) O-SO 113 ° 0 min 0,000 mm 0,0 UV-I 0 W/m² 10,1 °C 11,2 °C 0,0 km/h (0 Bft)
16.08.2019 23:56 11,2 °C 93 % 1014,5 hPa 0,0 mm 0,0 km/h (0 Bft) O-SO 113 ° 0 min 0,000 mm 0,0 UV-I 0 W/m² 10,1 °C 11,2 °C 0,0 km/h (0 Bft)
16.08.2019 23:57 11,2 °C 93 % 1014,4 hPa 0,0 mm 0,0 km/h (0 Bft) O-SO 113 ° 0 min 0,000 mm 0,0 UV-I 0 W/m² 10,1 °C 11,2 °C 0,0 km/h (0 Bft)
16.08.2019 23:58 11,2 °C 93 % 1014,5 hPa 0,0 mm 0,0 km/h (0 Bft) O-SO 113 ° 0 min 0,000 mm 0,0 UV-I 0 W/m² 10,1 °C 11,2 °C 0,0 km/h (0 Bft)
16.08.2019 23:59 11,2 °C 93 % 1014,5 hPa 0,0 mm 0,0 km/h (0 Bft) O-SO 113 ° 0 min 0,000 mm 0,0 UV-I 0 W/m² 10,1 °C 11,2 °C 0,0 km/h (0 Bft)
_ Min-Zeit 06:58 17:17 23:57 - 23:59 - - - - - - 23:19 06:58 23:59
Minimum _ 10,7 °C 56 % 1014,4 hPa - 0,0 km/h (0 Bft) - - - - - - 9,6 °C 10,7 °C 0,0 km/h (0 Bft)
_ Max-Zeit 15:02 07:41 06:01 08:24 02:06 - - 15:37 13:01 12:50 12:54 12:28 15:02 02:06
Maximum _ 19,7 °C 95 % 1018,5 hPa 0,2 mm 16,9 km/h
W-SW (3 Bft)
- - 1 min 0,457 mm 7,3 UV-I 1086 W/m² 13,9 °C 19,7 °C 30,6 km/h
W-NW (5 Bft)
Durchschnitt _ 14,8 °C 81 % 1016,8 hPa #5,8 mm 2,1 km/h (1 Bft) W-SW - #3:50 h #2,896 mm 3,2 UV-I 205 W/m² 11,3 °C 14,8 °C 4,1 km/h (1 Bft)